[[{"header":{"parameterUnit":"m.s-1","parameterCategory":1,"la1":31.0,"la2":29.5877,"lo1":-88.7671,"lo2":-86.6584,"dy":0.0162,"dx":0.0185,"nx":115,"ny":88,"refTime":"2024-08-23T06:00:00:Z","depth":0,"parameterNumber":2,"parameterNumberName":"U-component_of_WINDS"},"data":[0.0,0.0,0.0,0.0,0.0,0.0,0.0,0.0,0.0,0.0,0.0,0.0,0.0,0.0,0.0,0.0,0.0,0.0,0.0,0.0,0.0,0.0,0.0,0.0,0.0,0.0,0.0,0.0,0.0,0.0,0.0,0.0,0.0,0.0,0.0,0.0,0.0,0.0,0.0,0.0,0.0,0.0,0.0,0.0,0.0,0.0,0.0,0.0,0.0,0.0,0.0,0.0,0.0,0.0,0.0,0.0,0.0,0.0,0.0,0.0,0.0,0.0,0.0,0.0,0.0,0.0,0.0,0.0,0.0,0.0,0.0,0.0,0.0,0.0,0.0,0.0,0.0,0.0,0.0,0.0,0.0,0.0,0.0,0.0,0.0,0.0,0.0,0.0,0.0,0.0,0.0,0.0,0.0,0.0,0.0,0.0,0.0,0.0,0.0,0.0,0.0,0.0,0.0,0.0,0.0,0.0,0.0,0.0,0.0,0.0,0.0,0.0,0.0,0.0,0.0,0.0,0.0,0.0,0.0,0.0,0.0,0.0,0.0,0.0,0.0,0.0,0.0,0.0,0.0,0.0,0.0,0.0,0.0,0.0,0.0,0.0,0.0,0.0,0.0,0.0,0.0,0.0,0.0,0.0,0.0,0.0,0.0,0.0,0.0,0.0,0.0,0.0,0.0,0.0,0.0,0.0,0.0,0.0,0.0,0.0,0.0,0.0,0.0,0.0,0.0,0.0,0.0,0.0,0.0,0.0,0.0,0.0,0.0,0.0,0.0,0.0,0.0,0.0,0.0,0.0,0.0,0.0,0.0,0.0,0.0,0.0,0.0,0.0,0.0,0.0,0.0,0.0,0.0,0.0,0.0,0.0,0.0,0.0,0.0,0.0,0.0,0.0,0.0,0.0,0.0,0.0,0.0,0.0,0.0,0.0,0.0,0.0,0.0,0.0,0.0,0.0,0.0,0.0,0.0,0.0,0.0,0.0,0.0,0.0,0.0,0.0,0.0,0.0,0.0,0.0,0.0,0.0,0.0,0.0,0.0,0.0,0.0,0.0,0.0,0.0,0.0,0.0,0.0,0.0,0.0,0.0,0.0,0.0,0.0,0.0,0.0,0.0,0.0,0.0,0.0,0.0,0.0,0.0,0.0,0.0,0.0,0.0,0.0,0.0,0.0,0.0,0.0,0.0,0.0,0.0,0.0,0.0,0.0,0.0,0.0,0.0,0.0,0.0,0.0,0.0,0.0,0.0,0.0,0.0,0.0,0.0,0.0,0.0,0.0,0.0,0.0,0.0,0.0,0.0,0.0,0.0,0.0,0.0,0.0,0.0,0.0,0.0,0.0,0.0,0.0,0.0,0.0,0.0,0.0,0.0,0.0,0.0,0.0,0.0,0.0,0.0,0.0,0.0,0.0,0.0,0.0,0.0,0.0,0.0,0.0,0.0,0.0,0.0,0.0,0.0,0.0,0.0,0.0,0.0,0.0,0.0,0.0,0.0,0.0,0.0,0.0,0.0,0.0,0.0,0.0,0.0,0.0,0.0,0.0,0.0,0.0,0.0,0.0,0.0,0.0,0.0,0.0,0.0,0.0,0.0,0.0,0.0,0.0,0.0,0.0,0.0,0.0,0.0,0.0,0.0,0.0,0.0,0.0,0.0,0.0,0.0,0.0,0.0,0.0,0.0,0.0,0.0,0.0,0.0,0.0,0.0,0.0,0.0,0.0,0.0,0.0,0.0,0.0,0.0,0.0,0.0,0.0,0.0,0.0,0.0,0.0,0.0,0.0,0.0,0.0,0.0,0.0,0.0,0.0,0.0,0.0,0.0,0.0,0.0,0.0,0.0,0.0,0.0,0.0,0.0,0.0,0.0,0.0,0.0,0.0,0.0,0.0,0.0,0.0,0.0,0.0,0.0,0.0,0.0,0.0,0.0,0.0,0.0,0.0,0.0,0.0,0.0,0.0,0.0,0.0,0.0,0.0,0.0,0.0,0.0,0.0,0.0,0.0,0.0,0.0,0.0,0.0,0.0,0.0,0.0,0.0,0.0,0.0,0.0,0.0,0.0,0.0,0.0,0.0,0.0,0.0,0.0,0.0,0.0,0.0,0.0,0.0,0.0,0.0,0.0,0.0,0.0,0.0,0.0,0.0,0.0,0.0,0.0,0.0,0.0,0.0,0.0,0.0,0.0,0.0,0.0,0.0,0.0,0.0,0.0,0.0,0.0,0.0,0.0,0.0,0.0,0.0,0.0,0.0,0.0,0.0,0.0,0.0,0.0,0.0,0.0,0.0,0.0,0.0,0.0,0.0,0.0,0.0,0.0,0.0,0.0,0.0,0.0,0.0,0.0,0.0,0.0,0.0,0.0,0.0,0.0,0.0,0.0,0.0,0.0,0.0,0.0,0.0,0.0,0.0,0.0,0.0,0.0,0.0,0.0,0.0,0.0,0.0,0.0,0.0,0.0,0.0,0.0,0.0,0.0,0.0,0.0,0.0,0.0,0.0,0.0,0.0,0.0,0.0,0.0,0.0,0.0,0.0,0.0,0.0,0.0,0.0,0.0,0.0,0.0,0.0,0.0,0.0,0.0,0.0,0.0,0.0,0.0,0.0,0.0,0.0,0.0,0.0,0.0,0.0,0.0,0.0,0.0,0.0,0.0,0.0,0.0,0.0,0.0,0.0,0.0,0.0,0.0,0.0,0.0,0.0,0.0,0.0,0.0,0.0,0.0,0.0,0.0,0.0,0.0,0.0,0.0,0.0,0.0,0.0,0.0,0.0,0.0,0.0,0.0,0.0,0.0,0.0,0.0,0.0,0.0,0.0,0.0,0.0,0.0,0.0,0.0,0.0,0.0,0.0,0.0,0.0,0.0,0.0,0.0,0.0,0.0,0.0,0.0,0.0,0.0,0.0,0.0,0.0,0.0,0.0,0.0,0.0,0.0,0.0,0.0,0.0,0.0,0.0,0.0,0.0,0.0,0.0,0.0,0.0,0.0,0.0,0.0,0.0,0.0,0.0,0.0,0.0,0.0,0.0,0.0,0.0,0.0,0.0,0.0,0.0,0.0,0.0,0.0,0.0,0.0,0.0,0.0,0.0,0.0,0.0,0.0,0.0,0.0,0.0,0.0,0.0,0.0,0.0,0.0,0.0,0.0,0.0,0.0,0.0,0.0,0.0,0.0,0.0,0.0,0.0,0.0,0.0,0.0,0.0,0.0,0.0,0.0,0.0,0.0,0.0,0.0,0.0,0.0,0.0,0.0,0.0,0.0,0.0,0.0,0.0,0.0,0.0,0.0,0.0,0.0,0.0,0.0,0.0,0.0,0.0,0.0,0.0,0.0,0.0,0.0,0.0,0.0,0.0,0.0,0.0,0.0,0.0,0.0,0.0,0.0,0.0,0.0,0.0,0.0,0.0,0.0,0.0,0.0,0.0,0.0,0.0,0.0,0.0,0.0,0.0,0.0,0.0,0.0,0.0,0.0,0.0,0.0,0.0,0.0,0.0,0.0,0.0,0.0,0.0,0.0,0.0,0.0,0.0,0.0,0.0,0.0,0.0,0.0,0.0,0.0,0.0,0.0,0.0,0.0,0.0,0.0,0.0,0.0,0.0,0.0,0.0,0.0,0.0,0.0,0.0,0.0,0.0,0.0,0.0,0.0,0.0,0.0,0.0,0.0,0.0,0.0,0.0,0.0,0.0,0.0,0.0,0.0,0.0,0.0,0.0,0.0,0.0,0.0,0.0,0.0,0.0,0.0,0.0,0.0,0.0,0.0,0.0,0.0,0.0,0.0,0.0,0.0,0.0,0.0,0.0,0.0,0.0,0.0,0.0,0.0,0.0,0.0,0.0,0.0,0.0,0.0,0.0,0.0,0.0,0.0,0.0,0.0,0.0,0.0,0.0,0.0,0.0,0.0,0.0,0.0,0.0,0.0,0.0,0.0,0.0,0.0,0.0,0.0,0.0,0.0,0.0,0.0,0.0,0.0,0.0,0.0,0.0,0.0,0.0,0.0,0.0,0.0,0.0,0.0,0.0,0.0,0.0,0.0,0.0,0.0,0.0,0.0,0.0,0.0,0.0,0.0,0.0,0.0,0.0,0.0,0.0,0.0,0.0,0.0,0.0,0.0,0.0,0.0,0.0,0.0,0.0,0.0,0.0,0.0,0.0,0.0,0.0,0.0,0.0,0.0,0.0,0.0,0.0,0.0,0.0,0.0,0.0,0.0,0.0,0.0,0.0,0.0,0.0,0.0,0.0,0.0,0.0,0.0,0.0,0.0,0.3208,0.0,0.0,0.0,0.0,0.0,0.0,0.0,0.0,0.0,0.0,0.0,0.0,0.0,0.0,0.0,0.0,0.0,0.0,0.0,0.0,0.0,0.0,0.0,0.0,0.0,0.0,0.0,0.0,0.0,0.0,0.0,0.0,0.0,0.0,0.0,0.0,0.0,0.0,0.0,0.0,0.0,0.0,0.0,0.0,0.0,0.0,0.0,0.0,0.0,0.0,0.0,0.0,0.0,0.0,0.0,0.0,0.0,0.0,0.0,0.0,0.0,0.0,0.0,0.0,0.0,0.0,0.0,0.0,0.0,0.0,0.0,0.0,0.0,0.0,0.0,0.0,0.0,0.0,0.0,0.0,0.0,0.0,0.0,0.0,0.0,0.0,0.0,0.0,0.0,0.0,0.0,0.0,0.0,0.0,0.0,0.0,0.0,0.0,0.0,0.0,0.0,0.0,0.0,0.0,0.0,0.0,0.0,0.0,0.0,0.0,0.3208,0.3208,0.3208,0.3208,0.3208,0.0,0.0,0.0,0.0,0.0,0.0,0.0,0.0,0.0,0.0,0.0,0.0,0.0,0.0,0.0,0.0,0.0,0.0,0.0,0.0,0.0,0.0,0.0,0.0,0.0,0.0,0.0,0.0,0.0,0.0,0.0,0.0,0.0,0.0,0.0,0.0,0.0,0.0,0.0,0.0,0.0,0.0,0.0,0.0,0.0,0.0,0.0,0.0,0.0,0.0,0.0,0.0,0.0,0.0,0.0,0.0,0.0,0.0,0.0,0.0,0.0,0.0,0.0,0.0,0.0,0.0,0.0,0.0,0.0,0.0,0.0,0.0,0.0,0.0,0.0,0.0,0.0,0.0,0.0,0.0,0.0,0.0,0.0,0.0,0.0,0.0,0.0,0.0,0.0,0.0,0.0,0.0,0.0,0.0,0.0,0.0,0.0,0.0,0.0,0.0,0.0,0.0,0.0,0.0,0.0,0.0,0.0,0.0,0.0,0.0,0.0,0.0,0.3243,0.3249,0.3244,0.0,0.0,0.0,0.0,0.0,0.0,0.0,0.0,0.0,0.0,0.0,0.0,0.0,0.0,0.0,0.0,0.0,0.0,0.0,0.0,0.0,0.0,0.0,0.0,0.0,0.0,0.0,0.0,0.0,0.0,0.0,0.0,0.0,0.0,0.0,0.0,0.0,0.0,0.0,0.0,0.0,0.0,0.0,0.0,0.0,0.0,0.0,0.0,0.0,0.0,0.0,0.0,0.0,0.0,0.0,0.0,0.0,0.0,0.0,0.0,0.0,0.0,0.0,0.0,0.0,0.0,0.0,0.0,0.0,0.0,0.0,0.0,0.0,0.0,0.0,0.0,0.0,0.0,0.0,0.0,0.0,0.0,0.0,0.0,0.0,0.0,0.0,0.0,0.0,0.0,0.0,0.0,0.0,0.0,0.0,0.0,0.0,0.0,0.0,0.0,0.0,0.0,0.0,0.0,0.0,0.0,0.0,0.0,0.0,0.0,0.3257,0.3377,0.3388,0.0,0.3364,0.0,0.0,0.0,0.0,0.0,0.0,0.0,0.0,0.0,0.0,0.0,0.0,0.0,0.0,0.0,0.0,0.0,0.0,0.0,0.0,0.0,0.0,0.0,0.0,0.0,0.0,0.0,0.0,0.0,0.0,0.0,0.0,0.0,0.0,0.0,0.0,0.0,0.0,0.0,0.0,0.0,0.0,0.0,0.0,0.0,0.0,0.0,0.0,0.0,0.0,0.0,0.0,0.0,0.0,0.0,0.0,0.0,0.0,0.0,0.0,0.0,0.0,0.0,0.0,0.0,0.0,0.0,0.0,0.0,0.0,0.0,0.0,0.0,0.0,0.0,0.0,0.0,0.0,0.0,0.0,0.0,0.0,0.0,0.0,0.0,0.0,0.0,0.0,0.0,0.0,0.0,0.0,0.0,0.0,0.0,0.0,0.0,0.0,0.0,0.0,0.0,0.0,0.0,0.0,0.0,0.0,0.0,0.0,0.0,0.0,0.3342,0.3388,0.3357,0.3338,0.0,0.0,0.0,0.0,0.0,0.0,0.0,0.0,0.0,0.0,0.0,0.0,0.0,0.0,0.0,0.0,0.0,0.0,0.0,0.0,0.0,0.0,0.0,0.0,0.0,0.0,0.0,0.0,0.0,0.0,0.0,0.0,0.0,0.0,0.0,0.0,0.0,0.0,0.0,0.0,0.0,0.0,0.0,0.0,0.0,0.0,0.0,0.0,0.0,0.0,0.0,0.0,0.0,0.0,0.0,0.0,0.0,0.0,0.0,0.0,0.0,0.0,0.0,0.0,0.0,0.0,0.0,0.0,0.0,0.0,0.0,0.0,0.0,0.0,0.0,0.0,0.0,0.0,0.0,0.0,0.0,0.0,0.0,0.0,0.0,0.0,0.0,0.0,0.0,0.0,0.0,0.0,0.0,0.0,0.0,0.0,0.0,0.0,0.0,0.0,0.0,0.0,0.0,0.0,0.0,0.0,0.0,0.0,0.0,0.0,0.3036,0.3244,0.3333,0.3357,0.3285,0.3143,0.0,0.0,0.0,0.0,0.0,0.0,0.0,0.0,0.0,0.0,0.0,0.0,0.0,0.0,0.0,0.0,0.0,0.0,0.0,0.0,0.0,0.0,0.0,0.0,0.0,0.0,0.0,0.0,0.0,0.0,0.0,0.0,0.0,0.0,0.0,0.0,0.0,0.0,0.0,0.0,0.0,0.0,0.0,0.0,0.0,0.0,0.0,0.0,0.0,0.0,0.0,0.0,0.0,0.0,0.0,0.0,0.0,0.0,0.0,0.0,0.0,0.0,0.0,0.0,0.0,0.0,0.0,0.0,0.0,0.0,0.0,0.0,0.0,0.0,0.0,0.0,0.0,0.0,0.0,0.0,0.0,0.0,0.0,0.0,0.0,0.0,0.0,0.0,0.0,0.0,0.0,0.0,0.0,0.0,0.0,0.0,0.0,0.0,0.0,0.0,0.0,0.0,0.0,0.0,0.0,0.0,0.0,0.0,0.0,0.2642,0.2896,0.32,0.3382,0.3246,0.0,0.0,0.0,0.0,0.0,0.0,0.0,0.0,0.0,0.0,0.0,0.0,0.0,0.0,0.0,0.0,0.0,0.0,0.0,0.0,0.0,0.0,0.0,0.0,0.0,0.0,0.0,0.0,0.0,0.0,0.0,0.0,0.0,0.0,0.0,0.0,0.0,0.0,0.0,0.0,0.0,0.0,0.0,0.0,0.0,0.0,0.0,0.0,0.0,0.0,0.0,0.0,0.0,0.0,0.0,0.0,0.0,0.0,0.0,0.0,0.0,0.0,0.0,0.0,0.0,0.0,0.0,0.0,0.0,0.0,0.0,0.0,0.0,0.0,0.0,0.0,0.0,0.0,0.0,0.0,0.0,0.0,0.0,0.0,0.0,0.0,0.0,0.0,0.0,0.0,0.0,0.0,0.0,0.0,0.0,0.0,0.0,0.0,0.0,0.0,0.0,0.0,0.0,0.0,0.0,0.0,0.0,0.0,0.0,0.2342,0.2821,0.3196,0.3383,0.3251,0.3009,0.0,0.0,0.0,0.0,0.0,0.0,0.0,0.0,0.0,0.0,0.0,0.0,0.0,0.0,0.0,0.0,0.0,0.0,0.0,0.0,0.0,0.0,0.0,0.0,0.0,0.0,0.0,0.0,0.0,0.0,0.0,0.0,0.0,0.0,0.0,0.0,0.0,0.0,0.0,0.0,0.0,0.0,0.0,0.0,0.0,0.0,0.0,0.0,0.0,0.0,0.0,0.0,0.0,0.0,0.0,0.0,0.0,0.0,0.0,0.0,0.0,0.0,0.0,0.0,0.0,0.0,0.0,0.0,0.0,0.0,0.0,0.0,0.0,0.0,0.0,0.0,0.0,0.0,0.0,0.0,0.0,0.0,0.0,0.0,0.0,0.0,0.0,0.0,0.0,0.0,0.0,0.0,0.0,0.0,0.0,0.0,0.0,0.0,0.0,0.0,0.0,0.0,0.0,0.0,0.0,0.0,0.0,0.0,0.0,0.2347,0.0,0.3218,0.0,0.3049,0.2785,0.0,0.0,0.0,0.0,0.0,0.0,0.0,0.0,0.0,0.0,0.0,0.0,0.0,0.0,0.0,0.0,0.0,0.0,0.0,0.0,0.0,0.0,0.0,0.0,0.0,0.0,0.0,0.0,0.0,0.0,0.0,0.0,0.0,0.0,0.0,0.0,0.0,0.0,0.0,0.0,0.0,0.0,0.0,0.0,0.0,0.0,0.0,0.0,0.0,0.0,0.0,0.0,0.0,0.0,0.0,0.0,0.0,0.0,0.0,0.0,0.0,0.0,0.0,0.0,0.0,0.0,0.0,0.0,0.0,0.0,0.0,0.0,0.0,0.0,0.0,0.0,0.0,0.0,0.0,0.0,0.0,0.0,0.0,0.0,0.0,0.0,0.0,0.0,0.0,0.0,0.0,0.0,0.0,0.0,0.0,0.0,0.0,0.0,0.0,0.0,0.0,0.0,0.0,0.0,0.0,0.0,0.0,0.0,0.2016,0.2402,0.2855,0.295,0.2628,0.2804,0.2592,0.0,0.0,0.0,0.0,0.0,0.0,0.0,0.0,0.0,0.0,0.0,0.0,0.0,0.0,0.0,0.0,0.0,0.0,0.0,0.0,0.0,0.0,0.0,0.0,0.0,0.0,0.0,0.0,0.0,0.0,0.0,0.0,0.0,0.0,0.0,0.0,0.0,0.0,0.0,0.0,0.0,0.0,0.0,0.0,0.0,0.0,0.0,0.0,0.0,0.0,0.0,0.0,0.0,0.0,0.0,0.0,0.0,0.0,0.0,0.0,0.0,0.0,0.0,0.0,0.0,0.0,0.0,0.0,0.0,0.0,0.0,0.0,0.0,0.0,0.0,0.0,0.0,0.0,0.0,0.0,0.0,0.0,0.0,0.0,0.0,0.0,0.0,0.0,0.0,0.0,0.0,0.0,0.0,0.0,0.0,0.0,0.0,0.0,0.0,0.0,0.0,0.0,0.0,0.0,0.0,0.0,0.0,0.0,0.0,0.2673,0.2828,0.2849,0.275,0.2707,0.2498,0.0,0.0,0.0,0.0,0.0,0.0,0.0,0.0,0.0,0.0,0.0,0.0,0.0,0.0,0.0,0.0,0.0,0.0,0.0,0.0,0.0,0.0,0.0,0.0,0.0,0.0,0.0,0.0,0.0,0.0,0.0,0.0,0.0,0.0,0.0,0.0,0.0,0.0,0.0,0.0,0.0,0.0,0.0,0.0,0.0,0.0,0.0,0.0,0.0,0.0,0.0,0.0,0.0,0.0,0.0,0.0,0.0,0.0,0.0,0.0,0.0,0.0,0.0,0.0,0.0,0.0,0.0,0.0,0.0,0.0,0.0,0.0,0.0,0.0,0.0,0.0,0.0,0.0,0.0,0.0,0.0,0.0,0.0,0.0,0.0,0.0,0.0,0.0,0.0,0.0,0.0,0.0,0.0,0.0,0.0,0.0,0.0,0.0,0.0,0.0,0.0,0.0,0.0,0.0,0.0,0.0,0.0,0.0,0.0,0.2708,0.277,0.2836,0.2898,0.2764,0.2564,0.2326,0.0,0.0,0.0,0.0,0.0,0.0,0.0,0.0,0.0,0.0,0.0,0.0,0.0,0.0,0.0,0.0,0.0,0.0,0.0,0.0,0.0,0.0,0.0,0.0,0.0,0.0,0.0,0.0,0.0,0.0,0.0,0.0,0.0,0.0,0.0,0.0,0.0,0.0,0.0,0.0,0.0,0.0,0.0,0.0,0.0,0.0,0.0,0.0,0.0,0.0,0.0,0.0,0.0,0.0,0.0,0.0,0.0,0.0,0.0,0.0,0.0,0.0,0.0,0.0,0.0,0.0,0.0,0.0,0.0,0.0,0.0,0.0,0.0,0.0,0.0,0.0,0.0,0.0,0.0,0.0,0.0,0.0,0.0,0.0,0.0,0.0,0.0,0.0,0.0,0.0,0.0,0.0,0.0,0.0,0.0,0.0,0.0,0.0,0.0,0.0,0.0,0.0,0.0,0.0,0.0,0.0,0.0,0.0,0.259,0.2731,0.2916,0.3078,0.2931,0.2731,0.0,0.0,0.0,0.0,0.0,0.0,0.0,0.0,0.0,0.0,0.0,0.0,0.0,0.0,0.0,0.0,0.0,0.0,0.0,0.0,0.0,0.0,0.0,0.0,0.0,0.0,0.0,0.0,0.0,0.0,0.0,0.0,0.0,0.0,0.0,0.0,0.0,0.0,0.0,0.0,0.0,0.0,0.0,0.0,0.0,0.0,0.0,0.0,0.0,0.0,0.0,0.0,0.0,0.0,0.0,0.0,0.0,0.0,0.0,0.0,0.0,0.0,0.0,0.0,0.0,0.0,0.0,0.0,0.0,0.0,0.0,0.0,0.0,0.0,0.0,0.0,0.0,0.0,0.0,0.0,0.0,0.0,0.0,0.0,0.0,0.0,0.0,0.0,0.0,0.0,0.0,0.0,0.0,0.0,0.0,0.0,0.0,0.0,0.0,0.0,0.0,0.0,0.0,0.0,0.0,0.0,0.0,0.0,0.0,0.2595,0.2838,0.2987,0.311,0.3183,0.3074,0.0,0.0,0.0,0.0,0.0,0.0,0.0,0.0,0.0,0.0,0.0,0.0,0.0,0.0,0.0,0.0,0.0,0.0,0.0,0.0,0.0,0.0,0.0,0.0,0.0,0.0,0.0,0.0,0.0,0.0,0.0,0.0,0.0,0.0,0.0,0.0,0.0,0.0,0.0,0.0,0.0,0.0,0.0,0.0,0.0,0.0,0.0,0.0,0.0,0.0,0.0,0.0,0.0,0.0,0.0,0.0,0.0,0.0,0.0,0.0,0.0,0.0,0.0,0.0,0.0,0.0,0.0,0.0,0.0,0.0,0.0,0.0,0.0,0.0,0.0,0.0,0.0,0.0,0.0,0.0,0.0,0.0,0.0,0.0,0.0,0.0,0.0,0.0,0.0,0.0,0.0,0.0,0.0,0.0,0.0,0.0,0.0,0.0,0.0,0.0,0.0,0.0,0.0,0.0,0.0,0.0,0.0,0.0,0.2302,0.2552,0.2911,0.3159,0.3308,0.3319,0.3266,0.0,0.0,0.0,0.0,0.0,0.0,0.0,0.0,0.0,0.0,0.0,0.0,0.0,0.0,0.0,0.0,0.0,0.0,0.0,0.0,0.0,0.0,0.0,0.0,0.0,0.0,0.0,0.0,0.0,0.0,0.0,0.0,0.0,0.0,0.0,0.0,0.0,0.0,0.0,0.0,0.0,0.0,0.0,0.0,0.0,0.0,0.0,0.0,0.0,0.0,0.0,0.0,0.0,0.0,0.0,0.0,0.0,0.0,0.0,0.0,0.0,0.0,0.0,0.0,0.0,0.0,0.0,0.0,0.0,0.0,0.0,0.0,0.0,0.0,0.0,0.0,0.0,0.0,0.0,0.0,0.0,0.0,0.0,0.0,0.0,0.0,0.0,0.0,0.0,0.0,0.0,0.0,0.0,0.0,0.0,0.0,0.0,0.0,0.0,0.0,0.0,0.0,0.0,0.0,0.0,0.0,0.0,0.0,0.2248,0.2505,0.2953,0.3295,0.3558,0.3357,0.3407,0.0,0.0,0.0,0.0,0.0,0.0,0.0,0.0,0.0,0.0,0.0,0.0,0.0,0.0,0.0,0.0,0.0,0.0,0.0,0.0,0.0,0.0,0.0,0.0,0.0,0.0,0.0,0.0,0.0,0.0,0.0,0.0,0.0,0.0,0.0,0.0,0.0,0.0,0.0,0.0,0.0,0.0,0.0,0.0,0.0,0.0,0.0,0.0,0.0,0.0,0.0,0.0,0.0,0.0,0.0,0.0,0.0,0.0,0.0,0.0,0.0,0.0,0.0,0.0,0.0,0.0,0.0,0.0,0.0,0.0,0.0,0.0,0.0,0.0,0.0,0.0,0.0,0.0,0.0,0.0,0.0,0.0,0.0,0.0,0.0,0.0,0.0,0.0,0.0,0.0,0.0,0.0,0.0,0.0,0.0,0.0,0.0,0.0,0.0,0.0,0.0,0.0,0.0,0.0,0.0,0.0,0.0,0.0,0.2334,0.2639,0.285,0.3112,0.3437,0.3591,0.3671,0.0,0.0,0.0,0.0,0.0,0.0,0.0,0.0,0.0,0.0,0.0,0.0,0.0,0.0,0.0,0.0,0.0,0.0,0.0,0.0,0.0,0.0,0.0,0.0,0.0,0.0,0.0,0.0,0.0,0.0,0.0,0.0,0.0,0.0,0.0,0.0,0.0,0.0,0.0,0.0,0.0,0.0,0.0,0.0,0.0,0.0,0.0,0.0,0.5612,0.0,0.0,0.0,0.0,0.0,0.0,0.0,0.0,0.0,0.0,0.0,0.0,0.0,0.0,0.0,0.0,0.0,0.0,0.0,0.0,0.0,0.0,0.0,0.0,0.0,0.0,0.0,0.0,0.0,0.0,0.0,0.0,0.0,0.0,0.0,0.0,0.0,0.0,0.0,0.0,0.0,0.0,0.0,0.0,0.0,0.0,0.0,0.0,0.0,0.0,0.0,0.0,0.0,0.0,0.0,0.0,0.0,0.0,0.0,0.218,0.2368,0.2467,0.2698,0.3059,0.3242,0.3411,0.0,0.0,0.0,0.0,0.0,0.0,0.0,0.0,0.0,0.0,0.0,0.0,0.0,0.0,0.0,0.0,0.0,0.0,0.0,0.0,0.0,0.0,0.0,0.0,0.0,0.0,0.0,0.0,0.0,0.0,0.0,0.0,0.0,0.0,0.0,0.0,0.0,0.0,0.0,0.0,0.0,0.0,0.0,0.0,0.0,0.0,0.0,0.0,0.0,0.0,0.0,0.0,0.0,0.0,0.0,0.0,0.0,0.0,0.0,0.0,0.0,0.0,0.0,0.0,0.0,0.0,0.0,0.0,0.0,0.0,0.0,0.0,0.0,0.0,0.0,0.0,0.0,0.0,0.0,0.0,0.0,0.0,0.0,0.0,0.0,0.0,0.0,0.0,0.0,0.0,0.0,0.0,0.0,0.0,0.0,0.0,0.0,0.0,0.0,0.0,0.0,0.0,0.0,0.0,0.0,0.0,0.0,0.187,0.1984,0.2014,0.2069,0.2263,0.2594,0.2702,0.2919,0.3274,0.0,0.0,0.0,0.0,0.0,0.0,0.0,0.0,0.0,0.0,0.0,0.0,0.0,0.0,0.0,0.0,0.0,0.0,0.0,0.0,0.0,0.0,0.0,0.0,0.0,0.0,0.0,0.0,0.0,0.0,0.0,0.0,0.0,0.0,0.0,0.0,0.0,0.0,0.5054,0.5743,0.0,0.0,0.0,0.0,0.0,0.0,0.0,0.0,0.5932,0.0,0.0,0.0,0.0,0.0,0.0,0.0,0.0,0.0,0.0,0.0,0.0,0.0,0.0,0.0,0.0,0.0,0.0,0.0,0.0,0.0,0.0,0.0,0.0,0.0,0.0,0.0,0.0,0.0,0.0,0.0,0.0,0.0,0.0,0.0,0.0,0.0,0.0,0.0,0.0,0.0,0.0,0.0,0.0,0.0,0.0,0.0,0.0,0.0,0.0,0.0,0.0,0.0,0.0,0.0,0.0,0.1767,0.1866,0.1974,0.2072,0.2101,0.212,0.2201,0.2432,0.2506,0.2441,0.0,0.0,0.0,0.0,0.0,0.0,0.0,0.0,0.0,0.0,0.0,0.0,0.0,0.0,0.0,0.0,0.0,0.0,0.0,0.0,0.0,0.0,0.0,0.0,0.0,0.0,0.0,0.0,0.0,0.0,0.0,0.0,0.0,0.0,0.0,0.0,0.0,0.0,0.0,0.5956,0.6408,0.0,0.0,0.0,0.0,0.0,0.0,0.0,0.0,0.573,0.0,0.0,0.0,0.0,0.0,0.0,0.0,0.0,0.0,0.0,0.0,0.0,0.0,0.0,0.0,0.0,0.0,0.0,0.0,0.0,0.0,0.0,0.0,0.0,0.0,0.0,0.0,0.0,0.0,0.0,0.0,0.0,0.0,0.0,0.0,0.0,0.0,0.0,0.0,0.0,0.0,0.0,0.0,0.0,0.0,0.0,0.0,0.0,0.0,0.0,0.0,0.0,0.0,0.0,0.0,0.1544,0.1597,0.1675,0.1732,0.1727,0.1738,0.1746,0.2025,0.2111,0.0,0.0,0.0,0.0,0.0,0.0,0.0,0.0,0.0,0.0,0.0,0.0,0.0,0.0,0.0,0.0,0.0,0.0,0.0,0.0,0.0,0.0,0.0,0.0,0.0,0.0,0.0,0.0,0.0,0.0,0.0,0.0,0.0,0.0,0.0,0.0,0.0,0.0,0.0,0.0,0.6076,0.6302,0.6039,0.0,0.0,0.0,0.0,0.0,0.0,0.5538,0.5577,0.0,0.0,0.0,0.0,0.0,0.0,0.0,0.0,0.0,0.0,0.0,0.0,0.0,0.0,0.0,0.0,0.0,0.0,0.0,0.0,0.0,0.0,0.0,0.0,0.0,0.0,0.0,0.0,0.0,0.0,0.0,0.0,0.0,0.0,0.0,0.0,0.0,0.0,0.0,0.0,0.0,0.0,0.0,0.0,0.0,0.0,0.0,0.0,0.0,0.0,0.0,0.0,0.0,0.0,0.0,0.1311,0.1375,0.1407,0.1406,0.14,0.14,0.141,0.1697,0.1804,0.0,0.0,0.0,0.0,0.0,0.0,0.0,0.0,0.0,0.0,0.0,0.0,0.0,0.0,0.0,0.0,0.0,0.0,0.0,0.0,0.0,0.0,0.0,0.0,0.0,0.0,0.0,0.0,0.0,0.0,0.0,0.0,0.0,0.0,0.0,0.0,0.0,0.0,0.0,0.0,0.0,0.6115,0.6171,0.6095,0.0,0.0,0.0,0.0,0.5254,0.53,0.0,0.0,0.0,0.0,0.0,0.0,0.0,0.0,0.0,0.0,0.0,0.0,0.0,0.0,0.0,0.0,0.0,0.0,0.0,0.0,0.0,0.0,0.0,0.0,0.0,0.0,0.0,0.0,0.0,0.0,0.0,0.0,0.0,0.0,0.0,0.0,0.0,0.0,0.0,0.0,0.0,0.0,0.0,0.0,0.0,0.0,0.0,0.0,0.0,0.0,0.0,0.0,0.0,0.0,0.0,0.0,0.1313,0.1366,0.1408,0.1404,0.14,0.14,0.141,0.1605,0.1711,0.0,0.0,0.0,0.0,0.0,0.0,0.0,0.0,0.0,0.0,0.0,0.0,0.0,0.0,0.0,0.0,0.0,0.0,0.0,0.0,0.0,0.0,0.0,0.0,0.0,0.0,0.0,0.0,0.0,0.0,0.0,0.0,0.0,0.0,0.0,0.0,0.0,0.0,0.0,0.0,0.0,0.6022,0.579,0.6018,0.6139,0.0,0.0,0.61,0.5394,0.5644,0.0,0.0,0.0,0.0,0.0,0.0,0.0,0.0,0.0,0.0,0.0,0.0,0.0,0.0,0.0,0.0,0.0,0.0,0.0,0.0,0.0,0.0,0.0,0.0,0.0,0.0,0.0,0.0,0.0,0.0,0.0,0.0,0.0,0.0,0.0,0.0,0.0,0.0,0.0,0.0,0.0,0.0,0.0,0.0,0.0,0.0,0.0,0.0,0.0,0.0,0.0,0.0,0.0,0.0,0.0,0.1208,0.1244,0.131,0.1378,0.1406,0.14,0.14,0.14,0.1521,0.1597,0.0,0.0,0.0,0.0,0.0,0.0,0.0,0.0,0.0,0.0,0.0,0.0,0.0,0.0,0.0,0.0,0.0,0.0,0.0,0.0,0.0,0.0,0.0,0.0,0.0,0.0,0.0,0.0,0.0,0.0,0.0,0.0,0.0,0.0,0.0,0.0,0.0,0.0,0.0,0.0,0.0,0.0,0.5664,0.5788,0.0,0.0,0.0,0.6011,0.5739,0.0,0.0,0.0,0.0,0.0,0.0,0.0,0.0,0.0,0.0,0.0,0.0,0.0,0.0,0.0,0.0,0.0,0.0,0.0,0.0,0.0,0.0,0.0,0.0,0.0,0.0,0.0,0.0,0.0,0.0,0.0,0.0,0.0,0.0,0.0,0.0,0.0,0.0,0.0,0.0,0.0,0.0,0.0,0.0,0.0,0.0,0.0,0.0,0.0,0.0,0.0,0.0,0.0,0.0,0.0,0.0,0.0,0.117,0.1263,0.1346,0.1407,0.14,0.14,0.141,0.146,0.0,0.0,0.0,0.0,0.0,0.0,0.0,0.0,0.0,0.0,0.0,0.0,0.0,0.0,0.0,0.0,0.0,0.0,0.0,0.0,0.0,0.0,0.0,0.0,0.0,0.0,0.0,0.3662,0.0,0.0,0.0,0.0,0.0,0.0,0.0,0.0,0.0,0.0,0.0,0.0,0.0,0.0,0.5727,0.5659,0.5726,0.5805,0.0,0.0,0.5998,0.6022,0.5773,0.5672,0.0,0.0,0.0,0.0,0.0,0.0,0.0,0.0,0.0,0.0,0.0,0.0,0.0,0.0,0.0,0.0,0.0,0.0,0.0,0.0,0.0,0.0,0.0,0.0,0.0,0.0,0.0,0.0,0.0,0.0,0.0,0.0,0.0,0.0,0.0,0.0,0.0,0.0,0.0,0.0,0.0,0.0,0.0,0.0,0.0,0.0,0.0,0.0,0.0,0.0,0.0,0.0,0.0,0.0,0.097,0.1102,0.1226,0.1326,0.1396,0.14,0.14,0.141,0.1408,0.1403,0.0,0.0,0.0,0.0,0.0,0.0,0.0,0.0,0.0,0.0,0.0,0.0,0.0,0.0,0.0,0.0,0.0,0.0,0.0,0.0,0.0,0.0,0.0,0.0,0.0,0.0,0.0,0.0,0.0,0.0,0.0,0.0,0.0,0.0,0.0,0.0,0.0,0.0,0.0,0.0,0.0,0.5655,0.5766,0.595,0.6083,0.0,0.6186,0.6226,0.6105,0.6218,0.6248,0.5944,0.0,0.0,0.0,0.0,0.0,0.0,0.0,0.0,0.0,0.0,0.0,0.0,0.0,0.0,0.0,0.0,0.0,0.0,0.0,0.0,0.0,0.0,0.0,0.0,0.0,0.0,0.0,0.0,0.0,0.0,0.0,0.0,0.0,0.0,0.0,0.0,0.0,0.0,0.0,0.0,0.0,0.0,0.0,0.0,0.0,0.0,0.0,0.0,0.0,0.0,0.0,0.0,0.0,0.0631,0.0734,0.0945,0.1088,0.1161,0.1361,0.1466,0.1466,0.1468,0.1429,0.0,0.0,0.0,0.0,0.0,0.0,0.0,0.0,0.0,0.0,0.0,0.0,0.0,0.0,0.0,0.0,0.0,0.0,0.0,0.0,0.0,0.0,0.0,0.0,0.0,0.0,0.0,0.0,0.3786,0.3655,0.3514,0.0,0.0,0.0,0.0,0.0,0.0,0.0,0.0,0.0,0.0,0.5846,0.6127,0.6171,0.0,0.0,0.6228,0.6197,0.6284,0.6253,0.614,0.5888,0.5796,0.0,0.0,0.0,0.0,0.0,0.0,0.0,0.0,0.0,0.0,0.0,0.0,0.0,0.0,0.0,0.0,0.0,0.0,0.0,0.0,0.0,0.0,0.0,0.0,0.0,0.0,0.0,0.0,0.0,0.0,0.0,0.0,0.0,0.0,0.0,0.0,0.0,0.0,0.0,0.0,0.0,0.0,0.0,0.0,0.0,0.0,0.0,0.0,0.0,0.0,0.0,0.0,0.0362,0.0419,0.059,0.0724,0.0799,0.1138,0.1326,0.132,0.1413,0.1417,0.0,0.0,0.0,0.0,0.0,0.0,0.0,0.0,0.0,0.0,0.0,0.0,0.0,0.0,0.0,0.0,0.0,0.0,0.0,0.0,0.0,0.0,0.0,0.0,0.0,0.0,0.0,0.0,0.3781,0.3649,0.3397,0.0,0.0,0.0,0.0,0.0,0.0,0.0,0.0,0.0,0.0,0.6,0.63,0.6292,0.629,0.6383,0.6278,0.6225,0.6392,0.6294,0.6141,0.5953,0.0,0.0,0.0,0.0,0.0,0.0,0.0,0.0,0.0,0.0,0.0,0.0,0.0,0.0,0.0,0.0,0.0,0.0,0.0,0.0,0.0,0.0,0.0,0.0,0.0,0.0,0.0,0.109,0.0,0.0,0.0892,0.0,0.0,0.0,0.0,0.0,0.0,0.0,0.0,0.0,0.0,0.0,0.0,0.0,0.0,0.0,0.0,0.0,0.0,0.0,0.0,0.0,0.0,0.0202,0.0205,0.0215,0.0245,0.0314,0.0718,0.0917,0.0943,0.1223,0.1365,0.1308,0.0,0.0,0.0,0.0,0.0,0.0,0.0,0.0,0.0,0.0,0.0,0.0,0.0,0.0,0.0,0.0,0.0,0.0,0.0,0.0,0.0,0.0,0.0,0.0,0.0,0.0,0.3678,0.3698,0.3642,0.0,0.0,0.0,0.0,0.0,0.0,0.0,0.0,0.0,0.5485,0.5851,0.6113,0.621,0.6302,0.6408,0.6428,0.6387,0.64,0.6412,0.6404,0.6351,0.0,0.0,0.0,0.0,0.0,0.0,0.0,0.0,0.0,0.0,0.0,0.0,0.0,0.0,0.0,0.0,0.0,0.0,0.0,0.0,0.0,0.0,0.0,0.0,0.0,0.0,0.0,0.0581,0.057,0.0,0.0,0.0,0.0,0.0,0.0,0.0,0.0,0.0,0.0,0.0,-0.0316,-0.0661,0.0,0.0,0.0,0.0,0.0,0.0,0.0,0.0,0.0,0.0,0.0,0.0,-0.019,-0.0196,-0.0095,-0.0051,-0.0013,0.0366,0.0689,0.0962,0.1039,0.1143,0.1302,0.0,0.0,0.0,0.0,0.0,0.0,0.0,0.0,0.0,0.0,0.0,0.0,0.0,0.0,0.0,0.0,0.0,0.0,0.0,0.0,0.0,0.0,0.0,0.0,0.0,0.3297,0.0,0.0,0.0,0.0,0.0,0.0,0.0,0.0,0.0,0.0,0.0,0.586,0.6072,0.6322,0.6556,0.6724,0.6771,0.6808,0.0,0.0,0.0,0.0,0.0,0.0,0.0,0.0,0.0,0.0,0.0,0.0,0.0,0.0,0.6629,0.602,0.5861,0.5798,0.5665,0.0,0.0,0.0,0.0,0.0,0.0,0.0,0.0,0.0,0.0,0.0,0.0,0.0,0.0,0.0156,0.0096,0.0121,0.0,0.0,0.0,0.0,0.0,0.0,0.0,0.0,-0.0634,-0.0755,-0.0863,-0.1266,-0.1399,-0.1338,-0.1499,-0.1401,0.0,0.0,0.0,0.0,0.0,0.0,0.0,0.0,-0.0603,-0.054,-0.0576,-0.0536,-0.042,-0.0027,0.0377,0.0785,0.103,0.1203,0.1315,0.1262,0.1189,0.0,0.0,0.0,0.0,0.0,0.0,0.0,0.0,0.0,0.0,0.0,0.0,0.0,0.0,0.0,0.0,0.0,0.0,0.0,0.0,0.0,0.0,0.0,0.3432,0.0,0.0,0.0,0.0,0.0,0.0,0.0,0.0,0.0,0.6485,0.6428,0.6358,0.6477,0.6677,0.6853,0.6971,0.0,0.0,0.0,0.0,0.0,0.0,0.0,0.6967,0.6833,0.6797,0.6823,0.6897,0.7027,0.7234,0.7521,0.0,0.0,0.6665,0.6605,0.6608,0.6481,0.6627,0.679,0.679,0.699,0.7192,0.0,0.0,0.0,0.0,0.016,0.0,0.0,0.0,-0.0045,-0.0189,0.0,-0.031,0.0,0.0,0.0,0.0,-0.0549,-0.0729,0.0,0.0,-0.1385,-0.157,-0.1726,-0.1846,-0.1923,-0.1898,-0.1621,-0.1669,-0.1976,-0.1379,0.0,0.0,0.0,0.0,0.0,0.0,-0.1005,-0.0834,-0.1135,-0.1169,-0.0884,-0.0449,-0.0014,0.0413,0.1146,0.1513,0.1422,0.1359,0.1303,0.1307,0.1347,0.0,0.0,0.0,0.0,0.0,0.0,0.0,0.0,0.0,0.0,0.0,0.0,0.0,0.0,0.0,0.0,0.0,0.0,0.0,0.0,0.3529,0.0,0.0,0.0,0.0,0.0,0.0,0.0,0.0,0.0,0.0,0.6614,0.6709,0.6695,0.6691,0.0,0.0,0.0,0.0,0.7203,0.7189,0.7372,0.74,0.7147,0.7124,0.708,0.7022,0.0,0.0,0.7272,0.7091,0.7064,0.7551,0.7558,0.7507,0.7225,0.7315,0.7468,0.7457,0.7446,0.7466,0.7447,0.7405,0.7531,-0.1096,0.0,0.0,0.0,0.0,-0.0612,-0.0857,-0.1247,-0.1274,-0.1308,-0.1361,-0.134,0.0,0.0,0.0,0.0,0.0,0.0,-0.1549,-0.1601,-0.1867,-0.2028,-0.2086,-0.2399,-0.2486,-0.2414,-0.2547,-0.2641,-0.2677,-0.2181,-0.1677,-0.1181,0.0,0.0,0.0,0.0,-0.1303,-0.1175,-0.1358,-0.1281,-0.0915,-0.0767,-0.0358,0.0386,0.091,0.1296,0.1529,0.1481,0.1438,0.1368,0.14,0.0,0.0,0.0,0.0,0.0,0.0,0.0,0.0,0.0,0.0,0.0,0.0,0.0,0.0,0.0,0.0,0.0,0.0,0.0,0.364,0.3389,0.3414,0.0,0.0,0.0,0.0,0.0,0.0,0.0,0.0,0.0,0.4396,0.5374,0.6309,0.0,0.0,0.6712,0.6708,0.6949,0.7074,0.6921,0.7178,0.0,0.7328,0.7289,0.7248,0.7224,0.6781,0.6653,0.7398,0.6447,0.5826,0.66,0.6216,0.6236,0.7804,0.7861,0.7646,0.7648,0.7616,0.7369,0.6937,0.7291,0.7428,-0.2033,-0.1172,-0.107,-0.1162,-0.1385,-0.144,-0.1666,-0.2005,-0.2006,-0.2036,-0.2109,-0.2026,-0.1986,-0.1973,-0.1975,0.0,0.0,0.0,-0.2022,-0.2069,-0.2273,-0.2422,-0.2538,-0.2787,-0.2863,-0.2798,-0.2863,-0.3001,-0.3146,-0.2616,-0.2204,-0.1929,0.0,-0.1424,-0.1527,-0.175,-0.1796,-0.1678,-0.1812,-0.1725,-0.1379,-0.0857,-0.0309,0.0245,0.0938,0.1419,0.1627,0.1591,0.155,0.1489,0.1476,0.1436,0.0,0.0,0.0,0.0,0.0,0.0,0.0,0.0,0.0,0.0,0.0,0.2905,0.2887,0.0,0.0,0.0,0.331,0.3785,0.3795,0.3634,0.0,0.0,0.0,0.0,0.0,0.0,0.0,0.5344,0.5433,0.473,0.2942,0.3815,0.4894,0.5641,0.5993,0.6093,0.5757,0.0,0.6468,0.601,0.6164,0.6625,0.7446,0.6822,0.6208,0.6122,0.5743,0.5624,0.6129,0.5376,0.4974,0.5445,0.5233,0.536,0.6899,0.7022,0.6818,0.6467,0.6486,0.6417,0.6005,0.6394,0.6474,-0.2875,-0.2532,-0.2452,-0.2322,-0.2185,-0.2303,-0.2372,-0.2406,-0.2404,-0.2487,-0.2671,-0.2489,-0.2539,-0.2767,-0.2693,0.0,-0.2409,-0.24,-0.2478,-0.2568,-0.2654,-0.2814,-0.3045,-0.3105,-0.314,-0.3142,-0.2815,-0.2904,-0.3336,-0.2751,-0.2631,-0.2899,-0.2244,-0.1951,-0.2048,-0.2291,-0.2362,-0.2225,-0.2407,-0.2379,-0.2079,-0.0865,-0.013,-0.0014,0.1096,0.1686,0.1711,0.1706,0.1663,0.1583,0.1583,0.1541,0.1403,0.0,0.0,0.0,0.0,0.0,0.0,0.0,0.0,0.0,0.0,0.0,0.0,0.0,0.0,0.0,0.3422,0.0,0.3771,0.4003,0.0,0.0,0.0,0.3782,0.3446,0.3354,0.4051,0.5925,0.0,0.0,0.2114,0.2271,0.2913,0.4003,0.4887,0.5162,0.4416,0.5135,0.5465,0.4712,0.4791,0.5577,0.6975,0.5654,0.4387,0.4464,0.4243,0.4239,0.435,0.4099,0.4168,0.4442,0.4462,0.4481,0.4687,0.5061,0.519,0.4322,0.4595,0.4903,0.4942,0.5056,0.5058,-0.3725,-0.3618,-0.36,-0.3283,-0.2792,-0.2826,-0.297,-0.322,-0.3222,-0.3238,-0.3291,-0.324,-0.3246,-0.3315,-0.3295,-0.3248,-0.3215,-0.3275,-0.3272,-0.3274,-0.3333,-0.3397,-0.3447,-0.3424,-0.3401,-0.3375,-0.3176,-0.3115,-0.3239,-0.3101,-0.3027,-0.3039,-0.2868,-0.2678,-0.2468,-0.2614,-0.2598,-0.2363,-0.2495,-0.2427,-0.2096,-0.1496,-0.0821,-0.0102,0.0454,0.1035,0.167,0.1707,0.1631,0.1528,0.1531,0.1494,0.1401,0.1345,0.0,0.0,0.0,0.0,0.0,0.0,0.0,0.0,0.0,0.3081,0.3207,0.0,0.4265,0.0,0.3227,0.3269,0.3415,0.3173,0.0,0.0,0.3301,0.321,0.3313,0.3455,0.3616,0.3839,0.3675,0.3019,0.1688,0.1621,0.1774,0.2033,0.3177,0.3913,0.3753,0.4183,0.4412,0.4095,0.4562,0.5104,0.4953,0.3449,0.2668,0.4063,0.3712,0.3467,0.4178,0.3083,0.2408,0.3053,0.2704,0.234,0.2449,0.2501,0.2518,0.2385,0.3098,0.3827,0.3759,0.4158,0.4182,-0.4782,-0.4492,-0.4492,-0.4078,-0.3445,-0.3443,-0.3562,-0.3719,-0.3719,-0.3716,-0.3675,-0.3655,-0.3634,-0.3618,-0.3634,-0.3614,-0.3542,-0.3566,-0.3562,-0.3503,-0.3548,-0.3569,-0.355,-0.3503,-0.352,-0.3534,-0.3434,-0.3388,-0.3386,-0.3347,-0.3284,-0.3245,-0.3228,-0.3146,-0.2957,-0.2941,-0.288,-0.2757,-0.2795,-0.2698,-0.248,-0.194,-0.1313,-0.0661,-0.0043,0.0606,0.131,0.1459,0.1528,0.156,0.1555,0.1553,0.149,0.1376,0.1236,0.0,0.0,0.0,0.0,0.0,0.0,0.0,0.0,0.0,0.0,0.0,0.4245,0.3314,0.2893,0.2871,0.3307,0.3052,0.2928,0.3113,0.2841,0.2626,0.2597,0.2625,0.2553,0.2373,0.2444,0.2236,0.1492,0.1394,0.1399,0.1345,0.2054,0.2553,0.2594,0.3034,0.3269,0.2804,0.3134,0.3353,0.2966,0.2101,0.1748,0.2688,0.2618,0.2453,0.2929,0.2218,0.1688,0.2135,0.1859,0.1548,0.158,0.158,0.1566,0.1697,0.2172,0.259,0.2569,0.2857,0.2785,-0.5802,-0.5136,-0.5139,-0.4718,-0.4027,-0.4048,-0.4036,-0.3992,-0.3992,-0.3971,-0.3914,-0.3854,-0.3837,-0.3839,-0.3831,-0.3759,-0.3644,-0.3637,-0.3607,-0.3536,-0.3552,-0.354,-0.355,-0.3538,-0.3579,-0.364,-0.36,-0.3605,-0.3605,-0.3534,-0.3483,-0.3404,-0.3412,-0.3388,-0.3375,-0.3216,-0.3164,-0.3206,-0.3154,-0.3084,-0.3022,-0.2287,-0.1718,-0.1331,-0.0469,0.0273,0.0809,0.1086,0.1335,0.1509,0.1601,0.1618,0.1591,0.14,0.1323,0.0,0.1318,0.0,0.0,0.0,0.0,0.0,0.0,0.0,0.0,0.35,0.3453,0.2872,0.2486,0.2524,0.3145,0.309,0.2906,0.2673,0.2358,0.2042,0.171,0.1502,0.1403,0.1377,0.1406,0.141,0.1421,0.1424,0.1424,0.1402,0.1469,0.1542,0.1449,0.2008,0.2193,0.138,0.1323,0.1638,0.1591,0.1473,0.1451,0.1451,0.1561,0.1486,0.158,0.1558,0.1532,0.1558,0.1605,0.1598,0.1591,0.1594,0.1588,0.1591,0.1665,0.1689,0.1688,0.1711,0.1592,-0.5961,-0.5352,-0.533,-0.4912,-0.4251,-0.4249,-0.4147,-0.3992,-0.3992,-0.4005,-0.3989,-0.3971,-0.3964,-0.3971,-0.4084,-0.4026,-0.3832,-0.3904,-0.3871,-0.3752,-0.3731,-0.3772,-0.3818,-0.3766,-0.378,-0.3834,-0.3659,-0.3605,-0.3605,-0.3572,-0.352,-0.3386,-0.3456,-0.3382,-0.3245,0.0,0.0,0.0,-0.3231,-0.3176,-0.3138,-0.2638,-0.2104,-0.1555,-0.0901,0.0,0.0458,0.0753,0.0941,0.1032,0.1202,0.0,0.0,0.0,0.0,0.0,0.0,0.0,0.0,0.0,0.0,0.0,0.1996,0.2208,0.2549,0.2925,0.2785,0.1966,0.2028,0.2123,0.2094,0.2038,0.1979,0.1903,0.1701,0.1536,0.1477,0.1434,0.139,0.1327,0.1419,0.1476,0.1483,0.1486,0.1484,0.1482,0.1485,0.1482,0.1468,0.1582,0.1552,0.1396,0.1389,0.141,0.1489,0.1479,0.1484,0.1487,0.1489,0.1494,0.152,0.1543,0.1562,0.1564,0.1588,0.1582,0.1579,0.1588,0.1592,0.1592,0.1592,0.1592,0.1592,0.1592,0.1592,-0.7337,-0.6696,-0.6696,-0.6059,0.0,-0.505,-0.4716,-0.4184,-0.4163,-0.4142,-0.4099,-0.4036,-0.3992,-0.3996,-0.4064,-0.4055,-0.3948,-0.3993,-0.3964,-0.3895,-0.387,-0.3877,-0.3897,-0.3845,-0.3831,-0.3895,-0.3788,-0.3743,-0.3739,-0.3716,-0.3645,-0.3513,-0.354,-0.3477,-0.3351,-0.3448,-0.3468,-0.3382,-0.3335,-0.3273,-0.319,-0.2934,-0.2551,-0.2064,-0.1675,0.0,0.0,0.0,0.0,0.0,0.0,0.0,0.0,0.0,0.0,0.1485,0.1416,0.1422,0.1539,0.155,0.1581,0.1637,0.1611,0.18,0.2262,0.2313,0.2149,0.1751,0.1744,0.1809,0.1983,0.1848,0.1746,0.1737,0.1552,0.1401,0.1452,0.1448,0.143,0.1399,0.1465,0.1512,0.1542,0.1518,0.1504,0.1502,0.1502,0.1503,0.15,0.1477,0.1455,0.1443,0.1423,0.1439,0.1528,0.156,0.1533,0.1513,0.1514,0.1547,0.1549,0.1573,0.1594,0.1595,0.1582,0.1592,0.1592,0.1592,0.1592,0.1592,0.1592,0.1592,0.1592,0.1592,0.1592,-0.8804,-0.8115,-0.7881,-0.7017,-0.5797,-0.5632,-0.5136,-0.4428,-0.4346,0.0,0.0,-0.4116,-0.406,-0.406,-0.406,-0.4054,-0.4017,-0.404,-0.4008,-0.399,-0.3938,-0.3932,-0.3942,-0.3874,-0.3879,-0.3942,-0.3914,-0.3908,-0.3897,-0.3872,-0.3748,-0.366,-0.364,-0.3599,-0.3511,-0.355,-0.3534,-0.3415,-0.3439,-0.3384,-0.326,-0.3185,-0.2992,-0.2622,-0.2452,-0.2133,-0.1632,-0.0811,-0.0264,0.0016,0.0734,0.1135,0.1182,0.1265,0.1293,0.1249,0.1335,0.1379,0.1397,0.1482,0.1515,0.1456,0.1417,0.1563,0.2029,0.1749,0.1602,0.172,0.1527,0.1592,0.2019,0.187,0.1734,0.1754,0.1554,0.1429,0.1503,0.1517,0.1504,0.15,0.151,0.1535,0.158,0.1549,0.1518,0.1518,0.1523,0.1518,0.1516,0.1508,0.1494,0.1506,0.148,0.1458,0.155,0.1592,0.157,0.1532,0.1565,0.1579,0.1583,0.1575,0.159,0.1589,0.1592,0.1592,0.1592,0.1592,0.1592,0.1592,0.1592,0.1594,0.1624,0.1625,0.1601,-0.9363,-0.8598,-0.7456,-0.652,-0.575,-0.5067,-0.4705,-0.4562,-0.4373,-0.4314,-0.4279,-0.4269,-0.4263,-0.4263,-0.4241,-0.4244,-0.4178,-0.4176,-0.4112,-0.3994,-0.4001,-0.4036,-0.4147,-0.404,-0.4046,-0.4139,-0.3975,-0.394,-0.3979,-0.3924,-0.3873,-0.385,-0.3783,-0.3682,-0.3514,-0.3511,-0.3507,-0.3483,-0.3536,-0.3546,-0.3462,-0.3388,-0.3251,-0.3008,-0.2707,-0.2412,-0.2118,-0.1678,-0.1088,-0.0288,-0.0066,0.0347,0.1067,0.1201,0.1341,0.1431,0.1356,0.1328,0.1391,0.1313,0.1274,0.1318,0.1322,0.1353,0.1508,0.1414,0.1394,0.1442,0.1431,0.1436,0.1523,0.1498,0.1481,0.1533,0.1516,0.1506,0.1493,0.1541,0.1573,0.151,0.1549,0.1578,0.1586,0.1582,0.1573,0.1577,0.1569,0.1575,0.1566,0.1535,0.1537,0.1567,0.1529,0.1518,0.1565,0.1586,0.1586,0.1582,0.1579,0.1582,0.1582,0.1587,0.1592,0.1592,0.1592,0.1592,0.1592,0.1592,0.1593,0.1594,0.1595,0.1627,0.1675,0.1682,0.1684,-1.0408,-1.0036,-0.946,-0.859,-0.7524,-0.5965,-0.5052,-0.4656,-0.4529,-0.4441,-0.435,-0.435,-0.4324,-0.43,-0.4297,-0.4279,-0.4262,-0.4262,-0.4218,-0.4155,-0.4111,-0.4132,-0.4182,-0.4058,-0.4062,-0.4182,-0.4017,-0.4001,-0.407,-0.3989,-0.3904,-0.3942,-0.3883,-0.379,-0.3671,-0.3661,-0.3618,-0.3569,-0.3544,-0.3538,-0.3517,-0.3429,-0.3347,-0.3273,-0.3107,-0.2984,-0.2834,-0.2362,-0.1896,-0.1447,-0.0998,-0.0392,0.0336,0.0521,0.0795,0.124,0.1261,0.1264,0.1326,0.1286,0.1281,0.1279,0.1318,0.1323,0.1405,0.1356,0.135,0.1347,0.1394,0.1413,0.1414,0.1438,0.1451,0.15,0.1495,0.1517,0.1545,0.1586,0.1573,0.1551,0.1574,0.1591,0.1592,0.1592,0.1592,0.1592,0.1592,0.1592,0.1592,0.1569,0.1553,0.1587,0.1582,0.1586,0.1587,0.1592,0.1592,0.1592,0.1592,0.1592,0.1592,0.1592,0.1592,0.1592,0.1592,0.1592,0.1592,0.1592,0.1598,0.1639,0.1641,0.1679,0.1703,0.1724,0.173,-1.1389,-1.1365,-1.1042,-1.0228,-0.8954,-0.7042,-0.5811,-0.5167,-0.4879,-0.4629,-0.4478,-0.4452,-0.4414,-0.4334,-0.433,-0.4296,-0.4302,-0.4297,-0.4297,-0.4291,-0.4232,-0.4245,-0.4213,-0.4086,-0.4104,-0.4178,-0.4058,-0.4073,-0.4118,-0.3997,-0.3932,-0.3975,-0.3934,-0.3875,-0.3823,-0.3822,-0.3748,-0.3658,-0.3552,-0.3512,-0.3526,-0.3458,-0.3411,-0.3428,-0.3408,-0.3382,-0.3369,-0.2892,-0.2525,-0.2325,-0.1744,-0.1049,-0.0189,-0.0017,0.0365,0.1028,0.1185,0.1245,0.1297,0.1321,0.132,0.1325,0.1323,0.1354,0.1394,0.1408,0.1395,0.1338,0.1367,0.1393,0.1425,0.1488,0.1508,0.1523,0.1521,0.1548,0.1576,0.1581,0.159,0.1588,0.1592,0.1592,0.1592,0.1592,0.1592,0.1592,0.1592,0.1592,0.1592,0.1592,0.1592,0.1592,0.1592,0.159,0.1592,0.1592,0.1592,0.1592,0.1592,0.1592,0.1592,0.1592,0.1592,0.1592,0.1592,0.1596,0.1625,0.1628,0.1641,0.169,0.1697,0.1707,0.1736,0.1765,0.1774,-1.1932,-1.1731,-1.069,-0.9628,-0.8778,-0.7598,-0.6904,-0.6459,-0.5585,-0.4963,-0.4697,-0.4596,-0.4533,-0.4407,-0.4399,-0.4356,-0.4306,-0.43,-0.43,-0.4297,-0.4291,-0.4287,-0.4277,-0.4221,-0.4186,-0.4186,-0.4064,-0.4029,-0.4042,-0.399,-0.3962,-0.391,-0.3985,-0.3934,-0.3813,-0.3866,-0.3862,-0.377,-0.3661,-0.3595,-0.3591,-0.3532,-0.3471,-0.3505,-0.3423,-0.3382,-0.3406,-0.3353,-0.2952,-0.2214,-0.2135,-0.1449,-0.0182,0.0113,0.046,0.1089,0.1238,0.1307,0.1315,0.1302,0.1315,0.1379,0.138,0.1383,0.1407,0.1414,0.1412,0.1382,0.1408,0.1423,0.1472,0.1504,0.1528,0.1574,0.1563,0.1579,0.1579,0.1588,0.1589,0.159,0.1592,0.1592,0.1592,0.1592,0.1592,0.1592,0.1592,0.1592,0.1592,0.1592,0.1592,0.1592,0.1592,0.1592,0.1592,0.1592,0.1592,0.1592,0.1592,0.1592,0.1592,0.1592,0.1592,0.1592,0.1592,0.1624,0.1672,0.1711,0.1692,0.1719,0.1731,0.1711,0.1767,0.1794,0.1773,-1.2467,-1.2419,-1.1897,-1.1003,-0.994,-0.9177,-0.8166,-0.7027,-0.6581,-0.5956,-0.5255,-0.504,-0.4795,-0.4541,-0.4516,-0.4465,-0.436,-0.4356,-0.4326,-0.4302,-0.4297,-0.4297,-0.4295,-0.4265,-0.4271,-0.4262,-0.4159,-0.4118,-0.4108,-0.4042,-0.3948,-0.3918,-0.3971,-0.395,-0.3879,-0.3934,-0.3916,-0.3846,-0.3805,-0.3769,-0.3745,-0.3599,-0.3524,-0.3542,-0.3489,-0.3462,-0.3462,-0.3462,-0.3323,-0.3017,-0.3016,-0.2585,-0.1598,-0.1533,-0.0957,0.0271,0.0958,0.1302,0.1369,0.1315,0.1311,0.1343,0.1344,0.1349,0.1404,0.1363,0.1352,0.1385,0.1413,0.1425,0.1477,0.1496,0.1525,0.1589,0.1588,0.1579,0.159,0.1592,0.1592,0.1592,0.1592,0.1592,0.1592,0.1592,0.1592,0.1592,0.1592,0.1592,0.1592,0.1592,0.1592,0.1592,0.1592,0.1592,0.1592,0.1592,0.1592,0.1592,0.1592,0.1592,0.1592,0.1592,0.1592,0.1592,0.1594,0.163,0.1707,0.1717,0.17,0.1738,0.1777,0.1762,0.1802,0.1814,0.1814,-1.2783,-1.2783,-1.2783,-1.2238,-1.1302,-1.0612,-0.9349,-0.7791,-0.7447,-0.6678,-0.5634,-0.5388,-0.5163,-0.4894,-0.4718,-0.4582,-0.4477,-0.4423,-0.4354,-0.4336,-0.4312,-0.4297,-0.4297,-0.4297,-0.4297,-0.4289,-0.4236,-0.4237,-0.4186,-0.4058,-0.3969,-0.3906,-0.3969,-0.3971,-0.392,-0.3969,-0.3962,-0.394,-0.3914,-0.3901,-0.3867,-0.3661,-0.3556,-0.3648,-0.3605,-0.3589,-0.3573,-0.3571,-0.3599,-0.3642,-0.3394,-0.2963,-0.2349,-0.2044,-0.1243,0.0081,0.0898,0.1337,0.1408,0.1342,0.1309,0.1315,0.1338,0.1346,0.1383,0.1357,0.1348,0.1383,0.1405,0.1449,0.1491,0.1521,0.1551,0.158,0.158,0.1591,0.1592,0.1592,0.1592,0.1592,0.1592,0.1592,0.1592,0.1592,0.1592,0.1592,0.1592,0.1592,0.1592,0.1592,0.1592,0.1592,0.1592,0.1592,0.1592,0.1592,0.1592,0.1592,0.1592,0.1592,0.1592,0.1592,0.16,0.1632,0.1628,0.1647,0.174,0.1749,0.1726,0.1773,0.1805,0.1791,0.1791,0.1795,0.1795,-1.2783,-1.2783,-1.2783,-1.274,-1.2608,-1.1595,-1.0382,-0.9049,-0.8067,-0.688,-0.5812,-0.5611,-0.5579,-0.5479,-0.4978,-0.4653,-0.4587,-0.4483,-0.4417,-0.4368,-0.432,-0.4302,-0.4297,-0.4297,-0.4297,-0.4297,-0.4289,-0.4266,-0.4193,-0.4064,-0.3966,-0.3912,-0.3973,-0.3969,-0.3924,-0.3971,-0.399,-0.3983,-0.3944,-0.3906,-0.3885,-0.3702,-0.3677,-0.3793,-0.3785,-0.3771,-0.3762,-0.3768,-0.3768,-0.3776,-0.2969,-0.2152,-0.1456,-0.0531,0.0337,0.1092,0.1272,0.1336,0.138,0.1342,0.1337,0.1382,0.1384,0.141,0.1395,0.139,0.1382,0.1413,0.1438,0.1494,0.1525,0.1547,0.1577,0.1582,0.1589,0.1592,0.1592,0.1592,0.1592,0.1592,0.1592,0.1592,0.1592,0.1592,0.1592,0.1592,0.1592,0.1592,0.1592,0.1592,0.1592,0.1592,0.1592,0.1592,0.1592,0.1592,0.1592,0.1592,0.1592,0.1594,0.1592,0.1594,0.1635,0.165,0.1682,0.1706,0.1779,0.1804,0.1783,0.1805,0.1813,0.1795,0.1795,0.1795,0.1795,-1.2783,-1.2783,-1.2783,-1.2783,-1.2735,-1.2365,-1.1565,-1.0411,-0.9332,-0.8223,-0.7104,-0.6234,-0.5864,-0.5839,-0.5451,-0.5159,-0.4898,-0.4696,-0.4523,-0.4396,-0.4377,-0.4334,-0.4302,-0.4297,-0.4297,-0.4297,-0.4297,-0.4257,-0.4201,-0.4158,-0.4077,-0.3983,-0.3997,-0.3969,-0.391,-0.3969,-0.3989,-0.3936,-0.3969,-0.3964,-0.3958,-0.3901,-0.3885,-0.3904,-0.3765,-0.3703,-0.3819,-0.3727,-0.3721,-0.378,-0.345,-0.3177,-0.2849,-0.1527,-0.0379,0.0382,0.0972,0.131,0.1339,0.1311,0.1339,0.1386,0.1412,0.1399,0.1394,0.1406,0.1413,0.1423,0.1467,0.1504,0.157,0.1586,0.1584,0.1585,0.1592,0.1592,0.1592,0.1592,0.1592,0.1592,0.1592,0.1592,0.1592,0.1592,0.1592,0.1592,0.1592,0.1592,0.1592,0.1592,0.1592,0.1592,0.1592,0.1592,0.1592,0.1592,0.1592,0.1592,0.1593,0.1631,0.1635,0.1643,0.1684,0.1707,0.1715,0.173,0.1799,0.1796,0.1808,0.1814,0.1795,0.1795,0.1795,0.1795,0.1795,-1.2783,-1.2783,-1.2783,-1.2783,-1.2759,-1.2408,-1.1668,-1.0612,-0.955,-0.8467,-0.7428,-0.6512,-0.6114,-0.6089,-0.5864,-0.5628,-0.536,-0.5087,-0.4857,-0.4644,-0.4608,-0.4497,-0.4355,-0.4342,-0.4326,-0.4302,-0.4297,-0.4291,-0.4244,-0.4214,-0.4165,-0.4062,-0.4079,-0.4034,-0.395,-0.3966,-0.3981,-0.3942,-0.3956,-0.3971,-0.3966,-0.3961,-0.3944,-0.3942,-0.379,-0.3737,-0.3846,-0.3772,-0.3765,-0.382,-0.3589,-0.3218,-0.2664,-0.1545,-0.0484,0.0338,0.0949,0.131,0.1317,0.1319,0.1353,0.1401,0.1405,0.1414,0.1411,0.1413,0.1413,0.1427,0.1488,0.156,0.1585,0.1575,0.1594,0.1588,0.1592,0.1592,0.1592,0.1592,0.1592,0.1592,0.1592,0.1592,0.1592,0.1592,0.1592,0.1592,0.1592,0.1592,0.1592,0.1592,0.1592,0.1592,0.1592,0.1592,0.1592,0.1592,0.1592,0.1593,0.1633,0.1671,0.1686,0.1695,0.1712,0.1736,0.1752,0.1764,0.1783,0.1808,0.179,0.1794,0.1795,0.1795,0.1795,0.1795,0.1795,-1.2783,-1.2783,-1.2783,-1.2783,-1.2662,-1.1765,-1.0656,-0.9776,-0.8591,-0.7624,-0.6858,-0.6437,-0.6362,-0.6337,-0.6112,-0.5987,-0.5912,-0.564,-0.5343,-0.5083,-0.501,-0.478,-0.4459,-0.4459,-0.4387,-0.4316,-0.4302,-0.4297,-0.4287,-0.4283,-0.4268,-0.4185,-0.4195,-0.4126,-0.4017,-0.4023,-0.4,-0.3972,-0.3942,-0.392,-0.3893,-0.3868,-0.3852,-0.391,-0.3875,-0.3908,-0.3995,-0.3968,-0.3969,-0.3879,-0.3212,-0.1941,-0.0976,-0.0422,0.0317,0.0918,0.1253,0.1279,0.1319,0.1367,0.1403,0.1402,0.141,0.1409,0.1412,0.1413,0.1393,0.1416,0.1491,0.1575,0.1549,0.1542,0.1563,0.1592,0.1592,0.1592,0.1592,0.1592,0.1592,0.1592,0.1592,0.1592,0.1592,0.1592,0.1592,0.1592,0.1592,0.1592,0.1592,0.1592,0.1592,0.1592,0.1592,0.1592,0.1592,0.1592,0.1593,0.1623,0.167,0.1714,0.1708,0.1722,0.1745,0.1767,0.1776,0.1788,0.1799,0.1791,0.1792,0.1795,0.1795,0.1795,0.1795,0.1795,0.1795,-1.2783,-1.2783,-1.2783,-1.2783,-1.2662,-1.1643,-1.0974,-1.0509,-0.881,-0.7798,-0.7403,-0.6734,-0.6412,-0.6387,-0.6312,-0.6289,-0.6259,-0.6123,-0.5849,-0.5442,-0.5356,-0.5164,-0.4868,-0.4806,-0.4663,-0.4416,-0.4306,-0.4297,-0.4297,-0.4297,-0.4281,-0.4263,-0.4259,-0.4214,-0.4158,-0.4152,-0.4104,-0.3994,-0.3987,-0.3973,-0.3971,-0.3944,-0.3944,-0.3969,-0.3973,-0.3968,-0.399,-0.3956,-0.3944,-0.3926,-0.3652,-0.2926,-0.1955,-0.1821,-0.1267,-0.0086,0.0301,0.0409,0.0521,0.1034,0.1379,0.1411,0.1413,0.1413,0.1413,0.1413,0.1408,0.1446,0.1521,0.1484,0.1177,0.1231,0.1389,0.1592,0.1592,0.1566,0.1541,0.1566,0.1592,0.1592,0.1592,0.1592,0.1567,0.1568,0.1541,0.1543,0.1567,0.1566,0.1566,0.1566,0.1592,0.1592,0.1592,0.1594,0.1599,0.1631,0.1637,0.1647,0.1692,0.1738,0.1731,0.1752,0.1776,0.179,0.18,0.1808,0.1791,0.1795,0.1795,0.1795,0.1795,0.1795,0.1795,0.1795,0.1795,-1.2783,-1.2783,-1.2783,-1.2783,-1.2662,-1.1668,-1.095,-1.0386,-0.8764,-0.7773,-0.7307,-0.6709,-0.6412,-0.6412,-0.6412,-0.6412,-0.6412,-0.6412,-0.62,-0.5871,-0.5718,-0.5511,-0.5197,-0.5054,-0.485,-0.4558,-0.44,-0.433,-0.4297,-0.4297,-0.4297,-0.4297,-0.4297,-0.4273,-0.4246,-0.424,-0.4185,-0.4136,-0.4082,-0.4087,-0.4058,-0.4031,-0.3992,-0.3992,-0.3992,-0.3992,-0.3988,-0.3938,-0.393,-0.3928,-0.393,-0.3589,-0.2985,-0.2821,-0.2482,-0.1954,-0.1028,-0.0395,-0.0022,0.0534,0.1076,0.1301,0.1346,0.1284,0.1311,0.1332,0.1396,0.1316,0.1288,0.1111,0.0808,0.0909,0.1111,0.1288,0.1288,0.1288,0.1288,0.1364,0.1338,0.1288,0.1212,0.122,0.1283,0.1294,0.1294,0.1297,0.1319,0.1389,0.1414,0.144,0.1466,0.1542,0.1592,0.1598,0.1634,0.1645,0.1682,0.1699,0.1691,0.1736,0.1756,0.1779,0.1803,0.1779,0.1787,0.1814,0.1795,0.1795,0.1795,0.1795,0.1795,0.1795,0.1795,0.1795,0.1795,-1.2824,-1.2783,-1.2783,-1.2783,-1.2662,-1.1668,-1.073,-0.9727,-0.8641,-0.7652,-0.6808,-0.6686,-0.6512,-0.6437,-0.6412,-0.6412,-0.6412,-0.6412,-0.6384,-0.6276,-0.6121,-0.5849,-0.5542,-0.5231,-0.5027,-0.486,-0.4591,-0.4443,-0.4371,-0.4344,-0.4302,-0.4302,-0.4297,-0.4297,-0.4285,-0.4295,-0.4285,-0.4263,-0.4234,-0.4203,-0.4197,-0.4106,-0.4021,-0.4046,-0.4069,-0.4073,-0.4054,-0.409,-0.4055,-0.4044,-0.4063,-0.4006,-0.3835,-0.3247,-0.3375,-0.392,-0.248,-0.1362,-0.0492,-0.0291,0.0179,0.0919,0.0922,0.1041,0.1056,0.1189,0.1179,0.099,0.0846,0.0682,0.053,0.0657,0.0783,0.0758,0.0859,0.0859,0.0833,0.0985,0.101,0.0859,0.0658,0.0564,0.0765,0.0776,0.0875,0.0878,0.0899,0.0997,0.1123,0.1202,0.132,0.1421,0.1527,0.1635,0.1675,0.1675,0.1688,0.1729,0.1745,0.1759,0.1777,0.18,0.1787,0.1792,0.1795,0.1795,0.1795,0.1795,0.1795,0.1795,0.1795,0.1795,0.1795,0.1795,0.1795,-1.294,-1.2818,-1.2783,-1.2783,-1.2638,-1.1643,-1.1048,-1.0636,-0.9628,-0.8517,-0.7723,-0.7574,-0.703,-0.6459,-0.6412,-0.6412,-0.6412,-0.6412,-0.6412,-0.6387,-0.6337,-0.6154,-0.5857,-0.552,-0.5357,-0.5272,-0.4984,-0.4767,-0.4657,-0.4493,-0.4367,-0.43,-0.435,-0.4324,-0.4297,-0.4322,-0.4297,-0.4297,-0.4279,-0.4285,-0.4281,-0.4262,-0.4208,-0.423,-0.4401,-0.4399,-0.4272,-0.443,-0.4459,-0.4394,-0.4389,-0.4338,-0.4258,-0.4264,-0.4442,-0.4487,-0.3757,-0.2929,-0.2526,-0.19,-0.1117,-0.0291,-0.0204,0.0092,0.0762,0.0864,0.0807,0.0609,0.0398,0.0,0.0,0.0353,0.0404,0.0303,0.053,0.0758,0.0758,0.0732,0.0682,0.0759,0.0615,0.0418,0.0344,0.0529,0.0736,0.0739,0.0764,0.0786,0.0862,0.0914,0.1015,0.1294,0.145,0.1607,0.1697,0.1699,0.172,0.1761,0.1773,0.1781,0.1797,0.1787,0.1793,0.1795,0.1795,0.1795,0.1795,0.1795,0.1795,0.1795,0.1795,0.1795,0.1795,0.1795,0.1795,-1.2994,-1.2789,-1.2783,-1.2783,-1.271,-1.2141,-1.1643,-1.1052,-1.0047,-0.9011,-0.8095,-0.7478,-0.698,-0.6437,-0.6412,-0.6412,-0.6412,-0.6412,-0.6412,-0.6412,-0.6387,-0.6312,-0.6121,-0.5869,-0.5704,-0.5628,-0.535,-0.5149,-0.5045,-0.4866,-0.4765,-0.4715,-0.4693,-0.4651,-0.4632,-0.4587,-0.4589,-0.4587,-0.4587,-0.4587,-0.4587,-0.4587,-0.4607,-0.461,-0.4746,-0.4746,-0.4654,-0.4743,-0.478,-0.4713,-0.4704,-0.4687,-0.4643,-0.4832,-0.5099,-0.5213,-0.4585,-0.4048,-0.3578,-0.3017,-0.2334,-0.1629,-0.1468,-0.1047,-0.0307,0.0143,0.036,0.0272,0.0075,0.0,0.0,0.0151,0.0151,0.0101,0.0278,0.0,0.0,0.0356,0.0356,0.0,0.0337,0.0,0.0,0.0,0.0,0.0457,0.0428,0.0506,0.0612,0.064,0.0746,0.1004,0.116,0.1243,0.1381,0.1428,0.1472,0.1567,0.1738,0.1746,0.1753,0.1767,0.1795,0.1795,0.1795,0.1795,0.1795,0.1795,0.1795,0.1795,0.1795,0.1795,0.1795,0.1795,0.1795,-1.3031,-1.2821,-1.2818,-1.2783,-1.2783,-1.2759,-1.2238,-1.1321,-1.0317,-0.9258,-0.8219,-0.708,-0.6709,-0.6412,-0.6412,-0.6412,-0.6412,-0.6412,-0.6412,-0.6412,-0.6412,-0.6387,-0.6337,-0.6151,-0.6006,-0.5939,-0.5677,-0.5514,-0.5418,-0.5394,-0.531,-0.5164,-0.5161,-0.5139,-0.5021,-0.4984,-0.5005,-0.4969,-0.4928,-0.4921,-0.4921,-0.4921,-0.4921,-0.4921,-0.4921,-0.5033,-0.5033,-0.5055,-0.505,-0.5075,-0.5055,-0.505,-0.5055,-0.5077,-0.5258,-0.5508,-0.5216,-0.4701,-0.4086,-0.3961,-0.3513,-0.2856,-0.283,-0.2493,-0.1569,-0.0606,-0.0024,-0.0276,-0.0101,0.0,0.0,0.0,0.0,0.0,0.0,0.0,0.0,0.0,0.0,0.0,0.0,0.0,0.0,0.0,0.0,0.0,0.0,0.0245,0.0326,0.0353,0.0514,0.0724,0.0806,0.0809,0.0977,0.1121,0.1187,0.1281,0.1532,0.162,0.1648,0.1683,0.1767,0.1795,0.1795,0.1795,0.1795,0.1795,0.1795,0.1795,0.1795,0.1795,0.1795,0.1795,0.1795,-1.3254,-1.3017,-1.2889,-1.2783,-1.2783,-1.2783,-1.2662,-1.2335,-1.1277,-1.0092,-0.916,-0.8095,-0.7132,-0.6412,-0.6412,-0.6412,-0.6412,-0.6412,-0.6412,-0.6412,-0.6412,-0.6412,-0.6387,-0.6312,-0.6298,-0.622,-0.6001,-0.5847,-0.5766,-0.5613,-0.5449,-0.5405,-0.5435,-0.5352,-0.5339,-0.5257,-0.5157,-0.5143,-0.5083,-0.5052,-0.5074,-0.5067,-0.5062,-0.5035,-0.5033,-0.5216,-0.5441,-0.5394,-0.5394,-0.5463,-0.5404,-0.5397,-0.5468,-0.5513,-0.5593,-0.5648,-0.564,-0.5485,-0.5388,-0.5228,-0.5039,-0.4287,-0.4131,-0.3855,-0.2784,-0.1213,-0.0723,-0.0832,0.0,0.0,0.0,0.0,0.0,0.0,0.0,0.0,0.0,0.0,0.0,0.0,0.0,0.0,0.0,0.0,0.0,0.0,0.0,0.0,0.0,0.0,0.0275,0.0463,0.0492,0.0521,0.0658,0.0772,0.0833,0.0979,0.1232,0.143,0.1458,0.1627,0.1683,0.1739,0.1795,0.1795,0.1795,0.1795,0.1795,0.1795,0.1795,0.1795,0.1795,0.1795,0.1795,-1.3427,-1.3098,-1.2994,-1.2886,-1.2794,-1.2783,-1.2783,-1.2467,-1.1106,-1.0145,-0.9336,-0.7996,-0.6933,-0.6412,-0.6412,-0.6412,-0.6412,-0.6412,-0.6412,-0.6412,-0.6412,-0.6412,-0.6412,-0.6412,-0.6412,-0.6387,-0.6262,-0.6172,-0.6086,-0.5989,-0.5921,-0.5821,-0.5814,-0.5796,-0.5739,-0.5649,-0.5645,-0.5634,-0.556,-0.5502,-0.5502,-0.5448,-0.539,-0.5337,-0.5329,-0.5481,-0.5719,-0.5699,-0.5731,-0.5811,-0.5779,-0.57,-0.5698,-0.5765,-0.5813,-0.589,-0.5899,-0.592,-0.5977,-0.5973,-0.5805,-0.5487,-0.5431,-0.4865,-0.4305,-0.3206,-0.2539,-0.2039,-0.1613,0.0,-0.0808,0.0,0.0,0.0,0.0,0.0,0.0,0.0,0.0,0.0,0.0,0.0,0.0,0.0,0.0,0.0,0.0,0.0,0.0,0.0,0.0,0.0194,0.0195,0.0251,0.0361,0.0445,0.0475,0.0672,0.0924,0.1065,0.1121,0.1346,0.1598,0.1683,0.1795,0.1795,0.1795,0.1795,0.1795,0.1795,0.1795,0.1795,0.1795,0.1795,0.1795,-1.3055,-1.2672,-1.263,-1.2515,-1.2359,-1.2264,-1.2316,-1.2195,-1.0272,-0.946,-0.9184,-0.7329,-0.6512,-0.6412,-0.6412,-0.6412,-0.6412,-0.6412,-0.6412,-0.6412,-0.6412,-0.6412,-0.6412,-0.6412,-0.6412,-0.6412,-0.6387,-0.6379,-0.6379,-0.6406,-0.6248,-0.6304,-0.6293,-0.6184,-0.6146,-0.6121,-0.6066,-0.606,-0.5999,-0.598,-0.6001,-0.5926,-0.5822,-0.5771,-0.5732,-0.5787,-0.5892,-0.5914,-0.5972,-0.6102,-0.611,-0.5977,-0.5877,-0.5849,-0.5999,-0.6116,-0.6115,-0.6096,-0.6126,-0.6145,-0.6165,-0.6331,-0.6271,-0.5918,-0.5386,-0.535,-0.4574,-0.3522,-0.2795,-0.2801,-0.1972,-0.1345,-0.0819,0.0,0.0,-0.0292,-0.0244,0.0,0.0,0.0,0.0,0.0,0.0,0.0,0.0,0.0,0.0,0.0,0.0,0.0,0.0,0.0,0.0,0.0,0.0,0.0,0.0,0.0364,0.0617,0.0729,0.0841,0.1065,0.1346,0.1683,0.1795,0.1795,0.1795,0.1795,0.1795,0.1795,0.1795,0.1795,0.1795,0.1795,0.1795,-1.0823,-1.0743,-1.0463,-1.034,-1.0314,-1.0198,-1.0719,-1.1028,-0.923,-0.8814,-0.9209,-0.7378,-0.6412,-0.6412,-0.6412,-0.6412,-0.6412,-0.6412,-0.6412,-0.6412,-0.6412,-0.6412,-0.6412,-0.6412,-0.6412,-0.6412,-0.6412,-0.6412,-0.6412,-0.6409,-0.6393,-0.6379,-0.6374,-0.6347,-0.6312,-0.6295,-0.626,-0.6249,-0.6165,-0.6127,-0.6113,-0.6078,-0.6061,-0.602,-0.5986,-0.6015,-0.604,-0.6056,-0.6091,-0.6107,-0.611,-0.6093,-0.6045,-0.6053,-0.6162,-0.6241,-0.6203,-0.6162,-0.6246,-0.6265,-0.6323,-0.6374,-0.6371,-0.6374,-0.6179,-0.6214,-0.5518,-0.4727,-0.4023,-0.3879,-0.3188,-0.2679,-0.2832,-0.269,-0.2061,-0.1515,-0.1339,0.0,0.0,0.0,0.0,0.0,0.0,0.0,0.0,0.0,0.0,0.0,0.0,0.0,0.0,0.0,0.0,0.0,0.0,0.0,0.0,0.0,0.0336,0.0448,0.0589,0.0813,0.1093,0.1486,0.1739,0.1795,0.1795,0.1795,0.1795,0.1795,0.1795,0.1795,0.1795,0.1795,0.1795,-1.0439,-1.0285,-1.012,-0.9969,-0.9808,-0.9736,-0.9937,-1.0071,-0.8715,-0.8269,-0.8195,-0.7157,-0.6412,-0.6412,-0.6412,-0.6412,-0.6412,-0.6412,-0.6412,-0.6412,-0.6412,-0.6412,-0.6412,-0.6412,-0.6412,-0.6412,-0.6412,-0.6412,-0.6412,-0.6412,-0.6412,-0.6412,-0.6412,-0.6412,-0.6404,-0.6358,-0.6355,-0.6336,-0.6293,-0.6236,-0.6228,-0.6217,-0.6183,-0.6126,-0.6123,-0.6119,-0.6173,-0.6202,-0.6235,-0.6233,-0.6247,-0.6265,-0.6263,-0.6249,-0.6284,-0.6363,-0.6301,-0.6257,-0.6317,-0.6355,-0.6358,-0.6396,-0.6412,-0.6412,-0.6412,-0.632,-0.6083,-0.5767,-0.5564,-0.5244,-0.4426,-0.3931,-0.3597,-0.3487,-0.3069,-0.2792,-0.2595,-0.2116,-0.1342,-0.0448,0.0,0.0,0.0,0.0,0.0,0.0,0.0,0.0,0.0,0.0,0.0,0.0,0.0,0.0,0.0,0.0,0.0,0.0,0.0112,0.0224,0.0364,0.0589,0.0953,0.1346,0.1542,0.1711,0.1795,0.1795,0.1795,0.1795,0.1795,0.1795,0.1795,0.1795,0.1795,-1.0019,-0.9762,-0.9731,-0.9534,-0.9256,-0.9166,-0.9194,-0.9076,-0.8109,-0.7801,-0.7851,-0.6933,-0.6412,-0.6412,-0.6412,-0.6412,-0.6412,-0.6412,-0.6412,-0.6412,-0.6412,-0.6412,-0.6412,-0.6412,-0.6412,-0.6412,-0.6412,-0.6412,-0.6412,-0.6412,-0.6412,-0.6412,-0.6412,-0.6412,-0.6406,-0.6401,-0.6412,-0.6412,-0.6412,-0.6412,-0.6387,-0.635,-0.626,-0.6192,-0.6157,-0.6214,-0.629,-0.6301,-0.6339,-0.6366,-0.6393,-0.6401,-0.6409,-0.6412,-0.6412,-0.6412,-0.6412,-0.6412,-0.6409,-0.6379,-0.6398,-0.6412,-0.6412,-0.6412,-0.6412,-0.6433,-0.6478,-0.6744,-0.6781,-0.6475,-0.5614,-0.486,-0.4525,-0.4388,-0.4277,-0.3963,-0.3862,-0.3382,-0.2516,-0.1679,-0.0896,0.0,0.0,0.0,0.0,0.0,0.0,0.0,0.0,0.0,0.0,0.0,0.0,0.0,0.0,0.0,0.0,0.0,0.0,0.0112,0.0252,0.0392,0.0785,0.1177,0.143,0.1598,0.1683,0.1795,0.1795,0.1795,0.1795,0.1795,0.1795,0.1795,0.1795,-0.8174,-0.7931,-0.7841,-0.7582,-0.7386,-0.7212,-0.7587,-0.8153,-0.7162,-0.7154,-0.7798,-0.6933,-0.6412,-0.6412,-0.6412,-0.6412,-0.6412,-0.6412,-0.6412,-0.6412,-0.6412,-0.6412,-0.6412,-0.6412,-0.6412,-0.6412,-0.6412,-0.6412,-0.6412,-0.6412,-0.6412,-0.6412,-0.6412,-0.6412,-0.6412,-0.6412,-0.6412,-0.6412,-0.6412,-0.6412,-0.6409,-0.639,-0.6368,-0.6358,-0.6349,-0.6349,-0.6368,-0.6371,-0.6393,-0.6401,-0.6412,-0.6412,-0.6412,-0.6412,-0.6412,-0.6412,-0.6412,-0.6412,-0.6412,-0.6412,-0.6412,-0.6412,-0.6412,-0.6412,-0.6412,-0.6428,-0.6517,-0.6779,-0.6997,-0.6986,-0.6677,-0.6556,-0.6585,-0.6189,-0.5639,-0.5313,-0.5118,-0.4864,-0.397,-0.3551,-0.2991,-0.1847,0.0,0.0,0.0,0.0,0.0,0.0,0.0,0.0,0.0,0.0,0.0,0.0,0.0,0.0,0.0,0.0,0.0,0.0,0.0112,0.028,0.0561,0.0897,0.1177,0.1514,0.1711,0.1795,0.1795,0.1795,0.1795,0.1795,0.1795,0.1795,0.1795,-0.8242,-0.7792,-0.7599,-0.7398,-0.7216,-0.6946,-0.7003,-0.7135,-0.6765,-0.6723,-0.6992,-0.6659,-0.6412,-0.6412,-0.6412,-0.6412,-0.6412,-0.6412,-0.6412,-0.6412,-0.6412,-0.6412,-0.6412,-0.6412,-0.6412,-0.6412,-0.6412,-0.6412,-0.6412,-0.6412,-0.6412,-0.6412,-0.6412,-0.6412,-0.6412,-0.6412,-0.6412,-0.6412,-0.6412,-0.6412,-0.6412,-0.6412,-0.6412,-0.6412,-0.6412,-0.6412,-0.6412,-0.6412,-0.6412,-0.6412,-0.6412,-0.6412,-0.6412,-0.6412,-0.6412,-0.6412,-0.6412,-0.6412,-0.6412,-0.6414,-0.6414,-0.6414,-0.6414,-0.6412,-0.6412,-0.6436,-0.6593,-0.7005,-0.7114,-0.7144,-0.7119,-0.7111,-0.7133,-0.6944,-0.6596,-0.6513,-0.6235,-0.6121,-0.5699,-0.5393,-0.5031,-0.394,-0.2796,0.0,0.0,0.0,0.0,0.0,0.0,0.0,0.0,0.0,0.0,0.0,0.0,0.0,0.0,0.0,0.0,0.0,0.0,0.0196,0.0448,0.0701,0.0981,0.1318,0.1683,0.1795,0.1795,0.1795,0.1795,0.1795,0.1795,0.1795,0.1795,-0.8629,-0.8183,-0.7937,-0.7687,-0.7433,-0.7214,-0.6943,-0.6676,-0.6627,-0.652,-0.6436,-0.6412,-0.6412,-0.6412,-0.6412,-0.6412,-0.6412,-0.6412,-0.6412,-0.6412,-0.6412,-0.6412,-0.6412,-0.6412,-0.6412,-0.6412,-0.6412,-0.6412,-0.6412,-0.6412,-0.6412,-0.6412,-0.6412,-0.6412,-0.6412,-0.6412,-0.6412,-0.6412,-0.6412,-0.6412,-0.6412,-0.6412,-0.6412,-0.6412,-0.6412,-0.6412,-0.6412,-0.6412,-0.6412,-0.6412,-0.6412,-0.6412,-0.6412,-0.6412,-0.6412,-0.6412,-0.6412,-0.6436,-0.6442,-0.6419,-0.6408,-0.6455,-0.6496,-0.6539,-0.6525,-0.6515,-0.6668,-0.7152,-0.7191,-0.721,-0.721,-0.7204,-0.7204,-0.7204,-0.7099,-0.7182,-0.7154,-0.6791,-0.6621,-0.6399,-0.6177,-0.6316,-0.514,-0.3801,0.0,0.0,0.0,-0.0476,0.0,0.0,0.0,0.0,0.0,0.0,0.0,0.0,0.0,0.0,0.0,0.0,0.0,0.0,0.0308,0.0561,0.0841,0.1234,0.1683,0.1739,0.1795,0.1795,0.1795,0.1795,0.1795,0.1795,0.1795,-0.8881,-0.8826,-0.8543,-0.8122,-0.7606,-0.7435,-0.7151,-0.6808,-0.6673,-0.6531,-0.642,-0.6412,-0.6412,-0.6412,-0.6412,-0.6412,-0.6412,-0.6412,-0.6412,-0.6412,-0.6412,-0.6412,-0.6412,-0.6412,-0.6412,-0.6412,-0.6412,-0.6412,-0.6412,-0.6412,-0.6412,-0.6412,-0.6412,-0.6412,-0.6412,-0.6412,-0.6412,-0.6412,-0.6412,-0.6412,-0.6412,-0.6412,-0.6412,-0.6412,-0.6412,-0.6412,-0.6412,-0.6412,-0.6412,-0.6412,-0.6412,-0.6412,-0.6412,-0.6412,-0.6412,-0.6412,-0.6412,-0.6447,-0.6482,-0.6479,-0.6488,-0.66,-0.6692,-0.6741,-0.6711,-0.676,-0.6921,-0.7138,-0.7204,-0.721,-0.721,-0.7207,-0.7158,-0.7202,-0.7196,-0.7163,-0.7168,-0.7182,-0.7043,-0.7127,-0.7099,-0.6988,-0.6846,-0.5365,-0.4306,-0.358,-0.1987,-0.1008,-0.042,0.0,0.0,0.0,0.0,0.0,0.0,0.0,0.0,0.0,0.0,0.0,0.0,0.0,0.0,0.0533,0.0841,0.1262,0.1598,0.1711,0.1767,0.1795,0.1795,0.1795,0.1795,0.1795,0.1795,-0.8909,-0.8881,-0.8768,-0.8519,-0.8128,-0.769,-0.7405,-0.7143,-0.6861,-0.659,-0.6414,-0.6412,-0.6412,-0.6412,-0.6412,-0.6412,-0.6412,-0.6412,-0.6412,-0.6412,-0.6412,-0.6412,-0.6412,-0.6412,-0.6412,-0.6412,-0.6412,-0.6412,-0.6412,-0.6412,-0.6412,-0.6412,-0.6412,-0.6412,-0.6412,-0.6412,-0.6412,-0.6412,-0.6412,-0.6412,-0.6412,-0.6412,-0.6412,-0.6412,-0.6412,-0.6412,-0.6412,-0.6412,-0.6412,-0.6412,-0.6412,-0.6412,-0.6412,-0.6412,-0.6412,-0.6412,-0.6412,-0.6444,-0.6498,-0.6512,-0.6582,-0.6722,-0.6834,-0.6885,-0.6842,-0.6921,-0.7057,-0.7188,-0.7196,-0.7177,-0.7174,-0.7122,-0.7087,-0.7133,-0.7141,-0.7122,-0.7122,-0.7128,-0.7204,-0.7171,-0.7177,-0.7154,-0.7015,-0.6735,-0.5787,-0.484,-0.3134,-0.1595,-0.0896,-0.0448,0.0,0.0,0.0,0.0,0.0,0.0,0.0,0.0,0.0,0.0,0.0,0.0,0.0,0.0,0.0813,0.1121,0.1402,0.1655,0.1767,0.1795,0.1795,0.1795,0.1795,0.1795,0.1795,-0.8909,-0.8909,-0.8909,-0.874,-0.8429,-0.7937,-0.7584,-0.7357,-0.7027,-0.6693,-0.6466,-0.6433,-0.6412,-0.6412,-0.6412,-0.6412,-0.6412,-0.6412,-0.6412,-0.6412,-0.6412,-0.6412,-0.6412,-0.6412,-0.6412,-0.6412,-0.6412,-0.6412,-0.6412,-0.6412,-0.6412,-0.6412,-0.6412,-0.6412,-0.6412,-0.6412,-0.6412,-0.6412,-0.6412,-0.6412,-0.6412,-0.6412,-0.6412,-0.6412,-0.6412,-0.6412,-0.6412,-0.6412,-0.6412,-0.6412,-0.6412,-0.6412,-0.6412,-0.6412,-0.6412,-0.6412,-0.6414,-0.6398,-0.6454,-0.6539,-0.6631,-0.6717,-0.6863,-0.6888,-0.6983,-0.7078,-0.7138,-0.7043,-0.7062,-0.7078,-0.7078,-0.6999,-0.6969,-0.6999,-0.6986,-0.6972,-0.6972,-0.7016,-0.7103,-0.716,-0.7155,-0.7133,-0.7154,-0.6904,-0.5868,-0.5174,-0.4419,-0.2519,-0.0812,-0.0504,0.0,0.0,0.0,0.0,0.0,0.0,0.0,0.0,0.0,0.0,0.0,0.0,0.0,0.0,0.0701,0.0981,0.1262,0.157,0.1711,0.1795,0.1795,0.1795,0.1795,0.1795,0.1795,-0.8909,-0.8909,-0.8909,-0.8768,-0.8512,-0.8156,-0.7807,-0.7488,-0.7145,-0.6844,-0.6566,-0.6466,-0.6412,-0.6412,-0.6412,-0.6412,-0.6412,-0.6412,-0.6412,-0.6412,-0.6412,-0.6412,-0.6412,-0.6412,-0.6412,-0.6412,-0.6412,-0.6412,-0.6412,-0.6412,-0.6412,-0.6412,-0.6412,-0.6412,-0.6412,-0.6412,-0.6412,-0.6412,-0.6412,-0.6412,-0.6412,-0.6412,-0.6412,-0.6412,-0.6412,-0.6412,-0.6412,-0.6412,-0.6412,-0.6412,-0.6412,-0.6412,-0.6412,-0.6412,-0.6412,-0.6412,-0.6412,-0.6463,-0.6561,-0.6582,-0.6601,-0.6676,-0.6806,-0.6907,-0.7078,-0.7144,-0.7043,-0.6842,-0.6804,-0.682,-0.6815,-0.6815,-0.6823,-0.6842,-0.6836,-0.6855,-0.6888,-0.6934,-0.7054,-0.7092,-0.7068,-0.7032,-0.7136,-0.6902,-0.5785,-0.5172,-0.5118,-0.3776,-0.1679,-0.0728,-0.0868,0.0,0.0,0.0,0.0,0.0,0.0,0.0,0.0,0.0,0.0,0.0,0.0,0.0,0.0589,0.0813,0.1177,0.157,0.1683,0.1795,0.1795,0.1795,0.1795,0.1795,0.1795,-0.8909,-0.8909,-0.8909,-0.8854,-0.8712,-0.846,-0.8259,-0.8029,-0.7442,-0.6926,-0.6619,-0.6466,-0.6412,-0.6412,-0.6412,-0.6412,-0.6412,-0.6412,-0.6412,-0.6412,-0.6412,-0.6412,-0.6412,-0.6412,-0.6412,-0.6412,-0.6412,-0.6412,-0.6412,-0.6412,-0.6412,-0.6412,-0.6412,-0.6412,-0.6412,-0.6412,-0.6412,-0.6412,-0.6412,-0.6412,-0.6412,-0.6412,-0.6412,-0.6412,-0.6412,-0.6412,-0.6412,-0.6412,-0.6412,-0.6412,-0.6412,-0.6412,-0.6412,-0.6412,-0.6412,-0.6412,-0.6412,-0.6425,-0.6466,-0.6482,-0.6558,-0.6676,-0.6755,-0.6817,-0.6939,-0.6947,-0.6785,-0.6643,-0.6574,-0.6623,-0.6734,-0.6711,-0.6714,-0.6777,-0.6796,-0.6834,-0.6872,-0.6929,-0.6986,-0.6975,-0.6956,-0.7081,-0.7191,-0.7154,-0.623,-0.5646,-0.5564,-0.5118,-0.3384,-0.1875,0.0,0.0,0.0,0.0,0.0,0.0,0.0,0.0,0.0,0.0,0.0,0.0,0.0,0.0,0.0,0.0673,0.1093,0.1458,0.1683,0.1795,0.1795,0.1795,0.1795,0.1795,0.1795,-0.8909,-0.8909,-0.8909,-0.8909,-0.8854,-0.8626,-0.8429,-0.825,-0.7672,-0.7211,-0.6854,-0.6709,-0.655,-0.645,-0.6412,-0.6412,-0.6412,-0.6412,-0.6412,-0.6412,-0.6412,-0.6412,-0.6412,-0.6412,-0.6412,-0.6412,-0.6412,-0.6412,-0.6412,-0.6412,-0.6412,-0.6412,-0.6412,-0.6412,-0.6412,-0.6412,-0.6412,-0.6412,-0.6412,-0.6412,-0.6412,-0.6412,-0.6412,-0.6412,-0.6412,-0.6412,-0.6412,-0.6412,-0.6412,-0.6412,-0.6412,-0.6412,-0.6412,-0.6412,-0.6412,-0.6412,-0.6412,-0.6412,-0.642,-0.642,-0.6501,-0.6599,-0.6647,-0.665,-0.6676,-0.6676,-0.6608,-0.6477,-0.642,-0.6498,-0.6612,-0.6561,-0.666,-0.6696,-0.675,-0.6815,-0.6853,-0.6904,-0.6923,-0.691,-0.6964,-0.7095,-0.7207,-0.7124,-0.6791,-0.6402,-0.6068,-0.5425,-0.4754,-0.3272,-0.1651,0.0,0.0,0.0,0.0,0.0,0.0,0.0,0.0,0.0,0.0,0.0,0.0,0.0,0.0,0.0617,0.1037,0.1374,0.1655,0.1795,0.1795,0.1795,0.1795,0.1795,0.1795,-0.8909,-0.8909,-0.8909,-0.8909,-0.8854,-0.8626,-0.8377,-0.8033,-0.7925,-0.7621,-0.7203,-0.7076,-0.6774,-0.6478,-0.6412,-0.6412,-0.6412,-0.6412,-0.6412,-0.6412,-0.6412,-0.6412,-0.6412,-0.6412,-0.6412,-0.6412,-0.6412,-0.6412,-0.6412,-0.6412,-0.6412,-0.6412,-0.6412,-0.6412,-0.6412,-0.6412,-0.6412,-0.6412,-0.6412,-0.6412,-0.6412,-0.6412,-0.6412,-0.6412,-0.6412,-0.6412,-0.6412,-0.6412,-0.6412,-0.6412,-0.6412,-0.6412,-0.6412,-0.6412,-0.6412,-0.6412,-0.6412,-0.6412,-0.6412,-0.6412,-0.6417,-0.6479,-0.6455,-0.6403,-0.6419,-0.6482,-0.6455,-0.6436,-0.6412,-0.6398,-0.6425,-0.6531,-0.6632,-0.6669,-0.6731,-0.6793,-0.6825,-0.6853,-0.6864,-0.6896,-0.6972,-0.7087,-0.7191,-0.7154,-0.7099,-0.696,-0.6318,-0.5087,-0.4474,-0.3943,-0.2351,0.0,0.0,0.0,0.0,0.0,0.0,0.0,0.0,0.0,0.0,0.0,0.0,0.0,0.0,0.0561,0.0953,0.1346,0.1683,0.1767,0.1795,0.1795,0.1795,0.1795,0.1797,-0.8909,-0.8909,-0.8909,-0.8909,-0.8909,-0.8823,-0.8629,-0.8355,-0.8034,-0.7713,-0.7454,-0.6961,-0.6822,-0.6695,-0.6489,-0.6437,-0.6412,-0.6412,-0.6412,-0.6412,-0.6412,-0.6412,-0.6412,-0.6412,-0.6412,-0.6412,-0.6412,-0.6412,-0.6412,-0.6412,-0.6412,-0.6412,-0.6412,-0.6412,-0.6412,-0.6412,-0.6412,-0.6412,-0.6412,-0.6412,-0.6412,-0.6412,-0.6412,-0.6412,-0.6412,-0.6412,-0.6412,-0.6412,-0.6412,-0.6412,-0.6412,-0.6412,-0.6412,-0.6412,-0.6412,-0.6412,-0.6412,-0.6412,-0.6412,-0.6414,-0.642,-0.6428,-0.6428,-0.6414,-0.6414,-0.6423,-0.6425,-0.6431,-0.646,-0.649,-0.6539,-0.6607,-0.6703,-0.6766,-0.6825,-0.6872,-0.6931,-0.6931,-0.6969,-0.7021,-0.7092,-0.7106,-0.7204,-0.7182,-0.7154,-0.7182,-0.6624,-0.531,-0.4249,-0.3748,-0.263,-0.1036,0.0,0.0,0.0,0.0,0.0,0.0,0.0,0.0,0.0,0.0,0.0,0.0,0.0,0.0533,0.0869,0.1234,0.157,0.1739,0.1767,0.1795,0.1795,0.1795,0.1804,-0.8909,-0.8909,-0.8909,-0.8909,-0.8909,-0.8909,-0.8795,-0.8637,-0.8397,-0.815,-0.7827,-0.743,-0.7164,-0.7027,-0.6745,-0.6564,-0.6564,-0.6464,-0.6412,-0.6412,-0.6412,-0.6412,-0.6412,-0.6412,-0.6412,-0.6412,-0.6412,-0.6412,-0.6412,-0.6412,-0.6412,-0.6412,-0.6412,-0.6412,-0.6412,-0.6412,-0.6412,-0.6412,-0.6412,-0.6412,-0.6412,-0.6412,-0.6412,-0.6412,-0.6412,-0.6412,-0.6412,-0.6412,-0.6412,-0.6412,-0.6412,-0.6412,-0.6412,-0.6412,-0.6412,-0.6412,-0.6412,-0.6412,-0.642,-0.6446,-0.6477,-0.6496,-0.6523,-0.6563,-0.6515,-0.6496,-0.6488,-0.6485,-0.6539,-0.659,-0.665,-0.6712,-0.6804,-0.6872,-0.6923,-0.7005,-0.704,-0.7073,-0.7114,-0.7182,-0.7202,-0.7199,-0.721,-0.721,-0.721,-0.721,-0.6763,-0.5699,-0.4555,-0.372,-0.2407,-0.0784,0.0,0.0,0.0,0.0,0.0,0.0,0.0,0.0,0.0,0.0,0.0,0.0,0.0,0.0476,0.0729,0.1093,0.1402,0.157,0.1711,0.1795,0.1795,0.1795,0.1808,-0.8909,-0.8909,-0.8909,-0.8909,-0.8909,-0.8909,-0.8881,-0.8909,-0.8844,-0.8657,-0.8319,-0.8116,-0.7795,-0.7484,-0.7073,-0.6838,-0.6698,-0.6534,-0.6412,-0.6414,-0.6412,-0.6412,-0.6412,-0.6412,-0.6412,-0.6412,-0.6412,-0.6412,-0.6412,-0.6412,-0.6412,-0.6412,-0.6412,-0.6412,-0.6412,-0.6412,-0.6412,-0.6412,-0.6412,-0.6412,-0.6412,-0.6412,-0.6412,-0.6412,-0.6412,-0.6412,-0.6412,-0.6412,-0.6412,-0.6412,-0.6412,-0.6412,-0.6412,-0.6412,-0.6412,-0.6431,-0.6436,-0.6455,-0.6488,-0.655,-0.6596,-0.6642,-0.6707,-0.6741,-0.6681,-0.6509,-0.6466,-0.6641,-0.6719,-0.6774,-0.6834,-0.6866,-0.6915,-0.6978,-0.7062,-0.7095,-0.7117,-0.7136,-0.7149,-0.721,-0.721,-0.721,-0.721,-0.721,-0.721,-0.721,-0.693,-0.6035,-0.4724,-0.3692,-0.2239,0.0,0.0,0.0,0.0,0.0,0.0,0.0,0.0,0.0,0.0,0.0,0.0,0.0,0.0168,0.028,0.0533,0.0897,0.1206,0.1402,0.157,0.1739,0.1795,0.18,0.1821,-0.8909,-0.8909,-0.8909,-0.8909,-0.8909,-0.8909,-0.8909,-0.8909,-0.8909,-0.8773,-0.8561,-0.8179,-0.7987,-0.7906,-0.7278,-0.7018,-0.6955,-0.6625,-0.6448,-0.6417,-0.642,-0.6412,-0.6412,-0.6412,-0.6412,-0.6412,-0.6412,-0.6412,-0.6412,-0.6412,-0.6412,-0.6412,-0.6412,-0.6412,-0.6412,-0.6412,-0.6412,-0.6412,-0.6412,-0.6412,-0.6412,-0.6412,-0.6412,-0.6412,-0.6412,-0.6412,-0.6412,-0.6412,-0.6412,-0.6412,-0.6412,-0.6412,-0.6412,-0.6414,-0.6414,-0.6428,-0.6501,-0.6539,-0.6582,-0.6655,-0.6744,-0.676,-0.6796,-0.6798,-0.6725,-0.6517,-0.652,-0.6749,-0.6909,-0.6964,-0.7002,-0.7021,-0.7046,-0.7106,-0.7185,-0.7199,-0.721,-0.721,-0.721,-0.721,-0.721,-0.721,-0.721,-0.721,-0.721,-0.721,-0.721,-0.6427,-0.4697,-0.3385,-0.2099,0.0,0.0,0.0,0.0,0.0,0.0,0.0,0.0,0.0,0.0,0.0,0.0,0.0,0.0056,0.0196,0.0392,0.0729,0.1009,0.1206,0.1459,0.1656,0.1781,0.1787,0.1842,-0.8909,-0.8909,-0.8909,-0.8909,-0.8909,-0.8909,-0.8909,-0.8881,-0.8795,-0.8752,-0.8723,-0.8334,-0.8179,-0.8196,-0.7517,-0.7252,-0.7202,-0.6731,-0.6568,-0.6493,-0.6447,-0.6414,-0.6412,-0.6428,-0.6412,-0.6412,-0.6412,-0.6412,-0.6412,-0.6412,-0.6412,-0.6412,-0.6412,-0.6412,-0.6412,-0.6412,-0.6417,-0.6412,-0.642,-0.6425,-0.6425,-0.6417,-0.6414,-0.6412,-0.6412,-0.6412,-0.6412,-0.6412,-0.6412,-0.6412,-0.6412,-0.6412,-0.6431,-0.6471,-0.6504,-0.6547,-0.6609,-0.6674,-0.671,-0.6798,-0.6904,-0.6912,-0.6969,-0.7005,-0.7013,-0.6839,-0.6793,-0.6991,-0.7046,-0.7128,-0.7098,-0.7111,-0.7119,-0.7185,-0.7199,-0.7207,-0.721,-0.721,-0.721,-0.721,-0.721,-0.721,-0.721,-0.721,-0.7154,-0.6988,-0.7015,-0.601,-0.4418,-0.3078,-0.1791,0.0,0.0,0.0,0.0,0.0,0.0,0.0,0.0,0.0,0.0,0.0,0.0,0.0,0.0,0.0056,0.028,0.0561,0.0813,0.1009,0.132,0.1603,0.1702,0.1808,0.1838,-0.8909,-0.8909,-0.8909,-0.8909,-0.8909,-0.8909,-0.8909,-0.8854,-0.8626,-0.8626,-0.8717,-0.8338,-0.8422,-0.8313,-0.7789,-0.7643,-0.7369,-0.6877,-0.668,-0.659,-0.6523,-0.6528,-0.6512,-0.6482,-0.6485,-0.6452,-0.6425,-0.642,-0.6412,-0.6412,-0.6412,-0.6412,-0.6412,-0.6412,-0.6414,-0.6433,-0.6455,-0.6471,-0.6479,-0.6479,-0.6433,-0.64,-0.6414,-0.6412,-0.6412,-0.6412,-0.6412,-0.6412,-0.6412,-0.6431,-0.6442,-0.6466,-0.6504,-0.6589,-0.666,-0.6711,-0.6777,-0.6817,-0.685,-0.6934,-0.701,-0.7054,-0.7169,-0.7199,-0.7193,-0.7141,-0.7092,-0.7103,-0.7185,-0.7202,-0.7174,-0.7171,-0.7204,-0.7207,-0.721,-0.721,-0.721,-0.721,-0.721,-0.721,-0.721,-0.721,-0.721,-0.721,-0.7099,-0.6902,-0.6149,-0.4949,-0.3805,-0.2742,-0.1568,0.0,0.0,0.0,0.0,0.0,0.0,0.0,0.0,0.0,0.0,0.0,0.0,0.0,0.0,0.0,0.0,0.0336,0.0589,0.087,0.1215,0.1533,0.1748,0.1828,0.1863,-0.8909,-0.8909,-0.8909,-0.8909,-0.8909,-0.8909,-0.8909,-0.8854,-0.8626,-0.854,-0.8454,-0.8091,-0.8094,-0.8831,-0.8111,-0.778,-0.7597,-0.7061,-0.6832,-0.6752,-0.6677,-0.6714,-0.6706,-0.6657,-0.6654,-0.6597,-0.649,-0.6403,-0.6479,-0.6455,-0.6423,-0.6439,-0.6431,-0.6431,-0.6442,-0.6485,-0.6589,-0.6577,-0.6657,-0.6661,-0.6618,-0.6553,-0.6425,-0.6412,-0.6412,-0.6412,-0.6412,-0.6412,-0.6412,-0.6439,-0.6507,-0.6561,-0.6641,-0.6709,-0.679,-0.6861,-0.6926,-0.6967,-0.7013,-0.7073,-0.7111,-0.7125,-0.7207,-0.7207,-0.7204,-0.7202,-0.7147,-0.7147,-0.7207,-0.7207,-0.7207,-0.7207,-0.721,-0.721,-0.721,-0.721,-0.721,-0.721,-0.721,-0.721,-0.721,-0.721,-0.721,-0.721,-0.7182,-0.6791,-0.5926,-0.4782,-0.372,-0.2547,-0.1288,0.0,0.0,0.0,0.0,0.0,0.0,0.0,0.0,0.0,0.0,0.0,0.0,0.0,0.0,0.0,0.0,0.0197,0.0478,0.0762,0.114,0.1465,0.1682,0.1819,0.1822]},{"header":{"parameterUnit":"m.s-1","parameterCategory":1,"la1":31.0,"la2":29.5877,"lo1":-88.7671,"lo2":-86.6584,"dy":0.0162,"dx":0.0185,"nx":115,"ny":88,"refTime":"2024-08-23T06:00:00:Z","depth":0,"parameterNumber":3,"parameterNumberName":"V-component_of_WINDS"},"data":[0.0,0.0,0.0,0.0,0.0,0.0,0.0,0.0,0.0,0.0,0.0,0.0,0.0,0.0,0.0,0.0,0.0,0.0,0.0,0.0,0.0,0.0,0.0,0.0,0.0,0.0,0.0,0.0,0.0,0.0,0.0,0.0,0.0,0.0,0.0,0.0,0.0,0.0,0.0,0.0,0.0,0.0,0.0,0.0,0.0,0.0,0.0,0.0,0.0,0.0,0.0,0.0,0.0,0.0,0.0,0.0,0.0,0.0,0.0,0.0,0.0,0.0,0.0,0.0,0.0,0.0,0.0,0.0,0.0,0.0,0.0,0.0,0.0,0.0,0.0,0.0,0.0,0.0,0.0,0.0,0.0,0.0,0.0,0.0,0.0,0.0,0.0,0.0,0.0,0.0,0.0,0.0,0.0,0.0,0.0,0.0,0.0,0.0,0.0,0.0,0.0,0.0,0.0,0.0,0.0,0.0,0.0,0.0,0.0,0.0,0.0,0.0,0.0,0.0,0.0,0.0,0.0,0.0,0.0,0.0,0.0,0.0,0.0,0.0,0.0,0.0,0.0,0.0,0.0,0.0,0.0,0.0,0.0,0.0,0.0,0.0,0.0,0.0,0.0,0.0,0.0,0.0,0.0,0.0,0.0,0.0,0.0,0.0,0.0,0.0,0.0,0.0,0.0,0.0,0.0,0.0,0.0,0.0,0.0,0.0,0.0,0.0,0.0,0.0,0.0,0.0,0.0,0.0,0.0,0.0,0.0,0.0,0.0,0.0,0.0,0.0,0.0,0.0,0.0,0.0,0.0,0.0,0.0,0.0,0.0,0.0,0.0,0.0,0.0,0.0,0.0,0.0,0.0,0.0,0.0,0.0,0.0,0.0,0.0,0.0,0.0,0.0,0.0,0.0,0.0,0.0,0.0,0.0,0.0,0.0,0.0,0.0,0.0,0.0,0.0,0.0,0.0,0.0,0.0,0.0,0.0,0.0,0.0,0.0,0.0,0.0,0.0,0.0,0.0,0.0,0.0,0.0,0.0,0.0,0.0,0.0,0.0,0.0,0.0,0.0,0.0,0.0,0.0,0.0,0.0,0.0,0.0,0.0,0.0,0.0,0.0,0.0,0.0,0.0,0.0,0.0,0.0,0.0,0.0,0.0,0.0,0.0,0.0,0.0,0.0,0.0,0.0,0.0,0.0,0.0,0.0,0.0,0.0,0.0,0.0,0.0,0.0,0.0,0.0,0.0,0.0,0.0,0.0,0.0,0.0,0.0,0.0,0.0,0.0,0.0,0.0,0.0,0.0,0.0,0.0,0.0,0.0,0.0,0.0,0.0,0.0,0.0,0.0,0.0,0.0,0.0,0.0,0.0,0.0,0.0,0.0,0.0,0.0,0.0,0.0,0.0,0.0,0.0,0.0,0.0,0.0,0.0,0.0,0.0,0.0,0.0,0.0,0.0,0.0,0.0,0.0,0.0,0.0,0.0,0.0,0.0,0.0,0.0,0.0,0.0,0.0,0.0,0.0,0.0,0.0,0.0,0.0,0.0,0.0,0.0,0.0,0.0,0.0,0.0,0.0,0.0,0.0,0.0,0.0,0.0,0.0,0.0,0.0,0.0,0.0,0.0,0.0,0.0,0.0,0.0,0.0,0.0,0.0,0.0,0.0,0.0,0.0,0.0,0.0,0.0,0.0,0.0,0.0,0.0,0.0,0.0,0.0,0.0,0.0,0.0,0.0,0.0,0.0,0.0,0.0,0.0,0.0,0.0,0.0,0.0,0.0,0.0,0.0,0.0,0.0,0.0,0.0,0.0,0.0,0.0,0.0,0.0,0.0,0.0,0.0,0.0,0.0,0.0,0.0,0.0,0.0,0.0,0.0,0.0,0.0,0.0,0.0,0.0,0.0,0.0,0.0,0.0,0.0,0.0,0.0,0.0,0.0,0.0,0.0,0.0,0.0,0.0,0.0,0.0,0.0,0.0,0.0,0.0,0.0,0.0,0.0,0.0,0.0,0.0,0.0,0.0,0.0,0.0,0.0,0.0,0.0,0.0,0.0,0.0,0.0,0.0,0.0,0.0,0.0,0.0,0.0,0.0,0.0,0.0,0.0,0.0,0.0,0.0,0.0,0.0,0.0,0.0,0.0,0.0,0.0,0.0,0.0,0.0,0.0,0.0,0.0,0.0,0.0,0.0,0.0,0.0,0.0,0.0,0.0,0.0,0.0,0.0,0.0,0.0,0.0,0.0,0.0,0.0,0.0,0.0,0.0,0.0,0.0,0.0,0.0,0.0,0.0,0.0,0.0,0.0,0.0,0.0,0.0,0.0,0.0,0.0,0.0,0.0,0.0,0.0,0.0,0.0,0.0,0.0,0.0,0.0,0.0,0.0,0.0,0.0,0.0,0.0,0.0,0.0,0.0,0.0,0.0,0.0,0.0,0.0,0.0,0.0,0.0,0.0,0.0,0.0,0.0,0.0,0.0,0.0,0.0,0.0,0.0,0.0,0.0,0.0,0.0,0.0,0.0,0.0,0.0,0.0,0.0,0.0,0.0,0.0,0.0,0.0,0.0,0.0,0.0,0.0,0.0,0.0,0.0,0.0,0.0,0.0,0.0,0.0,0.0,0.0,0.0,0.0,0.0,0.0,0.0,0.0,0.0,0.0,0.0,0.0,0.0,0.0,0.0,0.0,0.0,0.0,0.0,0.0,0.0,0.0,0.0,0.0,0.0,0.0,0.0,0.0,0.0,0.0,0.0,0.0,0.0,0.0,0.0,0.0,0.0,0.0,0.0,0.0,0.0,0.0,0.0,0.0,0.0,0.0,0.0,0.0,0.0,0.0,0.0,0.0,0.0,0.0,0.0,0.0,0.0,0.0,0.0,0.0,0.0,0.0,0.0,0.0,0.0,0.0,0.0,0.0,0.0,0.0,0.0,0.0,0.0,0.0,0.0,0.0,0.0,0.0,0.0,0.0,0.0,0.0,0.0,0.0,0.0,0.0,0.0,0.0,0.0,0.0,0.0,0.0,0.0,0.0,0.0,0.0,0.0,0.0,0.0,0.0,0.0,0.0,0.0,0.0,0.0,0.0,0.0,0.0,0.0,0.0,0.0,0.0,0.0,0.0,0.0,0.0,0.0,0.0,0.0,0.0,0.0,0.0,0.0,0.0,0.0,0.0,0.0,0.0,0.0,0.0,0.0,0.0,0.0,0.0,0.0,0.0,0.0,0.0,0.0,0.0,0.0,0.0,0.0,0.0,0.0,0.0,0.0,0.0,0.0,0.0,0.0,0.0,0.0,0.0,0.0,0.0,0.0,0.0,0.0,0.0,0.0,0.0,0.0,0.0,0.0,0.0,0.0,0.0,0.0,0.0,0.0,0.0,0.0,0.0,0.0,0.0,0.0,0.0,0.0,0.0,0.0,0.0,0.0,0.0,0.0,0.0,0.0,0.0,0.0,0.0,0.0,0.0,0.0,0.0,0.0,0.0,0.0,0.0,0.0,0.0,0.0,0.0,0.0,0.0,0.0,0.0,0.0,0.0,0.0,0.0,0.0,0.0,0.0,0.0,0.0,0.0,0.0,0.0,0.0,0.0,0.0,0.0,0.0,0.0,0.0,0.0,0.0,0.0,0.0,0.0,0.0,0.0,0.0,0.0,0.0,0.0,0.0,0.0,0.0,0.0,0.0,0.0,0.0,0.0,0.0,0.0,0.0,0.0,0.0,0.0,0.0,0.0,0.0,0.0,0.0,0.0,0.0,0.0,0.0,0.0,0.0,0.0,0.0,0.0,0.0,0.0,0.0,0.0,0.0,0.0,0.0,0.0,0.0,0.0,0.0,0.0,0.0,0.0,0.0,0.0,0.0,0.0,0.0,0.0,0.0,0.0,0.0,0.0,0.0,0.0,0.0,0.0,0.0,0.0,0.0,0.0,0.0,0.0,0.0,0.0,0.0,0.0,0.0,0.0,0.0,0.0,0.0,0.0,0.0,0.0,0.0,0.0,0.0,0.0,0.0,0.0,0.0,0.0,0.0,0.0,0.0,0.0,0.0,0.0,0.0,0.0,0.0,0.0,0.0,0.0,0.0,0.0,0.0,0.0,0.0,0.0,0.0,0.0,0.0,0.0,0.0,0.0,0.0,0.0,0.0,0.0,0.0,0.0,0.0,0.0,0.0,0.0,0.0,0.0,0.0,0.0,0.0,0.0,0.0,0.0,0.0,0.0,0.0,0.0,0.0,0.0,0.0,0.0,0.0,0.0,0.0,0.0,0.0,0.0,0.0,0.0,0.9801,0.0,0.0,0.0,0.0,0.0,0.0,0.0,0.0,0.0,0.0,0.0,0.0,0.0,0.0,0.0,0.0,0.0,0.0,0.0,0.0,0.0,0.0,0.0,0.0,0.0,0.0,0.0,0.0,0.0,0.0,0.0,0.0,0.0,0.0,0.0,0.0,0.0,0.0,0.0,0.0,0.0,0.0,0.0,0.0,0.0,0.0,0.0,0.0,0.0,0.0,0.0,0.0,0.0,0.0,0.0,0.0,0.0,0.0,0.0,0.0,0.0,0.0,0.0,0.0,0.0,0.0,0.0,0.0,0.0,0.0,0.0,0.0,0.0,0.0,0.0,0.0,0.0,0.0,0.0,0.0,0.0,0.0,0.0,0.0,0.0,0.0,0.0,0.0,0.0,0.0,0.0,0.0,0.0,0.0,0.0,0.0,0.0,0.0,0.0,0.0,0.0,0.0,0.0,0.0,0.0,0.0,0.0,0.0,0.0,0.0,0.9801,0.9801,0.9801,0.9801,0.9801,0.0,0.0,0.0,0.0,0.0,0.0,0.0,0.0,0.0,0.0,0.0,0.0,0.0,0.0,0.0,0.0,0.0,0.0,0.0,0.0,0.0,0.0,0.0,0.0,0.0,0.0,0.0,0.0,0.0,0.0,0.0,0.0,0.0,0.0,0.0,0.0,0.0,0.0,0.0,0.0,0.0,0.0,0.0,0.0,0.0,0.0,0.0,0.0,0.0,0.0,0.0,0.0,0.0,0.0,0.0,0.0,0.0,0.0,0.0,0.0,0.0,0.0,0.0,0.0,0.0,0.0,0.0,0.0,0.0,0.0,0.0,0.0,0.0,0.0,0.0,0.0,0.0,0.0,0.0,0.0,0.0,0.0,0.0,0.0,0.0,0.0,0.0,0.0,0.0,0.0,0.0,0.0,0.0,0.0,0.0,0.0,0.0,0.0,0.0,0.0,0.0,0.0,0.0,0.0,0.0,0.0,0.0,0.0,0.0,0.0,0.0,0.0,1.0056,1.0075,1.0097,0.0,0.0,0.0,0.0,0.0,0.0,0.0,0.0,0.0,0.0,0.0,0.0,0.0,0.0,0.0,0.0,0.0,0.0,0.0,0.0,0.0,0.0,0.0,0.0,0.0,0.0,0.0,0.0,0.0,0.0,0.0,0.0,0.0,0.0,0.0,0.0,0.0,0.0,0.0,0.0,0.0,0.0,0.0,0.0,0.0,0.0,0.0,0.0,0.0,0.0,0.0,0.0,0.0,0.0,0.0,0.0,0.0,0.0,0.0,0.0,0.0,0.0,0.0,0.0,0.0,0.0,0.0,0.0,0.0,0.0,0.0,0.0,0.0,0.0,0.0,0.0,0.0,0.0,0.0,0.0,0.0,0.0,0.0,0.0,0.0,0.0,0.0,0.0,0.0,0.0,0.0,0.0,0.0,0.0,0.0,0.0,0.0,0.0,0.0,0.0,0.0,0.0,0.0,0.0,0.0,0.0,0.0,0.0,0.0,0.0,1.0155,1.0875,1.0891,0.0,1.094,0.0,0.0,0.0,0.0,0.0,0.0,0.0,0.0,0.0,0.0,0.0,0.0,0.0,0.0,0.0,0.0,0.0,0.0,0.0,0.0,0.0,0.0,0.0,0.0,0.0,0.0,0.0,0.0,0.0,0.0,0.0,0.0,0.0,0.0,0.0,0.0,0.0,0.0,0.0,0.0,0.0,0.0,0.0,0.0,0.0,0.0,0.0,0.0,0.0,0.0,0.0,0.0,0.0,0.0,0.0,0.0,0.0,0.0,0.0,0.0,0.0,0.0,0.0,0.0,0.0,0.0,0.0,0.0,0.0,0.0,0.0,0.0,0.0,0.0,0.0,0.0,0.0,0.0,0.0,0.0,0.0,0.0,0.0,0.0,0.0,0.0,0.0,0.0,0.0,0.0,0.0,0.0,0.0,0.0,0.0,0.0,0.0,0.0,0.0,0.0,0.0,0.0,0.0,0.0,0.0,0.0,0.0,0.0,0.0,0.0,1.066,1.0973,1.1044,1.107,0.0,0.0,0.0,0.0,0.0,0.0,0.0,0.0,0.0,0.0,0.0,0.0,0.0,0.0,0.0,0.0,0.0,0.0,0.0,0.0,0.0,0.0,0.0,0.0,0.0,0.0,0.0,0.0,0.0,0.0,0.0,0.0,0.0,0.0,0.0,0.0,0.0,0.0,0.0,0.0,0.0,0.0,0.0,0.0,0.0,0.0,0.0,0.0,0.0,0.0,0.0,0.0,0.0,0.0,0.0,0.0,0.0,0.0,0.0,0.0,0.0,0.0,0.0,0.0,0.0,0.0,0.0,0.0,0.0,0.0,0.0,0.0,0.0,0.0,0.0,0.0,0.0,0.0,0.0,0.0,0.0,0.0,0.0,0.0,0.0,0.0,0.0,0.0,0.0,0.0,0.0,0.0,0.0,0.0,0.0,0.0,0.0,0.0,0.0,0.0,0.0,0.0,0.0,0.0,0.0,0.0,0.0,0.0,0.0,0.0,0.961,1.0548,1.101,1.1309,1.1249,1.0782,0.0,0.0,0.0,0.0,0.0,0.0,0.0,0.0,0.0,0.0,0.0,0.0,0.0,0.0,0.0,0.0,0.0,0.0,0.0,0.0,0.0,0.0,0.0,0.0,0.0,0.0,0.0,0.0,0.0,0.0,0.0,0.0,0.0,0.0,0.0,0.0,0.0,0.0,0.0,0.0,0.0,0.0,0.0,0.0,0.0,0.0,0.0,0.0,0.0,0.0,0.0,0.0,0.0,0.0,0.0,0.0,0.0,0.0,0.0,0.0,0.0,0.0,0.0,0.0,0.0,0.0,0.0,0.0,0.0,0.0,0.0,0.0,0.0,0.0,0.0,0.0,0.0,0.0,0.0,0.0,0.0,0.0,0.0,0.0,0.0,0.0,0.0,0.0,0.0,0.0,0.0,0.0,0.0,0.0,0.0,0.0,0.0,0.0,0.0,0.0,0.0,0.0,0.0,0.0,0.0,0.0,0.0,0.0,0.0,0.8301,0.951,1.107,1.1892,1.1605,0.0,0.0,0.0,0.0,0.0,0.0,0.0,0.0,0.0,0.0,0.0,0.0,0.0,0.0,0.0,0.0,0.0,0.0,0.0,0.0,0.0,0.0,0.0,0.0,0.0,0.0,0.0,0.0,0.0,0.0,0.0,0.0,0.0,0.0,0.0,0.0,0.0,0.0,0.0,0.0,0.0,0.0,0.0,0.0,0.0,0.0,0.0,0.0,0.0,0.0,0.0,0.0,0.0,0.0,0.0,0.0,0.0,0.0,0.0,0.0,0.0,0.0,0.0,0.0,0.0,0.0,0.0,0.0,0.0,0.0,0.0,0.0,0.0,0.0,0.0,0.0,0.0,0.0,0.0,0.0,0.0,0.0,0.0,0.0,0.0,0.0,0.0,0.0,0.0,0.0,0.0,0.0,0.0,0.0,0.0,0.0,0.0,0.0,0.0,0.0,0.0,0.0,0.0,0.0,0.0,0.0,0.0,0.0,0.0,0.7412,0.9227,1.0746,1.1871,1.1746,1.1083,0.0,0.0,0.0,0.0,0.0,0.0,0.0,0.0,0.0,0.0,0.0,0.0,0.0,0.0,0.0,0.0,0.0,0.0,0.0,0.0,0.0,0.0,0.0,0.0,0.0,0.0,0.0,0.0,0.0,0.0,0.0,0.0,0.0,0.0,0.0,0.0,0.0,0.0,0.0,0.0,0.0,0.0,0.0,0.0,0.0,0.0,0.0,0.0,0.0,0.0,0.0,0.0,0.0,0.0,0.0,0.0,0.0,0.0,0.0,0.0,0.0,0.0,0.0,0.0,0.0,0.0,0.0,0.0,0.0,0.0,0.0,0.0,0.0,0.0,0.0,0.0,0.0,0.0,0.0,0.0,0.0,0.0,0.0,0.0,0.0,0.0,0.0,0.0,0.0,0.0,0.0,0.0,0.0,0.0,0.0,0.0,0.0,0.0,0.0,0.0,0.0,0.0,0.0,0.0,0.0,0.0,0.0,0.0,0.0,0.786,0.0,1.1268,0.0,1.1355,1.0557,0.0,0.0,0.0,0.0,0.0,0.0,0.0,0.0,0.0,0.0,0.0,0.0,0.0,0.0,0.0,0.0,0.0,0.0,0.0,0.0,0.0,0.0,0.0,0.0,0.0,0.0,0.0,0.0,0.0,0.0,0.0,0.0,0.0,0.0,0.0,0.0,0.0,0.0,0.0,0.0,0.0,0.0,0.0,0.0,0.0,0.0,0.0,0.0,0.0,0.0,0.0,0.0,0.0,0.0,0.0,0.0,0.0,0.0,0.0,0.0,0.0,0.0,0.0,0.0,0.0,0.0,0.0,0.0,0.0,0.0,0.0,0.0,0.0,0.0,0.0,0.0,0.0,0.0,0.0,0.0,0.0,0.0,0.0,0.0,0.0,0.0,0.0,0.0,0.0,0.0,0.0,0.0,0.0,0.0,0.0,0.0,0.0,0.0,0.0,0.0,0.0,0.0,0.0,0.0,0.0,0.0,0.0,0.0,0.7102,0.8698,1.0275,1.0796,1.0073,1.0794,1.0022,0.0,0.0,0.0,0.0,0.0,0.0,0.0,0.0,0.0,0.0,0.0,0.0,0.0,0.0,0.0,0.0,0.0,0.0,0.0,0.0,0.0,0.0,0.0,0.0,0.0,0.0,0.0,0.0,0.0,0.0,0.0,0.0,0.0,0.0,0.0,0.0,0.0,0.0,0.0,0.0,0.0,0.0,0.0,0.0,0.0,0.0,0.0,0.0,0.0,0.0,0.0,0.0,0.0,0.0,0.0,0.0,0.0,0.0,0.0,0.0,0.0,0.0,0.0,0.0,0.0,0.0,0.0,0.0,0.0,0.0,0.0,0.0,0.0,0.0,0.0,0.0,0.0,0.0,0.0,0.0,0.0,0.0,0.0,0.0,0.0,0.0,0.0,0.0,0.0,0.0,0.0,0.0,0.0,0.0,0.0,0.0,0.0,0.0,0.0,0.0,0.0,0.0,0.0,0.0,0.0,0.0,0.0,0.0,0.0,1.0404,1.0909,1.1065,1.0828,1.0537,0.9723,0.0,0.0,0.0,0.0,0.0,0.0,0.0,0.0,0.0,0.0,0.0,0.0,0.0,0.0,0.0,0.0,0.0,0.0,0.0,0.0,0.0,0.0,0.0,0.0,0.0,0.0,0.0,0.0,0.0,0.0,0.0,0.0,0.0,0.0,0.0,0.0,0.0,0.0,0.0,0.0,0.0,0.0,0.0,0.0,0.0,0.0,0.0,0.0,0.0,0.0,0.0,0.0,0.0,0.0,0.0,0.0,0.0,0.0,0.0,0.0,0.0,0.0,0.0,0.0,0.0,0.0,0.0,0.0,0.0,0.0,0.0,0.0,0.0,0.0,0.0,0.0,0.0,0.0,0.0,0.0,0.0,0.0,0.0,0.0,0.0,0.0,0.0,0.0,0.0,0.0,0.0,0.0,0.0,0.0,0.0,0.0,0.0,0.0,0.0,0.0,0.0,0.0,0.0,0.0,0.0,0.0,0.0,0.0,0.0,1.2603,1.2029,1.1672,1.1677,1.0885,1.0049,0.9203,0.0,0.0,0.0,0.0,0.0,0.0,0.0,0.0,0.0,0.0,0.0,0.0,0.0,0.0,0.0,0.0,0.0,0.0,0.0,0.0,0.0,0.0,0.0,0.0,0.0,0.0,0.0,0.0,0.0,0.0,0.0,0.0,0.0,0.0,0.0,0.0,0.0,0.0,0.0,0.0,0.0,0.0,0.0,0.0,0.0,0.0,0.0,0.0,0.0,0.0,0.0,0.0,0.0,0.0,0.0,0.0,0.0,0.0,0.0,0.0,0.0,0.0,0.0,0.0,0.0,0.0,0.0,0.0,0.0,0.0,0.0,0.0,0.0,0.0,0.0,0.0,0.0,0.0,0.0,0.0,0.0,0.0,0.0,0.0,0.0,0.0,0.0,0.0,0.0,0.0,0.0,0.0,0.0,0.0,0.0,0.0,0.0,0.0,0.0,0.0,0.0,0.0,0.0,0.0,0.0,0.0,0.0,0.0,1.5171,1.3615,1.2757,1.2638,1.181,1.0954,0.0,0.0,0.0,0.0,0.0,0.0,0.0,0.0,0.0,0.0,0.0,0.0,0.0,0.0,0.0,0.0,0.0,0.0,0.0,0.0,0.0,0.0,0.0,0.0,0.0,0.0,0.0,0.0,0.0,0.0,0.0,0.0,0.0,0.0,0.0,0.0,0.0,0.0,0.0,0.0,0.0,0.0,0.0,0.0,0.0,0.0,0.0,0.0,0.0,0.0,0.0,0.0,0.0,0.0,0.0,0.0,0.0,0.0,0.0,0.0,0.0,0.0,0.0,0.0,0.0,0.0,0.0,0.0,0.0,0.0,0.0,0.0,0.0,0.0,0.0,0.0,0.0,0.0,0.0,0.0,0.0,0.0,0.0,0.0,0.0,0.0,0.0,0.0,0.0,0.0,0.0,0.0,0.0,0.0,0.0,0.0,0.0,0.0,0.0,0.0,0.0,0.0,0.0,0.0,0.0,0.0,0.0,0.0,0.0,1.515,1.5941,1.5735,1.4474,1.3517,1.2358,0.0,0.0,0.0,0.0,0.0,0.0,0.0,0.0,0.0,0.0,0.0,0.0,0.0,0.0,0.0,0.0,0.0,0.0,0.0,0.0,0.0,0.0,0.0,0.0,0.0,0.0,0.0,0.0,0.0,0.0,0.0,0.0,0.0,0.0,0.0,0.0,0.0,0.0,0.0,0.0,0.0,0.0,0.0,0.0,0.0,0.0,0.0,0.0,0.0,0.0,0.0,0.0,0.0,0.0,0.0,0.0,0.0,0.0,0.0,0.0,0.0,0.0,0.0,0.0,0.0,0.0,0.0,0.0,0.0,0.0,0.0,0.0,0.0,0.0,0.0,0.0,0.0,0.0,0.0,0.0,0.0,0.0,0.0,0.0,0.0,0.0,0.0,0.0,0.0,0.0,0.0,0.0,0.0,0.0,0.0,0.0,0.0,0.0,0.0,0.0,0.0,0.0,0.0,0.0,0.0,0.0,0.0,0.0,1.5119,1.6286,1.7573,1.7748,1.6727,1.5128,1.3838,0.0,0.0,0.0,0.0,0.0,0.0,0.0,0.0,0.0,0.0,0.0,0.0,0.0,0.0,0.0,0.0,0.0,0.0,0.0,0.0,0.0,0.0,0.0,0.0,0.0,0.0,0.0,0.0,0.0,0.0,0.0,0.0,0.0,0.0,0.0,0.0,0.0,0.0,0.0,0.0,0.0,0.0,0.0,0.0,0.0,0.0,0.0,0.0,0.0,0.0,0.0,0.0,0.0,0.0,0.0,0.0,0.0,0.0,0.0,0.0,0.0,0.0,0.0,0.0,0.0,0.0,0.0,0.0,0.0,0.0,0.0,0.0,0.0,0.0,0.0,0.0,0.0,0.0,0.0,0.0,0.0,0.0,0.0,0.0,0.0,0.0,0.0,0.0,0.0,0.0,0.0,0.0,0.0,0.0,0.0,0.0,0.0,0.0,0.0,0.0,0.0,0.0,0.0,0.0,0.0,0.0,0.0,0.0,1.6251,1.7892,1.8714,1.9113,1.8966,1.6637,1.5249,0.0,0.0,0.0,0.0,0.0,0.0,0.0,0.0,0.0,0.0,0.0,0.0,0.0,0.0,0.0,0.0,0.0,0.0,0.0,0.0,0.0,0.0,0.0,0.0,0.0,0.0,0.0,0.0,0.0,0.0,0.0,0.0,0.0,0.0,0.0,0.0,0.0,0.0,0.0,0.0,0.0,0.0,0.0,0.0,0.0,0.0,0.0,0.0,0.0,0.0,0.0,0.0,0.0,0.0,0.0,0.0,0.0,0.0,0.0,0.0,0.0,0.0,0.0,0.0,0.0,0.0,0.0,0.0,0.0,0.0,0.0,0.0,0.0,0.0,0.0,0.0,0.0,0.0,0.0,0.0,0.0,0.0,0.0,0.0,0.0,0.0,0.0,0.0,0.0,0.0,0.0,0.0,0.0,0.0,0.0,0.0,0.0,0.0,0.0,0.0,0.0,0.0,0.0,0.0,0.0,0.0,0.0,0.0,1.7147,1.878,1.9658,2.0073,2.0,1.8104,1.6431,0.0,0.0,0.0,0.0,0.0,0.0,0.0,0.0,0.0,0.0,0.0,0.0,0.0,0.0,0.0,0.0,0.0,0.0,0.0,0.0,0.0,0.0,0.0,0.0,0.0,0.0,0.0,0.0,0.0,0.0,0.0,0.0,0.0,0.0,0.0,0.0,0.0,0.0,0.0,0.0,0.0,0.0,0.0,0.0,0.0,0.0,0.0,0.0,1.3847,0.0,0.0,0.0,0.0,0.0,0.0,0.0,0.0,0.0,0.0,0.0,0.0,0.0,0.0,0.0,0.0,0.0,0.0,0.0,0.0,0.0,0.0,0.0,0.0,0.0,0.0,0.0,0.0,0.0,0.0,0.0,0.0,0.0,0.0,0.0,0.0,0.0,0.0,0.0,0.0,0.0,0.0,0.0,0.0,0.0,0.0,0.0,0.0,0.0,0.0,0.0,0.0,0.0,0.0,0.0,0.0,0.0,0.0,0.0,1.7836,1.9112,2.0005,2.0408,2.0239,1.8567,1.7005,0.0,0.0,0.0,0.0,0.0,0.0,0.0,0.0,0.0,0.0,0.0,0.0,0.0,0.0,0.0,0.0,0.0,0.0,0.0,0.0,0.0,0.0,0.0,0.0,0.0,0.0,0.0,0.0,0.0,0.0,0.0,0.0,0.0,0.0,0.0,0.0,0.0,0.0,0.0,0.0,0.0,0.0,0.0,0.0,0.0,0.0,0.0,0.0,0.0,0.0,0.0,0.0,0.0,0.0,0.0,0.0,0.0,0.0,0.0,0.0,0.0,0.0,0.0,0.0,0.0,0.0,0.0,0.0,0.0,0.0,0.0,0.0,0.0,0.0,0.0,0.0,0.0,0.0,0.0,0.0,0.0,0.0,0.0,0.0,0.0,0.0,0.0,0.0,0.0,0.0,0.0,0.0,0.0,0.0,0.0,0.0,0.0,0.0,0.0,0.0,0.0,0.0,0.0,0.0,0.0,0.0,0.0,1.6653,1.8389,1.9368,2.0109,2.0461,2.0304,1.8633,1.7215,1.6136,0.0,0.0,0.0,0.0,0.0,0.0,0.0,0.0,0.0,0.0,0.0,0.0,0.0,0.0,0.0,0.0,0.0,0.0,0.0,0.0,0.0,0.0,0.0,0.0,0.0,0.0,0.0,0.0,0.0,0.0,0.0,0.0,0.0,0.0,0.0,0.0,0.0,0.0,1.2809,1.472,0.0,0.0,0.0,0.0,0.0,0.0,0.0,0.0,1.6215,0.0,0.0,0.0,0.0,0.0,0.0,0.0,0.0,0.0,0.0,0.0,0.0,0.0,0.0,0.0,0.0,0.0,0.0,0.0,0.0,0.0,0.0,0.0,0.0,0.0,0.0,0.0,0.0,0.0,0.0,0.0,0.0,0.0,0.0,0.0,0.0,0.0,0.0,0.0,0.0,0.0,0.0,0.0,0.0,0.0,0.0,0.0,0.0,0.0,0.0,0.0,0.0,0.0,0.0,0.0,0.0,1.5072,1.6948,1.8685,2.0246,2.0419,2.0496,2.0409,1.871,1.7023,1.5413,0.0,0.0,0.0,0.0,0.0,0.0,0.0,0.0,0.0,0.0,0.0,0.0,0.0,0.0,0.0,0.0,0.0,0.0,0.0,0.0,0.0,0.0,0.0,0.0,0.0,0.0,0.0,0.0,0.0,0.0,0.0,0.0,0.0,0.0,0.0,0.0,0.0,0.0,0.0,1.6227,1.7517,0.0,0.0,0.0,0.0,0.0,0.0,0.0,0.0,1.814,0.0,0.0,0.0,0.0,0.0,0.0,0.0,0.0,0.0,0.0,0.0,0.0,0.0,0.0,0.0,0.0,0.0,0.0,0.0,0.0,0.0,0.0,0.0,0.0,0.0,0.0,0.0,0.0,0.0,0.0,0.0,0.0,0.0,0.0,0.0,0.0,0.0,0.0,0.0,0.0,0.0,0.0,0.0,0.0,0.0,0.0,0.0,0.0,0.0,0.0,0.0,0.0,0.0,0.0,0.0,1.5333,1.7074,1.8793,2.0435,2.0513,2.0512,2.0472,1.8778,1.7038,0.0,0.0,0.0,0.0,0.0,0.0,0.0,0.0,0.0,0.0,0.0,0.0,0.0,0.0,0.0,0.0,0.0,0.0,0.0,0.0,0.0,0.0,0.0,0.0,0.0,0.0,0.0,0.0,0.0,0.0,0.0,0.0,0.0,0.0,0.0,0.0,0.0,0.0,0.0,0.0,1.7552,1.8734,1.8348,0.0,0.0,0.0,0.0,0.0,0.0,1.877,1.8942,0.0,0.0,0.0,0.0,0.0,0.0,0.0,0.0,0.0,0.0,0.0,0.0,0.0,0.0,0.0,0.0,0.0,0.0,0.0,0.0,0.0,0.0,0.0,0.0,0.0,0.0,0.0,0.0,0.0,0.0,0.0,0.0,0.0,0.0,0.0,0.0,0.0,0.0,0.0,0.0,0.0,0.0,0.0,0.0,0.0,0.0,0.0,0.0,0.0,0.0,0.0,0.0,0.0,0.0,0.0,1.5374,1.7113,1.8795,2.042,2.0499,2.0499,2.0479,1.881,1.7073,0.0,0.0,0.0,0.0,0.0,0.0,0.0,0.0,0.0,0.0,0.0,0.0,0.0,0.0,0.0,0.0,0.0,0.0,0.0,0.0,0.0,0.0,0.0,0.0,0.0,0.0,0.0,0.0,0.0,0.0,0.0,0.0,0.0,0.0,0.0,0.0,0.0,0.0,0.0,0.0,0.0,1.9923,2.0069,2.0133,0.0,0.0,0.0,0.0,1.8669,1.9953,0.0,0.0,0.0,0.0,0.0,0.0,0.0,0.0,0.0,0.0,0.0,0.0,0.0,0.0,0.0,0.0,0.0,0.0,0.0,0.0,0.0,0.0,0.0,0.0,0.0,0.0,0.0,0.0,0.0,0.0,0.0,0.0,0.0,0.0,0.0,0.0,0.0,0.0,0.0,0.0,0.0,0.0,0.0,0.0,0.0,0.0,0.0,0.0,0.0,0.0,0.0,0.0,0.0,0.0,0.0,0.0,1.5393,1.7114,1.8814,2.0401,2.0499,2.0499,2.0479,1.8818,1.7082,0.0,0.0,0.0,0.0,0.0,0.0,0.0,0.0,0.0,0.0,0.0,0.0,0.0,0.0,0.0,0.0,0.0,0.0,0.0,0.0,0.0,0.0,0.0,0.0,0.0,0.0,0.0,0.0,0.0,0.0,0.0,0.0,0.0,0.0,0.0,0.0,0.0,0.0,0.0,0.0,0.0,2.1131,2.1944,2.2025,2.1951,0.0,0.0,1.9723,2.0998,2.3009,0.0,0.0,0.0,0.0,0.0,0.0,0.0,0.0,0.0,0.0,0.0,0.0,0.0,0.0,0.0,0.0,0.0,0.0,0.0,0.0,0.0,0.0,0.0,0.0,0.0,0.0,0.0,0.0,0.0,0.0,0.0,0.0,0.0,0.0,0.0,0.0,0.0,0.0,0.0,0.0,0.0,0.0,0.0,0.0,0.0,0.0,0.0,0.0,0.0,0.0,0.0,0.0,0.0,0.0,0.0,1.3638,1.5379,1.7118,1.8817,2.042,2.0499,2.0499,2.0499,1.8806,1.7074,0.0,0.0,0.0,0.0,0.0,0.0,0.0,0.0,0.0,0.0,0.0,0.0,0.0,0.0,0.0,0.0,0.0,0.0,0.0,0.0,0.0,0.0,0.0,0.0,0.0,0.0,0.0,0.0,0.0,0.0,0.0,0.0,0.0,0.0,0.0,0.0,0.0,0.0,0.0,0.0,0.0,0.0,2.3145,2.3597,0.0,0.0,0.0,2.1723,2.3288,0.0,0.0,0.0,0.0,0.0,0.0,0.0,0.0,0.0,0.0,0.0,0.0,0.0,0.0,0.0,0.0,0.0,0.0,0.0,0.0,0.0,0.0,0.0,0.0,0.0,0.0,0.0,0.0,0.0,0.0,0.0,0.0,0.0,0.0,0.0,0.0,0.0,0.0,0.0,0.0,0.0,0.0,0.0,0.0,0.0,0.0,0.0,0.0,0.0,0.0,0.0,0.0,0.0,0.0,0.0,0.0,0.0,1.5405,1.7121,1.88,2.044,2.0499,2.0499,2.0479,1.8811,0.0,0.0,0.0,0.0,0.0,0.0,0.0,0.0,0.0,0.0,0.0,0.0,0.0,0.0,0.0,0.0,0.0,0.0,0.0,0.0,0.0,0.0,0.0,0.0,0.0,0.0,0.0,0.9222,0.0,0.0,0.0,0.0,0.0,0.0,0.0,0.0,0.0,0.0,0.0,0.0,0.0,0.0,2.3913,2.4391,2.5177,2.572,0.0,0.0,2.4169,2.545,2.6108,2.565,0.0,0.0,0.0,0.0,0.0,0.0,0.0,0.0,0.0,0.0,0.0,0.0,0.0,0.0,0.0,0.0,0.0,0.0,0.0,0.0,0.0,0.0,0.0,0.0,0.0,0.0,0.0,0.0,0.0,0.0,0.0,0.0,0.0,0.0,0.0,0.0,0.0,0.0,0.0,0.0,0.0,0.0,0.0,0.0,0.0,0.0,0.0,0.0,0.0,0.0,0.0,0.0,0.0,0.0,1.3657,1.539,1.7124,1.882,2.0441,2.0499,2.0499,2.0479,1.8814,1.7111,0.0,0.0,0.0,0.0,0.0,0.0,0.0,0.0,0.0,0.0,0.0,0.0,0.0,0.0,0.0,0.0,0.0,0.0,0.0,0.0,0.0,0.0,0.0,0.0,0.0,0.0,0.0,0.0,0.0,0.0,0.0,0.0,0.0,0.0,0.0,0.0,0.0,0.0,0.0,0.0,0.0,2.4372,2.6009,2.6909,2.7439,0.0,2.7336,2.7307,2.7394,2.8789,2.8703,2.5368,0.0,0.0,0.0,0.0,0.0,0.0,0.0,0.0,0.0,0.0,0.0,0.0,0.0,0.0,0.0,0.0,0.0,0.0,0.0,0.0,0.0,0.0,0.0,0.0,0.0,0.0,0.0,0.0,0.0,0.0,0.0,0.0,0.0,0.0,0.0,0.0,0.0,0.0,0.0,0.0,0.0,0.0,0.0,0.0,0.0,0.0,0.0,0.0,0.0,0.0,0.0,0.0,0.0,1.4459,1.6194,1.8413,2.0127,2.1257,2.1304,2.1297,2.1297,1.9613,1.7912,0.0,0.0,0.0,0.0,0.0,0.0,0.0,0.0,0.0,0.0,0.0,0.0,0.0,0.0,0.0,0.0,0.0,0.0,0.0,0.0,0.0,0.0,0.0,0.0,0.0,0.0,0.0,0.0,1.224,1.2748,1.3172,0.0,0.0,0.0,0.0,0.0,0.0,0.0,0.0,0.0,0.0,2.6031,2.7709,2.82,0.0,0.0,2.8607,2.8394,2.9095,2.9181,2.8427,2.6222,2.5422,0.0,0.0,0.0,0.0,0.0,0.0,0.0,0.0,0.0,0.0,0.0,0.0,0.0,0.0,0.0,0.0,0.0,0.0,0.0,0.0,0.0,0.0,0.0,0.0,0.0,0.0,0.0,0.0,0.0,0.0,0.0,0.0,0.0,0.0,0.0,0.0,0.0,0.0,0.0,0.0,0.0,0.0,0.0,0.0,0.0,0.0,0.0,0.0,0.0,0.0,0.0,0.0,1.5093,1.7065,1.9327,2.1062,2.2173,2.2178,2.207,2.1776,2.0361,1.8794,0.0,0.0,0.0,0.0,0.0,0.0,0.0,0.0,0.0,0.0,0.0,0.0,0.0,0.0,0.0,0.0,0.0,0.0,0.0,0.0,0.0,0.0,0.0,0.0,0.0,0.0,0.0,0.0,1.3463,1.4045,1.4149,0.0,0.0,0.0,0.0,0.0,0.0,0.0,0.0,0.0,0.0,2.7277,2.8712,2.9133,2.9513,3.0112,2.9535,2.9287,3.007,2.9532,2.8586,2.7348,0.0,0.0,0.0,0.0,0.0,0.0,0.0,0.0,0.0,0.0,0.0,0.0,0.0,0.0,0.0,0.0,0.0,0.0,0.0,0.0,0.0,0.0,0.0,0.0,0.0,0.0,0.0,1.1452,0.0,0.0,1.0195,0.0,0.0,0.0,0.0,0.0,0.0,0.0,0.0,0.0,0.0,0.0,0.0,0.0,0.0,0.0,0.0,0.0,0.0,0.0,0.0,0.0,0.0,1.5409,1.7928,1.9725,2.1385,2.3006,2.3075,2.2696,2.1874,2.0941,1.9679,1.7999,0.0,0.0,0.0,0.0,0.0,0.0,0.0,0.0,0.0,0.0,0.0,0.0,0.0,0.0,0.0,0.0,0.0,0.0,0.0,0.0,0.0,0.0,0.0,0.0,0.0,0.0,1.3431,1.4396,1.4954,0.0,0.0,0.0,0.0,0.0,0.0,0.0,0.0,0.0,2.4871,2.653,2.7933,2.8831,2.965,3.0227,3.0242,3.0211,3.0188,3.0246,3.0208,2.9879,0.0,0.0,0.0,0.0,0.0,0.0,0.0,0.0,0.0,0.0,0.0,0.0,0.0,0.0,0.0,0.0,0.0,0.0,0.0,0.0,0.0,0.0,0.0,0.0,0.0,0.0,0.0,1.5223,1.4911,0.0,0.0,0.0,0.0,0.0,0.0,0.0,0.0,0.0,0.0,0.0,1.9314,1.9852,0.0,0.0,0.0,0.0,0.0,0.0,0.0,0.0,0.0,0.0,0.0,0.0,1.7421,1.8925,2.166,2.3359,2.3945,2.3962,2.3838,2.3515,2.2124,2.0319,1.8059,0.0,0.0,0.0,0.0,0.0,0.0,0.0,0.0,0.0,0.0,0.0,0.0,0.0,0.0,0.0,0.0,0.0,0.0,0.0,0.0,0.0,0.0,0.0,0.0,0.0,1.3349,0.0,0.0,0.0,0.0,0.0,0.0,0.0,0.0,0.0,0.0,0.0,2.6568,2.8261,2.9426,3.0435,3.1298,3.1687,3.1859,0.0,0.0,0.0,0.0,0.0,0.0,0.0,0.0,0.0,0.0,0.0,0.0,0.0,0.0,3.0938,2.8172,2.7428,2.7061,2.6511,0.0,0.0,0.0,0.0,0.0,0.0,0.0,0.0,0.0,0.0,0.0,0.0,0.0,0.0,1.789,1.7558,1.7011,0.0,0.0,0.0,0.0,0.0,0.0,0.0,0.0,2.1143,2.196,2.1956,2.2738,2.2672,2.1873,2.2137,2.0519,0.0,0.0,0.0,0.0,0.0,0.0,0.0,0.0,1.8721,2.0208,2.2961,2.4545,2.4821,2.4844,2.4704,2.4382,2.3004,2.1177,1.8958,1.7494,1.5658,0.0,0.0,0.0,0.0,0.0,0.0,0.0,0.0,0.0,0.0,0.0,0.0,0.0,0.0,0.0,0.0,0.0,0.0,0.0,0.0,0.0,0.0,0.0,1.5323,0.0,0.0,0.0,0.0,0.0,0.0,0.0,0.0,0.0,3.059,2.9843,2.9359,3.0472,3.1328,3.2069,3.2623,0.0,0.0,0.0,0.0,0.0,0.0,0.0,3.3402,3.2851,3.3038,3.3352,3.3616,3.4347,3.5162,3.596,0.0,0.0,3.119,3.0824,3.0923,3.0411,3.1178,3.1943,3.1943,3.2798,3.3654,0.0,0.0,0.0,0.0,1.955,0.0,0.0,0.0,2.082,2.039,0.0,1.9587,0.0,0.0,0.0,0.0,1.8312,1.9928,0.0,0.0,2.5372,2.6144,2.4686,2.5402,2.5318,2.4458,2.3734,2.3319,2.3021,1.9874,0.0,0.0,0.0,0.0,0.0,0.0,1.9388,2.1839,2.3625,2.4914,2.5707,2.5719,2.5273,2.443,2.3585,2.2332,2.0654,1.9738,1.8489,1.6844,1.5116,0.0,0.0,0.0,0.0,0.0,0.0,0.0,0.0,0.0,0.0,0.0,0.0,0.0,0.0,0.0,0.0,0.0,0.0,0.0,0.0,1.6602,0.0,0.0,0.0,0.0,0.0,0.0,0.0,0.0,0.0,0.0,3.2418,3.2079,3.1583,3.1564,0.0,0.0,0.0,0.0,3.4071,3.4094,3.4774,3.4908,3.3804,3.4626,3.5392,3.5404,0.0,0.0,3.7743,3.7241,3.6988,3.7748,3.7886,3.7,3.4266,3.4507,3.5133,3.5175,3.5218,3.5313,3.5317,3.5406,3.5718,2.5738,0.0,0.0,0.0,0.0,2.3879,2.4555,2.5106,2.5104,2.4966,2.4689,2.4064,0.0,0.0,0.0,0.0,0.0,0.0,2.4032,2.5497,2.7123,2.7915,2.8067,2.8865,2.8779,2.7943,2.7715,2.7275,2.6584,2.4473,2.1615,1.8165,0.0,0.0,0.0,0.0,2.2306,2.3662,2.5374,2.6375,2.6625,2.6024,2.5271,2.443,2.4163,2.3499,2.2389,2.1512,2.0242,1.8543,1.7424,0.0,0.0,0.0,0.0,0.0,0.0,0.0,0.0,0.0,0.0,0.0,0.0,0.0,0.0,0.0,0.0,0.0,0.0,0.0,1.7696,1.6611,1.7064,0.0,0.0,0.0,0.0,0.0,0.0,0.0,0.0,0.0,3.4408,3.4051,3.3632,0.0,0.0,3.4629,3.461,3.5339,3.5872,3.5921,3.6608,0.0,3.612,3.6645,3.729,3.7713,3.8212,3.8591,3.8733,3.918,3.9573,3.9709,3.981,3.9511,3.8574,3.7585,3.7271,3.7589,3.7855,3.8023,3.8124,3.8515,3.9006,3.0264,2.7885,2.7225,2.6948,2.6996,2.7482,2.7997,2.8445,2.8464,2.8443,2.8379,2.7876,2.6919,2.5608,2.5274,0.0,0.0,0.0,2.6427,2.7442,2.8288,2.8765,2.901,2.9792,2.9902,2.9398,2.9392,2.9477,2.9619,2.7964,2.5844,2.3221,0.0,2.0204,2.0098,2.2393,2.4172,2.5394,2.6755,2.7465,2.7465,2.6627,2.5779,2.496,2.4924,2.451,2.3635,2.3109,2.2172,2.0806,1.9573,1.799,0.0,0.0,0.0,0.0,0.0,0.0,0.0,0.0,0.0,0.0,0.0,1.3739,1.3583,0.0,0.0,0.0,1.6687,1.9877,2.0412,1.9667,0.0,0.0,0.0,0.0,0.0,0.0,0.0,2.7334,2.9861,3.3003,3.6365,3.6108,3.5524,3.5492,3.5454,3.5457,3.5473,0.0,3.668,3.6778,3.7465,3.806,3.8306,3.8442,3.8784,3.9489,3.9763,3.9859,3.9824,4.0327,4.0693,4.0672,4.0956,4.1058,4.055,3.9954,3.9811,4.0404,4.0381,4.0372,4.0791,4.1245,4.1609,3.3706,3.3576,3.2055,3.1242,3.0997,3.0989,3.1003,3.1,3.0981,3.0955,3.092,3.0974,3.0559,2.9754,2.8957,0.0,2.861,2.8689,2.8682,2.8635,2.9412,2.9397,2.8667,2.9387,2.9717,2.9737,2.9573,3.033,3.1739,3.0305,2.9512,2.9271,2.4722,2.2729,2.3407,2.4208,2.5398,2.6959,2.7865,2.8259,2.8185,2.735,2.6543,2.582,2.5738,2.5295,2.4471,2.4394,2.3966,2.2992,2.1465,2.0587,2.0381,0.0,0.0,0.0,0.0,0.0,0.0,0.0,0.0,0.0,0.0,0.0,0.0,0.0,0.0,0.0,1.9348,0.0,2.3152,2.4578,0.0,0.0,0.0,3.0804,3.1,3.2425,3.2699,3.0842,0.0,0.0,3.834,3.8155,3.7269,3.6009,3.5761,3.5742,3.5803,3.6535,3.6981,3.7203,3.7823,3.8761,3.9685,3.9756,3.9857,4.0556,4.0795,4.0757,4.0745,4.0928,4.0941,4.0971,4.1578,4.1968,4.114,4.1784,4.2654,4.3398,4.282,4.2413,4.2959,4.3122,4.3142,3.7197,3.7148,3.6758,3.5101,3.2733,3.271,3.2717,3.2693,3.2713,3.2692,3.2686,3.2711,3.2593,3.2389,3.2195,3.2082,3.2105,3.2707,3.2669,3.2158,3.2918,3.3186,3.2965,3.2574,3.2361,3.2285,3.1029,3.0603,3.0983,3.0625,3.0063,2.9374,2.8175,2.7036,2.6075,2.6846,2.7455,2.7888,2.87,2.8824,2.8203,2.7401,2.6862,2.6621,2.6031,2.5291,2.4455,2.4413,2.3694,2.2194,2.1723,2.1197,2.0519,1.7703,0.0,0.0,0.0,0.0,0.0,0.0,0.0,0.0,0.0,1.7147,1.8017,0.0,2.0618,0.0,2.4003,2.8013,2.6047,2.6805,0.0,0.0,3.2253,3.3146,3.4411,3.4888,3.495,3.4533,3.571,3.7574,4.0179,3.9596,3.869,3.7992,3.7737,3.7629,3.7685,3.8386,3.8911,3.8965,3.9464,3.9771,3.9102,3.9929,4.0713,4.0794,4.0886,4.0908,4.0822,4.1487,4.2001,4.2018,4.2688,4.3296,4.3544,4.3209,4.3501,4.5034,4.4658,4.3739,4.351,4.3434,4.3432,3.8257,3.8312,3.8312,3.7238,3.5576,3.5556,3.5564,3.5568,3.5568,3.5352,3.4964,3.4593,3.4398,3.442,3.4398,3.4204,3.3878,3.4288,3.4072,3.3332,3.3759,3.3954,3.3955,3.3509,3.3487,3.38,3.2848,3.2401,3.2382,3.2013,3.1411,3.0551,3.0553,3.009,2.9206,2.8894,2.8919,2.9304,2.9359,2.9015,2.8172,2.7745,2.7332,2.6906,2.6465,2.5833,2.5005,2.4977,2.4542,2.3601,2.3151,2.2564,2.1648,1.9228,1.7006,0.0,0.0,0.0,0.0,0.0,0.0,0.0,0.0,0.0,0.0,0.0,2.634,2.5173,2.9212,3.1432,3.0348,3.0649,3.2054,3.4704,3.5355,3.6135,3.7429,3.7545,3.7687,3.811,3.8242,3.8998,4.0812,4.0542,4.0054,3.9762,3.9615,3.9273,3.8604,3.8827,3.9082,3.9177,3.927,3.931,3.8773,4.0082,4.1056,4.1006,4.1323,4.1588,4.1557,4.2325,4.2955,4.2974,4.3671,4.4328,4.4542,4.4562,4.4855,4.573,4.5749,4.518,4.4809,4.4713,4.4737,3.8392,3.8526,3.8546,3.8599,3.8717,3.8715,3.8598,3.8387,3.8387,3.7977,3.7236,3.6477,3.6125,3.6144,3.6263,3.576,3.4849,3.4968,3.4499,3.3643,3.3621,3.3682,3.3779,3.3662,3.4051,3.481,3.4618,3.448,3.448,3.38,3.2961,3.2046,3.2124,3.2068,3.1774,3.0436,3.0108,3.083,3.001,2.9193,2.8453,2.8267,2.7838,2.7096,2.6851,2.6366,2.5573,2.5524,2.5473,2.5346,2.4635,2.3891,2.3109,2.0832,1.9369,0.0,1.7862,0.0,0.0,0.0,0.0,0.0,0.0,0.0,0.0,2.6922,3.0607,3.4117,3.4207,3.4223,3.4643,3.4883,3.5683,3.7346,3.8208,3.897,3.967,3.9894,4.0171,4.0719,4.0268,4.0366,4.1343,4.1421,4.144,4.1441,4.1419,4.0967,3.9641,3.9128,3.9001,3.8901,3.8473,3.8989,3.9949,4.0891,4.1537,4.1557,4.208,4.2552,4.2568,4.3273,4.3879,4.3937,4.458,4.5069,4.4855,4.5636,4.6203,4.6281,4.6239,4.6199,4.616,4.612,4.6301,4.0185,4.031,4.0313,4.0366,4.0441,4.0422,3.9667,3.8387,3.8387,3.8307,3.8151,3.7977,3.7918,3.7977,3.8652,3.8108,3.6656,3.7335,3.6828,3.5329,3.5311,3.57,3.6323,3.5641,3.5777,3.6479,3.5181,3.448,3.448,3.4346,3.3487,3.2048,3.2708,3.2343,3.1042,0.0,0.0,0.0,3.0906,3.0381,3.0169,2.8884,2.8105,2.7925,2.6625,0.0,2.4703,2.4637,2.4298,2.363,2.3426,0.0,0.0,0.0,0.0,0.0,0.0,0.0,0.0,0.0,0.0,0.0,2.7467,2.7294,2.6322,2.8738,3.1831,3.5297,3.678,3.7029,3.5837,3.6955,3.8152,3.9172,3.9455,3.9638,3.9816,4.0424,4.0425,3.9235,4.1284,4.2943,4.3138,4.3217,4.3178,4.3099,4.3197,4.3099,4.2709,4.1415,4.0634,4.0601,4.0406,4.1011,4.263,4.3021,4.3178,4.3256,4.3314,4.3451,4.3528,4.4172,4.4738,4.4777,4.546,4.6008,4.5949,4.6184,4.6301,4.6301,4.6301,4.6301,4.6301,4.6301,4.6301,4.1743,4.1831,4.1831,4.1947,0.0,4.2081,4.1392,4.0232,3.9822,3.9412,3.9004,3.8598,3.8387,3.8425,3.887,3.8576,3.7763,3.819,3.7918,3.7061,3.6632,3.669,3.7081,3.6203,3.6263,3.7061,3.6228,3.5801,3.5762,3.5352,3.4495,3.3252,3.3682,3.3256,3.2052,3.2807,3.2825,3.2009,3.1563,3.1137,3.0674,2.9464,2.8617,2.8186,2.739,0.0,0.0,0.0,0.0,0.0,0.0,0.0,0.0,0.0,0.0,2.6404,2.5175,2.5292,2.7359,2.7554,2.812,2.9388,3.1071,3.1394,2.9777,3.1125,3.3623,3.7303,3.8965,3.9451,3.864,3.8921,3.9493,4.0295,4.0048,4.0112,4.0951,4.1479,4.1596,4.1363,4.2611,4.3978,4.4856,4.4154,4.3744,4.3705,4.3705,4.3724,4.3626,4.2963,4.2319,4.1967,4.1401,4.185,4.3743,4.468,4.4602,4.4017,4.4056,4.4309,4.4348,4.5051,4.5656,4.5675,4.6027,4.6301,4.6301,4.6301,4.6301,4.6301,4.6301,4.6301,4.6301,4.6301,4.6301,4.2795,4.2871,4.2915,4.3085,4.3305,4.3327,4.2995,4.2347,4.1354,0.0,0.0,3.9159,3.8831,3.8831,3.8831,3.8773,3.862,3.8637,3.8542,3.8367,3.7666,3.7411,3.7508,3.6671,3.671,3.7508,3.7236,3.7178,3.7277,3.6455,3.5663,3.5004,3.481,3.4245,3.341,3.3955,3.3623,3.232,3.2376,3.2029,3.1178,3.0302,2.9556,2.8885,2.8567,2.8083,2.7412,2.8055,2.8436,2.8437,2.8623,2.8102,2.6732,2.7275,2.7861,2.8254,2.8445,2.903,3.0104,3.0863,3.1546,3.2135,3.417,3.4926,3.3787,3.4076,3.5804,3.9396,4.0557,4.1102,4.1103,4.0308,4.0216,4.1193,4.0693,4.0912,4.2376,4.2786,4.3079,4.3626,4.3939,4.4661,4.5969,4.5071,4.4154,4.4173,4.431,4.4154,4.4114,4.3861,4.3451,4.3118,4.2396,4.2416,4.4387,4.5578,4.5676,4.4563,4.4816,4.5207,4.5324,4.5813,4.6242,4.6223,4.6301,4.6301,4.6301,4.6301,4.6301,4.6301,4.6301,4.6359,4.6495,4.6534,4.6574,4.2676,4.2737,4.2971,4.3143,4.3311,4.3416,4.3398,4.3178,4.1607,4.0827,4.0713,4.0616,4.0558,4.0558,4.056,4.0167,3.9545,3.9526,3.912,3.8406,3.8268,3.8598,3.9254,3.8441,3.8499,3.9176,3.7819,3.7489,3.8054,3.7333,3.6848,3.6634,3.5993,3.4845,3.3429,3.341,3.3371,3.3138,3.3819,3.374,3.2943,3.2068,3.1591,3.1419,2.9995,2.9217,2.9142,2.9268,2.9316,2.9334,3.0039,3.031,3.0098,3.0152,3.0713,3.1589,3.0302,3.042,3.2666,3.2962,3.4332,3.7164,3.7848,3.814,3.8388,3.8099,3.8705,4.0658,4.0971,4.1108,4.1046,4.0363,4.052,4.1945,4.2102,4.2454,4.3431,4.4133,4.4347,4.3919,4.5051,4.591,4.6145,4.6008,4.5774,4.5871,4.5657,4.5832,4.5559,4.4641,4.4016,4.4171,4.3782,4.4173,4.552,4.6125,4.6125,4.6008,4.593,4.6008,4.6008,4.6164,4.6301,4.6301,4.6301,4.6301,4.6301,4.6301,4.634,4.6359,4.6398,4.6593,4.7236,4.7431,4.747,4.388,4.3907,4.4034,4.4192,4.4366,4.4189,4.4126,4.4071,4.2867,4.2032,4.1609,4.1609,4.1357,4.0907,4.0888,4.0713,4.0342,4.0342,4.013,3.9744,3.9317,3.9315,3.9584,3.8812,3.8851,3.9584,3.8423,3.8268,3.8928,3.7758,3.7335,3.7705,3.6945,3.5874,3.4748,3.4651,3.442,3.3954,3.3897,3.3662,3.3291,3.2456,3.2013,3.1981,3.1193,3.0813,3.0847,3.1317,3.1564,3.1568,3.1527,3.1287,3.0838,3.0796,3.1025,3.1558,3.2085,3.3081,3.4701,3.5699,3.6677,3.781,3.8337,3.9118,4.0229,4.0094,3.9918,3.9821,4.0542,4.1108,4.1128,4.1166,4.1537,4.2298,4.2806,4.345,4.4231,4.4718,4.5031,4.5129,4.5793,4.6281,4.6301,4.6301,4.6301,4.6301,4.6301,4.6301,4.6301,4.5657,4.5169,4.5441,4.5304,4.5421,4.6164,4.6301,4.6301,4.6301,4.6301,4.6301,4.6301,4.6301,4.6301,4.6301,4.6301,4.6301,4.6301,4.6301,4.6476,4.6944,4.7002,4.7333,4.8017,4.8602,4.8778,4.4846,4.4852,4.4912,4.5085,4.5275,4.494,4.4899,4.4918,4.4322,4.3583,4.2833,4.258,4.1995,4.1238,4.1199,4.1085,4.0927,4.0888,4.0888,4.083,4.0266,3.997,3.9876,3.9084,3.9043,3.9545,3.8812,3.8751,3.9179,3.8033,3.7607,3.8015,3.7627,3.6867,3.5812,3.5989,3.5663,3.4808,3.3975,3.3586,3.3546,3.2728,3.2281,3.2279,3.2085,3.2009,3.205,3.2646,3.3009,3.2985,3.259,3.2053,3.1464,3.1777,3.1892,3.1937,3.3925,3.5662,3.6559,3.7828,3.8395,3.7946,3.8473,3.9391,4.0542,4.0972,4.0581,3.9548,4.0406,4.1168,4.146,4.1966,4.2532,4.2942,4.3567,4.4328,4.5129,4.5285,4.5539,4.6184,4.6301,4.6301,4.6301,4.6301,4.6301,4.6301,4.6301,4.6301,4.6301,4.6301,4.6301,4.6301,4.6301,4.6242,4.6301,4.6301,4.6301,4.6301,4.6301,4.6301,4.6301,4.6301,4.6301,4.6301,4.6301,4.6418,4.6534,4.6612,4.6983,4.7646,4.786,4.8134,4.8934,4.9754,5.0027,4.4725,4.4757,4.4957,4.5177,4.529,4.5404,4.5514,4.5599,4.5695,4.5315,4.4459,4.3724,4.2906,4.2153,4.2075,4.1667,4.0966,4.0907,4.0907,4.0888,4.083,4.0791,4.0694,3.9953,3.9623,3.9623,3.887,3.854,3.8656,3.8367,3.7899,3.7394,3.7916,3.743,3.6088,3.6593,3.6554,3.568,3.4828,3.4383,3.4344,3.3604,3.3198,3.3175,3.2398,3.2009,3.2066,3.2071,3.213,3.217,3.2841,3.3191,3.33,3.4609,3.5134,3.4416,3.6014,3.7438,3.8259,3.8494,3.8864,3.9488,3.9527,3.9605,3.9662,4.0503,4.1069,4.0855,4.0952,4.1401,4.2162,4.2395,4.3078,4.4386,4.4758,4.5226,4.593,4.6184,4.6223,4.6262,4.6301,4.6301,4.6301,4.6301,4.6301,4.6301,4.6301,4.6301,4.6301,4.6301,4.6301,4.6301,4.6301,4.6301,4.6301,4.6301,4.6301,4.6301,4.6301,4.6301,4.6301,4.6301,4.6301,4.6301,4.6301,4.6515,4.7138,4.7508,4.7704,4.8466,4.8797,4.8993,4.9832,5.0593,5.077,4.4578,4.4592,4.4693,4.4862,4.5069,4.5231,4.5444,4.5654,4.574,4.5628,4.5459,4.511,4.4233,4.2983,4.2966,4.2481,4.1706,4.1667,4.1376,4.0927,4.0888,4.0888,4.0869,4.0577,4.0419,4.0342,3.9567,3.9179,3.9082,3.8656,3.7959,3.7275,3.7977,3.7782,3.671,3.743,3.7452,3.6595,3.6207,3.6053,3.582,3.4245,3.3526,3.3878,3.3196,3.2767,3.2767,3.2767,3.2997,3.3438,3.3831,3.4278,3.4846,3.5553,3.5788,3.5507,3.6589,3.7888,3.9214,3.8864,3.8747,3.9078,3.9098,3.9235,3.9584,3.9644,3.9977,4.0934,4.1108,4.146,4.2298,4.2845,4.3684,4.4815,4.546,4.593,4.6242,4.6301,4.6301,4.6301,4.6301,4.6301,4.6301,4.6301,4.6301,4.6301,4.6301,4.6301,4.6301,4.6301,4.6301,4.6301,4.6301,4.6301,4.6301,4.6301,4.6301,4.6301,4.6301,4.6301,4.6301,4.6301,4.6301,4.632,4.6359,4.669,4.7411,4.7684,4.7938,4.9012,5.0105,5.0457,5.0808,5.114,5.1159,4.4489,4.4489,4.4489,4.4601,4.4808,4.4956,4.5195,4.549,4.5567,4.5706,4.5886,4.5955,4.5312,4.4242,4.3966,4.3372,4.2597,4.2308,4.1864,4.1257,4.1024,4.0888,4.0888,4.0888,4.0888,4.081,4.0305,3.9893,3.9623,3.8812,3.7957,3.7355,3.7957,3.7977,3.7294,3.7957,3.8095,3.7489,3.7236,3.712,3.6789,3.4828,3.4014,3.4711,3.4303,3.3971,3.3992,3.3973,3.4245,3.483,3.4855,3.5188,3.5841,3.6349,3.6737,3.6972,3.7391,3.8277,3.9702,3.9039,3.8689,3.8884,3.8922,3.9156,3.9605,3.9469,3.984,4.0894,4.1519,4.2162,4.2689,4.3548,4.4406,4.5246,4.5969,4.6281,4.6301,4.6301,4.6301,4.6301,4.6301,4.6301,4.6301,4.6301,4.6301,4.6301,4.6301,4.6301,4.6301,4.6301,4.6301,4.6301,4.6301,4.6301,4.6301,4.6301,4.6301,4.6301,4.6301,4.6301,4.6301,4.6301,4.6554,4.6729,4.6632,4.7178,4.8328,4.8562,4.8661,4.9988,5.0905,5.1297,5.1277,5.1394,5.1394,4.4489,4.4489,4.4489,4.4522,4.4519,4.4733,4.4969,4.5236,4.5462,4.5696,4.5883,4.5908,4.5853,4.5649,4.4999,4.4268,4.3411,4.2656,4.225,4.2,4.1318,4.0927,4.0888,4.0888,4.0888,4.0888,4.081,4.0381,3.9681,3.887,3.7938,3.7217,3.7996,3.7957,3.7333,3.7977,3.8367,3.8093,3.7528,3.7159,3.6964,3.5412,3.4983,3.5717,3.5639,3.5503,3.5603,3.5661,3.5661,3.5738,3.5736,3.5834,3.6045,3.7438,3.8612,3.9262,3.8866,3.8864,3.9507,3.9039,3.8903,3.9566,3.9644,3.976,3.9937,4.0425,4.0855,4.1108,4.2495,4.3451,4.3665,4.4309,4.5168,4.6008,4.6223,4.6301,4.6301,4.6301,4.6301,4.6301,4.6301,4.6301,4.6301,4.6301,4.6301,4.6301,4.6301,4.6301,4.6301,4.6301,4.6301,4.6301,4.6301,4.6301,4.6301,4.6301,4.6301,4.6301,4.6301,4.6359,4.632,4.6379,4.6827,4.7237,4.7431,4.8114,4.9401,5.0085,5.0281,5.0886,5.112,5.1394,5.1394,5.1394,5.1394,4.4489,4.4489,4.4489,4.4489,4.4503,4.4587,4.472,4.4983,4.5239,4.5473,4.5661,4.5808,4.5896,4.5899,4.5632,4.5057,4.4281,4.3988,4.326,4.2272,4.1862,4.1454,4.0927,4.0888,4.0888,4.0888,4.0888,4.0499,3.9759,3.9351,3.879,3.8093,3.8229,3.7957,3.7394,3.7957,3.8151,3.7646,3.7761,3.7918,3.786,3.7316,3.7161,3.7335,3.5818,3.5236,3.5773,3.5272,3.5214,3.5777,3.583,3.6091,3.6706,3.7821,3.8631,3.8904,3.8738,3.8728,3.8961,3.8767,3.8942,3.9683,3.9799,4.0073,4.0562,4.0913,4.1108,4.1401,4.267,4.3763,4.4269,4.4718,4.5363,4.6105,4.6301,4.6301,4.6301,4.6301,4.6301,4.6301,4.6301,4.6301,4.6301,4.6301,4.6301,4.6301,4.6301,4.6301,4.6301,4.6301,4.6301,4.6301,4.6301,4.6301,4.6301,4.6301,4.6301,4.6301,4.634,4.671,4.6827,4.7061,4.749,4.8134,4.8368,4.8778,4.9967,5.0632,5.0983,5.114,5.1394,5.1394,5.1394,5.1394,5.1394,4.4489,4.4489,4.4489,4.4489,4.4496,4.4554,4.4714,4.4956,4.5173,4.5409,4.561,4.5789,4.5864,4.5867,4.5896,4.5631,4.5073,4.4869,4.4128,4.3051,4.2721,4.2124,4.1432,4.1315,4.116,4.0927,4.0888,4.0614,4.0167,4.0092,3.9625,3.8851,3.881,3.8382,3.7782,3.8134,3.8074,3.7705,3.7841,3.7977,3.7938,3.7683,3.7724,3.7705,3.6248,3.5743,3.6595,3.6073,3.6015,3.6539,3.6641,3.7009,3.7797,3.825,3.8591,3.8748,3.866,3.8728,3.8942,3.8982,3.9352,4.0132,4.0229,4.0503,4.105,4.1108,4.1108,4.1518,4.3275,4.466,4.4679,4.509,4.5656,4.6184,4.6301,4.6301,4.6301,4.6301,4.6301,4.6301,4.6301,4.6301,4.6301,4.6301,4.6301,4.6301,4.6301,4.6301,4.6301,4.6301,4.6301,4.6301,4.6301,4.6301,4.6301,4.6301,4.632,4.634,4.6768,4.7119,4.7529,4.7802,4.827,4.8934,4.9402,4.9734,5.0261,5.0964,5.1258,5.1375,5.1394,5.1394,5.1394,5.1394,5.1394,4.4489,4.4489,4.4489,4.4489,4.4524,4.4688,4.4925,4.5145,4.5385,4.5558,4.5719,4.58,4.581,4.5814,4.5844,4.5861,4.5674,4.5118,4.4721,4.4397,4.3757,4.2997,4.2206,4.2206,4.1743,4.1063,4.0927,4.0888,4.0791,4.0752,4.04,3.982,3.9701,3.9256,3.8423,3.8482,3.8464,3.8192,3.7705,3.7294,3.7042,3.6613,3.6653,3.7197,3.7064,3.7374,3.821,3.8154,3.7957,3.8104,3.8146,3.8643,3.8874,3.8728,3.8768,3.9149,3.8925,3.9061,3.9626,3.9781,4.0171,4.0777,4.103,4.0991,4.1069,4.1108,4.1187,4.1851,4.4076,4.5813,4.5071,4.5579,4.6204,4.6301,4.6301,4.6301,4.6301,4.6301,4.6301,4.6301,4.6301,4.6301,4.6301,4.6301,4.6301,4.6301,4.6301,4.6301,4.6301,4.6301,4.6301,4.6301,4.6301,4.6301,4.6301,4.6301,4.634,4.6475,4.708,4.7586,4.8153,4.8544,4.9188,4.9812,5.0086,5.0417,5.071,5.1297,5.1316,5.1394,5.1394,5.1394,5.1394,5.1394,5.1394,4.4489,4.4489,4.4489,4.4489,4.4524,4.472,4.4849,4.496,4.5323,4.5528,4.5614,4.5737,4.5803,4.5807,4.5817,4.584,4.5805,4.5547,4.5189,4.4729,4.4424,4.3837,4.3144,4.3014,4.2577,4.1798,4.1182,4.0888,4.0888,4.0888,4.0733,4.0558,4.0519,4.0092,3.9351,3.9293,3.9043,3.8406,3.8132,3.7996,3.7977,3.7724,3.7724,3.7957,3.7996,3.8154,3.8367,3.7841,3.7528,3.7549,3.7498,3.7699,3.8094,3.8355,3.871,3.9238,3.9413,3.949,3.9801,4.0338,4.0777,4.105,4.1108,4.1108,4.1108,4.1108,4.1636,4.2749,4.4974,4.6089,4.5922,4.6038,4.6288,4.6301,4.6301,4.6302,4.6302,4.6302,4.6301,4.6301,4.6301,4.6301,4.6321,4.6341,4.6302,4.6361,4.6321,4.6302,4.6302,4.6302,4.6301,4.6301,4.6301,4.6379,4.6515,4.671,4.6885,4.7159,4.7704,4.825,4.8797,4.9402,5.0066,5.0476,5.0749,5.0983,5.1277,5.1394,5.1394,5.1394,5.1394,5.1394,5.1394,5.1394,5.1394,4.4489,4.4489,4.4489,4.4489,4.4524,4.4714,4.4855,4.4988,4.5352,4.5533,4.5649,4.5741,4.5803,4.5803,4.5803,4.5803,4.5803,4.5803,4.5557,4.5167,4.5147,4.4681,4.3912,4.3516,4.2989,4.2255,4.1643,4.1199,4.0888,4.0888,4.0888,4.0888,4.0888,4.0655,4.0186,4.0128,3.982,3.9353,3.9045,3.8887,3.8812,3.8559,3.8387,3.8387,3.8387,3.8387,3.8348,3.7862,3.7588,3.7569,3.7588,3.7701,3.793,3.853,3.9179,3.9776,4.0104,4.0252,4.0332,4.0778,4.1099,4.1112,4.1111,4.1289,4.1424,4.1385,4.193,4.3847,4.5392,4.6295,4.6282,4.63,4.6295,4.6291,4.6291,4.6291,4.6291,4.6288,4.6289,4.6291,4.6293,4.6585,4.7053,4.6525,4.6525,4.6622,4.6485,4.6288,4.6287,4.6306,4.6324,4.6341,4.6301,4.6476,4.6788,4.71,4.7431,4.7899,4.8427,4.8953,4.95,5.0164,5.0827,5.0945,5.118,5.1159,5.1394,5.1394,5.1394,5.1394,5.1394,5.1394,5.1394,5.1394,5.1394,4.4538,4.4489,4.4489,4.4489,4.4524,4.4714,4.4908,4.5156,4.5376,4.5573,4.5726,4.5764,4.5789,4.58,4.5803,4.5803,4.5803,4.5803,4.5787,4.5743,4.5725,4.5386,4.4736,4.3987,4.3283,4.2654,4.2349,4.1835,4.1155,4.1119,4.0927,4.0927,4.0888,4.0888,4.0771,4.0869,4.0771,4.0558,4.007,3.9778,3.972,3.9062,3.8659,3.8695,3.8712,3.8751,3.8773,3.871,3.8576,3.8479,3.8458,3.8523,3.8717,3.9339,4.0092,4.071,4.0921,4.0934,4.1032,4.1014,4.1074,4.1083,4.124,4.1491,4.2076,4.1917,4.2366,4.4286,4.5598,4.6303,4.6305,4.6304,4.6302,4.6302,4.6301,4.6301,4.6301,4.6298,4.6297,4.632,4.6401,4.6969,4.8392,4.7415,4.7199,4.7316,4.7101,4.6884,4.6783,4.6879,4.6544,4.6521,4.6655,4.6827,4.7236,4.7978,4.833,4.8758,4.9207,4.9598,5.0105,5.0749,5.116,5.1316,5.1394,5.1394,5.1394,5.1394,5.1394,5.1394,5.1394,5.1394,5.1394,5.1394,5.1394,4.5033,4.4519,4.4489,4.4489,4.453,4.472,4.4831,4.495,4.5177,4.5399,4.5541,4.5566,4.5673,4.5777,4.5803,4.5803,4.5803,4.5803,4.5803,4.5807,4.5814,4.578,4.5444,4.4758,4.4227,4.3923,4.3327,4.2664,4.189,4.1869,4.1548,4.0907,4.0961,4.0924,4.0888,4.0905,4.0888,4.0888,4.0713,4.0555,4.0517,4.0342,4.0249,4.0247,4.0189,4.017,4.0223,4.0245,3.9908,3.9326,3.9287,3.9607,4.0087,4.0361,4.0558,4.0769,4.0882,4.093,4.0938,4.0952,4.0961,4.1093,4.1601,4.2109,4.2356,4.2804,4.3489,4.4644,4.5623,4.6289,4.6289,4.6288,4.6287,4.6288,4.6305,4.6302,4.6302,4.6303,4.6303,4.6361,4.6988,4.7947,4.8573,4.8532,4.8197,4.8393,4.8275,4.804,4.7863,4.7882,4.7723,4.7443,4.7458,4.7512,4.7841,4.8662,4.9267,4.9656,4.9988,5.0203,5.0671,5.116,5.1336,5.1394,5.1394,5.1394,5.1394,5.1394,5.1394,5.1394,5.1394,5.1394,5.1394,5.1394,5.1394,4.5221,4.4508,4.4489,4.4489,4.451,4.4628,4.472,4.485,4.5085,4.5304,4.5476,4.5602,4.5681,4.58,4.5803,4.5803,4.5803,4.5803,4.5803,4.5803,4.5807,4.5817,4.5725,4.5344,4.5031,4.4627,4.4169,4.3505,4.2829,4.2712,4.2232,4.1589,4.1395,4.1223,4.0851,4.0856,4.0876,4.0856,4.0856,4.0856,4.0856,4.0856,4.0835,4.0854,4.0858,4.0858,4.0849,4.0839,4.0579,4.0193,4.0116,4.0354,4.0752,4.0828,4.0796,4.0801,4.0837,4.0874,4.0898,4.0904,4.1106,4.1472,4.2045,4.2663,4.3241,4.3711,4.4022,4.5292,4.5957,4.623,4.6289,4.6289,4.6289,4.6289,4.6288,4.6308,4.6308,4.6659,4.662,4.6758,4.7499,4.8828,4.9726,4.9355,4.9199,4.9236,4.9021,4.8864,4.8746,4.8902,4.8842,4.8447,4.8345,4.8461,4.8691,4.9393,4.9978,5.0386,5.0556,5.079,5.1005,5.1395,5.1394,5.1394,5.1394,5.1394,5.1394,5.1394,5.1394,5.1394,5.1394,5.1394,5.1394,5.1394,5.1394,4.5352,4.462,4.4519,4.4489,4.4489,4.4496,4.4601,4.4782,4.5024,4.5254,4.5454,4.5665,4.5741,4.5803,4.5803,4.5803,4.5803,4.5803,4.5803,4.5803,4.5803,4.5807,4.5814,4.576,4.5425,4.4922,4.4818,4.4307,4.3728,4.3534,4.3053,4.2441,4.2225,4.1854,4.1455,4.1144,4.0945,4.1028,4.0876,4.0818,4.0818,4.0818,4.0818,4.0818,4.0818,4.0804,4.0804,4.0801,4.0762,4.0779,4.0801,4.0762,4.0801,4.0798,4.0795,4.0802,4.082,4.0863,4.1027,4.1138,4.1453,4.2169,4.2464,4.3072,4.4249,4.441,4.4785,4.5956,4.6269,4.6289,4.6289,4.6289,4.6289,4.6348,4.6367,4.6445,4.6582,4.7148,4.7324,4.6816,4.8105,4.9648,5.043,5.0293,4.9492,5.0176,4.9961,4.9843,4.9764,4.9803,4.9587,4.9155,4.9232,4.9446,4.9736,5.0124,5.0611,5.1039,5.1071,5.1185,5.1184,5.1398,5.1395,5.1394,5.1394,5.1394,5.1394,5.1394,5.1394,5.1394,5.1394,5.1394,5.1394,5.1394,5.1394,4.6223,4.5397,4.4763,4.4489,4.4489,4.4489,4.4524,4.4575,4.4814,4.5055,4.5274,4.5476,4.5677,4.5803,4.5803,4.5803,4.5803,4.5803,4.5803,4.5803,4.5803,4.5803,4.5807,4.5817,4.572,4.5514,4.5583,4.517,4.455,4.4314,4.398,4.3238,4.3096,4.3008,4.2714,4.2055,4.1812,4.1696,4.1211,4.0959,4.0956,4.0898,4.0859,4.0823,4.0804,4.082,4.0811,4.0797,4.0797,4.0808,4.0875,4.0994,4.0846,4.084,4.0928,4.0999,4.0941,4.114,4.1625,4.1823,4.218,4.3049,4.3653,4.4344,4.4718,4.5394,4.5736,4.6242,4.6269,4.6289,4.6289,4.6289,4.6348,4.6484,4.6894,4.7305,4.7383,4.7539,4.7871,4.8359,4.918,5.0293,5.125,5.1152,5.084,5.1055,5.0957,5.084,5.0742,5.0644,5.0331,4.992,5.0134,5.031,5.0289,5.058,5.0931,5.126,5.1333,5.1386,5.1385,5.14,5.1398,5.1396,5.1394,5.1394,5.1394,5.1394,5.1394,5.1394,5.1394,5.1394,5.1394,5.1394,5.1394,4.6824,4.5679,4.5221,4.4845,4.4526,4.4489,4.4489,4.4578,4.4856,4.5063,4.5258,4.5494,4.5708,4.5803,4.5803,4.5803,4.5803,4.5803,4.5803,4.5803,4.5803,4.5803,4.5803,4.5803,4.5803,4.5807,4.5824,4.5541,4.5276,4.5112,4.4786,4.4031,4.3973,4.366,4.3411,4.2911,4.2695,4.2617,4.2233,4.1965,4.1965,4.1558,4.1113,4.0883,4.0825,4.0943,4.1345,4.1367,4.1599,4.1844,4.1947,4.1544,4.1032,4.118,4.1529,4.1912,4.197,4.2125,4.2531,4.267,4.3008,4.3897,4.4435,4.4874,4.5225,4.5845,4.6043,4.6127,4.6183,4.6211,4.6262,4.6289,4.6406,4.6914,4.7324,4.7891,4.8574,4.8808,4.873,4.9199,4.9941,5.0723,5.125,5.1367,5.1367,5.123,5.123,5.1113,5.1133,5.1055,5.1035,5.0878,5.1074,5.1132,5.0917,5.0994,5.1189,5.1363,5.1359,5.1395,5.1394,5.1389,5.1401,5.1398,5.1394,5.1394,5.1394,5.1394,5.1394,5.1394,5.1394,5.1394,5.1394,5.1394,5.1394,4.7476,4.6183,4.5932,4.5416,4.4852,4.4696,4.46,4.4634,4.5055,4.5232,4.5269,4.5626,4.5789,4.5803,4.5803,4.5803,4.5803,4.5803,4.5803,4.5803,4.5803,4.5803,4.5803,4.5803,4.5803,4.5803,4.5807,4.5749,4.5749,4.5765,4.5353,4.4852,4.4775,4.4533,4.3908,4.3556,4.3505,4.3466,4.3199,4.3063,4.3041,4.2499,4.1922,4.1554,4.1441,4.167,4.209,4.2244,4.2492,4.3243,4.3301,4.2531,4.1816,4.178,4.2686,4.3518,4.334,4.3205,4.3417,4.3553,4.3866,4.469,4.4797,4.5141,4.5719,4.5841,4.5925,4.6037,4.6107,4.6204,4.6325,4.6504,4.6946,4.7558,4.7851,4.8671,4.9726,5.0234,5.0,4.9766,5.043,5.1152,5.1328,5.1387,5.1387,5.1387,5.1387,5.1387,5.1387,5.1387,5.1289,5.1269,5.1348,5.1367,5.1191,5.1133,5.1367,5.1385,5.1402,5.1401,5.1399,5.1395,5.1389,5.1398,5.1394,5.1394,5.1394,5.1394,5.1394,5.1394,5.1394,5.1394,5.1394,5.1394,5.1394,4.8694,4.8332,4.6954,4.6281,4.6046,4.5412,4.4971,4.4856,4.524,4.5343,4.5264,4.5618,4.5803,4.5803,4.5803,4.5803,4.5803,4.5803,4.5803,4.5803,4.5803,4.5803,4.5803,4.5803,4.5803,4.5803,4.5803,4.5803,4.5803,4.5784,4.5668,4.5571,4.5533,4.5339,4.5088,4.4794,4.4365,4.4288,4.3866,4.3595,4.3498,4.3247,4.2953,4.2663,4.2589,4.2802,4.2976,4.3092,4.3166,4.3282,4.3301,4.3185,4.3015,4.3073,4.3846,4.4585,4.4136,4.3846,4.4268,4.4404,4.481,4.5355,4.5513,4.5533,4.5776,4.585,4.5979,4.6184,4.6271,4.6381,4.706,4.717,4.7572,4.8304,4.9039,4.9586,5.0099,5.0586,5.0996,5.0723,5.1133,5.1387,5.1387,5.1387,5.1387,5.1387,5.1387,5.1387,5.1387,5.1387,5.1367,5.1367,5.1387,5.1387,5.1348,5.1328,5.1387,5.1387,5.1386,5.1385,5.1403,5.14,5.1395,5.1385,5.1396,5.1394,5.1394,5.1394,5.1394,5.1394,5.1394,5.1394,5.1394,5.1394,5.1394,4.9377,4.8911,4.8127,4.7281,4.6516,4.6052,4.553,4.508,4.5362,4.5445,4.5459,4.5673,4.5803,4.5803,4.5803,4.5803,4.5803,4.5803,4.5803,4.5803,4.5803,4.5803,4.5803,4.5803,4.5803,4.5803,4.5803,4.5803,4.5803,4.5803,4.5803,4.5803,4.5803,4.5803,4.5745,4.5416,4.522,4.5084,4.4775,4.4546,4.4488,4.4233,4.3824,4.3417,4.3398,4.3537,4.3924,4.3959,4.4191,4.4527,4.4623,4.4581,4.4562,4.4643,4.4894,4.5455,4.501,4.4701,4.5126,4.522,4.5416,4.5687,4.5803,4.5803,4.5803,4.5875,4.6203,4.6971,4.7232,4.7406,4.7882,4.7944,4.8402,4.9095,4.973,5.0137,5.0578,5.103,5.1232,5.1365,5.1387,5.1387,5.1387,5.1387,5.1387,5.1387,5.1387,5.1387,5.1387,5.1387,5.1387,5.1387,5.1387,5.1387,5.1387,5.1387,5.1387,5.1387,5.1386,5.1386,5.1385,5.1383,5.1397,5.1389,5.1403,5.1397,5.1394,5.1394,5.1394,5.1394,5.1394,5.1394,5.1394,5.1394,5.1394,4.9942,4.9356,4.9203,4.8346,4.7206,4.6746,4.6223,4.5629,4.5553,4.5548,4.5539,4.5708,4.5803,4.5803,4.5803,4.5803,4.5803,4.5803,4.5803,4.5803,4.5803,4.5803,4.5803,4.5803,4.5803,4.5803,4.5803,4.5803,4.5803,4.5803,4.5803,4.5803,4.5803,4.5803,4.5765,4.5726,4.5803,4.5803,4.5803,4.5803,4.5629,4.5181,4.4543,4.3882,4.3808,4.4214,4.4755,4.4833,4.5104,4.5474,4.5668,4.5726,4.5784,4.5803,4.5803,4.5803,4.5803,4.5803,4.5784,4.5749,4.5707,4.5803,4.5803,4.5803,4.5803,4.5958,4.6464,4.7985,4.8828,4.8771,4.8799,4.8801,4.9246,4.9846,5.015,5.0352,5.0849,5.1177,5.1208,5.1301,5.134,5.1367,5.1367,5.1387,5.1387,5.1387,5.1387,5.1387,5.1387,5.1387,5.1387,5.1387,5.1387,5.1387,5.1387,5.1387,5.1387,5.1387,5.1387,5.1386,5.1386,5.1385,5.14,5.1393,5.1386,5.1401,5.1398,5.1394,5.1394,5.1394,5.1394,5.1394,5.1394,5.1394,5.1394,5.0713,5.0613,4.9856,4.9441,4.9056,4.772,4.691,4.6537,4.6028,4.5654,4.5528,4.5708,4.5803,4.5803,4.5803,4.5803,4.5803,4.5803,4.5803,4.5803,4.5803,4.5803,4.5803,4.5803,4.5803,4.5803,4.5803,4.5803,4.5803,4.5803,4.5803,4.5803,4.5803,4.5803,4.5803,4.5803,4.5803,4.5803,4.5803,4.5803,4.5784,4.5649,4.5494,4.5416,4.5358,4.5358,4.5494,4.5513,4.5668,4.5726,4.5803,4.5803,4.5803,4.5803,4.5803,4.5803,4.5803,4.5803,4.5803,4.5803,4.5803,4.5803,4.5803,4.5803,4.5803,4.5919,4.6558,4.8237,4.9587,5.0101,4.967,4.9588,5.0018,5.0403,5.0723,5.0817,5.1111,5.1097,5.1155,5.1185,5.1202,5.1275,5.1328,5.1367,5.1387,5.1387,5.1387,5.1387,5.1387,5.1387,5.1387,5.1387,5.1387,5.1387,5.1387,5.1387,5.1387,5.1387,5.1387,5.1387,5.1386,5.1386,5.1384,5.1398,5.1393,5.1384,5.1397,5.1394,5.1394,5.1394,5.1394,5.1394,5.1394,5.1394,5.1394,5.0781,5.0812,5.0466,5.0062,4.9575,4.8844,4.7929,4.704,4.666,4.6193,4.5758,4.5748,4.5803,4.5803,4.5803,4.5803,4.5803,4.5803,4.5803,4.5803,4.5803,4.5803,4.5803,4.5803,4.5803,4.5803,4.5803,4.5803,4.5803,4.5803,4.5803,4.5803,4.5803,4.5803,4.5803,4.5803,4.5803,4.5803,4.5803,4.5803,4.5803,4.5803,4.5803,4.5803,4.5803,4.5803,4.5803,4.5803,4.5803,4.5803,4.5803,4.5803,4.5803,4.5803,4.5803,4.5803,4.5803,4.5803,4.5803,4.5823,4.5823,4.5823,4.5823,4.5803,4.5803,4.5977,4.7099,4.9645,5.0418,5.0631,5.0457,5.0399,5.0554,5.0817,5.0961,5.0972,5.1007,5.1001,5.1011,5.1044,5.1081,5.1137,5.1213,5.1269,5.1308,5.1328,5.1367,5.1387,5.1387,5.1387,5.1387,5.1387,5.1387,5.1387,5.1387,5.1387,5.1387,5.1387,5.1387,5.1387,5.1387,5.1386,5.1385,5.1401,5.1397,5.1389,5.1398,5.1394,5.1394,5.1394,5.1394,5.1394,5.1394,5.1394,5.1394,5.0716,5.077,5.0829,5.0492,4.9918,4.9753,4.8825,4.7502,4.7154,4.6577,4.5977,4.5803,4.5803,4.5803,4.5803,4.5803,4.5803,4.5803,4.5803,4.5803,4.5803,4.5803,4.5803,4.5803,4.5803,4.5803,4.5803,4.5803,4.5803,4.5803,4.5803,4.5803,4.5803,4.5803,4.5803,4.5803,4.5803,4.5803,4.5803,4.5803,4.5803,4.5803,4.5803,4.5803,4.5803,4.5803,4.5803,4.5803,4.5803,4.5803,4.5803,4.5803,4.5803,4.5803,4.5803,4.5803,4.5803,4.5977,4.6016,4.6039,4.5962,4.6113,4.6403,4.6712,4.6616,4.6538,4.7444,5.0492,5.0763,5.0898,5.0898,5.0859,5.0859,5.0859,5.0914,5.0902,5.0906,5.0936,5.0939,5.0967,5.0994,5.0977,5.105,5.1148,5.1211,5.1269,5.1308,5.1384,5.1387,5.1387,5.1387,5.1387,5.1387,5.1387,5.1387,5.1387,5.1387,5.1387,5.1387,5.1387,5.1387,5.1387,5.1386,5.1384,5.1399,5.1391,5.1398,5.1396,5.1394,5.1394,5.1394,5.1394,5.1394,5.1394,5.1394,5.0693,5.0702,5.0711,5.0741,5.0702,4.9938,4.9131,4.8252,4.7482,4.6654,4.5861,4.5803,4.5803,4.5803,4.5803,4.5803,4.5803,4.5803,4.5803,4.5803,4.5803,4.5803,4.5803,4.5803,4.5803,4.5803,4.5803,4.5803,4.5803,4.5803,4.5803,4.5803,4.5803,4.5803,4.5803,4.5803,4.5803,4.5803,4.5803,4.5803,4.5803,4.5803,4.5803,4.5803,4.5803,4.5803,4.5803,4.5803,4.5803,4.5803,4.5803,4.5803,4.5803,4.5803,4.5803,4.5803,4.5803,4.6055,4.6306,4.6287,4.6345,4.696,4.7618,4.7966,4.7753,4.8101,4.9243,5.0593,5.0859,5.0898,5.0898,5.0879,5.0728,5.084,5.0801,5.0767,5.0805,5.0902,5.0921,5.091,5.0914,5.0929,5.0929,5.1047,5.1147,5.1203,5.129,5.1338,5.1365,5.1367,5.1387,5.1387,5.1387,5.1387,5.1387,5.1387,5.1387,5.1387,5.1387,5.1387,5.1387,5.1387,5.1387,5.1384,5.1399,5.1391,5.1401,5.1397,5.1395,5.1394,5.1394,5.1394,5.1394,5.1394,5.1394,5.0688,5.0693,5.0693,5.0735,5.0779,5.0512,4.9922,4.9073,4.8245,4.708,4.5823,4.5803,4.5803,4.5803,4.5803,4.5803,4.5803,4.5803,4.5803,4.5803,4.5803,4.5803,4.5803,4.5803,4.5803,4.5803,4.5803,4.5803,4.5803,4.5803,4.5803,4.5803,4.5803,4.5803,4.5803,4.5803,4.5803,4.5803,4.5803,4.5803,4.5803,4.5803,4.5803,4.5803,4.5803,4.5803,4.5803,4.5803,4.5803,4.5803,4.5803,4.5803,4.5803,4.5803,4.5803,4.5803,4.5803,4.6035,4.6422,4.6519,4.7022,4.7831,4.8624,4.8991,4.8682,4.9243,5.0012,5.0743,5.0801,5.0666,5.0844,5.0476,5.0225,5.0554,5.0612,5.0476,5.0476,5.0515,5.0859,5.0825,5.0863,5.0906,5.0925,5.0943,5.104,5.1139,5.1232,5.1303,5.134,5.1365,5.1367,5.1387,5.1387,5.1387,5.1387,5.1387,5.1387,5.1387,5.1387,5.1387,5.1387,5.1387,5.1387,5.1387,5.14,5.1394,5.1387,5.1399,5.1395,5.1394,5.1394,5.1394,5.1394,5.1394,5.1394,5.0688,5.0688,5.0688,5.0697,5.071,5.0829,5.037,4.9594,4.903,4.7815,4.619,4.5958,4.5803,4.5803,4.5803,4.5803,4.5803,4.5803,4.5803,4.5803,4.5803,4.5803,4.5803,4.5803,4.5803,4.5803,4.5803,4.5803,4.5803,4.5803,4.5803,4.5803,4.5803,4.5803,4.5803,4.5803,4.5803,4.5803,4.5803,4.5803,4.5803,4.5803,4.5803,4.5803,4.5803,4.5803,4.5803,4.5803,4.5803,4.5803,4.5803,4.5803,4.5803,4.5803,4.5803,4.5803,4.5823,4.5884,4.629,4.6712,4.737,4.7792,4.8639,4.901,4.949,5.0167,5.0593,4.9916,5.0051,5.0167,5.0167,4.9606,4.9393,4.9606,4.9509,4.9413,4.961,4.9722,5.0341,5.0747,5.0709,5.0554,5.0906,5.094,5.1011,5.1106,5.1157,5.1266,5.1341,5.1365,5.1367,5.1387,5.1387,5.1387,5.1387,5.1387,5.1387,5.1387,5.1387,5.1387,5.1387,5.1387,5.1387,5.1387,5.1401,5.1397,5.1391,5.1402,5.1397,5.1394,5.1394,5.1394,5.1394,5.1394,5.1394,5.0688,5.0688,5.0688,5.0693,5.0696,5.0775,5.0355,4.9732,4.9467,4.8504,4.6906,4.619,4.5803,4.5803,4.5803,4.5803,4.5803,4.5803,4.5803,4.5803,4.5803,4.5803,4.5803,4.5803,4.5803,4.5803,4.5803,4.5803,4.5803,4.5803,4.5803,4.5803,4.5803,4.5803,4.5803,4.5803,4.5803,4.5803,4.5803,4.5803,4.5803,4.5803,4.5803,4.5803,4.5803,4.5803,4.5803,4.5803,4.5803,4.5803,4.5803,4.5803,4.5803,4.5803,4.5803,4.5803,4.5803,4.6171,4.6867,4.7022,4.7157,4.7502,4.843,4.8949,5.0167,5.0631,4.9916,4.8682,4.8411,4.8527,4.8488,4.8488,4.8546,4.8682,4.8643,4.8778,4.901,4.9339,4.9993,5.0264,5.009,5.0035,5.0573,5.0921,5.1021,5.1086,5.1111,5.1189,5.1301,5.1342,5.134,5.1387,5.1387,5.1387,5.1387,5.1387,5.1387,5.1387,5.1387,5.1387,5.1387,5.1387,5.1387,5.1387,5.1383,5.14,5.1393,5.1402,5.1398,5.1394,5.1394,5.1394,5.1394,5.1394,5.1394,5.0688,5.0688,5.0688,5.0697,5.0702,5.0725,5.054,5.0162,4.9245,4.8137,4.7096,4.619,4.5803,4.5803,4.5803,4.5803,4.5803,4.5803,4.5803,4.5803,4.5803,4.5803,4.5803,4.5803,4.5803,4.5803,4.5803,4.5803,4.5803,4.5803,4.5803,4.5803,4.5803,4.5803,4.5803,4.5803,4.5803,4.5803,4.5803,4.5803,4.5803,4.5803,4.5803,4.5803,4.5803,4.5803,4.5803,4.5803,4.5803,4.5803,4.5803,4.5803,4.5803,4.5803,4.5803,4.5803,4.5803,4.59,4.619,4.6306,4.6848,4.7502,4.8063,4.8508,4.9181,4.9239,4.8275,4.727,4.6964,4.7312,4.8105,4.7753,4.7773,4.8217,4.8353,4.8624,4.8894,4.9301,4.9707,4.9629,4.9494,5.0186,5.0763,5.0906,5.0968,5.1036,5.1065,5.1111,5.1197,5.1294,5.1328,5.1367,5.1387,5.1387,5.1387,5.1387,5.1387,5.1387,5.1387,5.1387,5.1387,5.1387,5.1387,5.1387,5.1387,5.1402,5.1395,5.1385,5.1398,5.1394,5.1394,5.1394,5.1394,5.1394,5.1394,5.0688,5.0688,5.0688,5.0688,5.0697,5.0697,5.071,5.0483,4.9309,4.8253,4.7457,4.6629,4.606,4.5896,4.5803,4.5803,4.5803,4.5803,4.5803,4.5803,4.5803,4.5803,4.5803,4.5803,4.5803,4.5803,4.5803,4.5803,4.5803,4.5803,4.5803,4.5803,4.5803,4.5803,4.5803,4.5803,4.5803,4.5803,4.5803,4.5803,4.5803,4.5803,4.5803,4.5803,4.5803,4.5803,4.5803,4.5803,4.5803,4.5803,4.5803,4.5803,4.5803,4.5803,4.5803,4.5803,4.5803,4.5803,4.5861,4.5861,4.6442,4.7138,4.7486,4.7505,4.7502,4.7502,4.7018,4.6268,4.5861,4.6422,4.7235,4.6867,4.7386,4.7834,4.8221,4.8488,4.8759,4.9126,4.9262,4.9165,4.9552,5.0283,5.0879,5.089,5.0936,5.0986,5.1027,5.108,5.1127,5.1204,5.1301,5.1348,5.1387,5.1387,5.1387,5.1387,5.1387,5.1387,5.1387,5.1387,5.1387,5.1387,5.1387,5.1387,5.1387,5.1402,5.1396,5.1388,5.1399,5.1394,5.1394,5.1394,5.1394,5.1394,5.1394,5.0688,5.0688,5.0688,5.0688,5.0697,5.0697,5.0739,5.0715,4.9862,4.8981,4.8195,4.7345,4.6541,4.5912,4.5803,4.5803,4.5803,4.5803,4.5803,4.5803,4.5803,4.5803,4.5803,4.5803,4.5803,4.5803,4.5803,4.5803,4.5803,4.5803,4.5803,4.5803,4.5803,4.5803,4.5803,4.5803,4.5803,4.5803,4.5803,4.5803,4.5803,4.5803,4.5803,4.5803,4.5803,4.5803,4.5803,4.5803,4.5803,4.5803,4.5803,4.5803,4.5803,4.5803,4.5803,4.5803,4.5803,4.5803,4.5803,4.5803,4.5842,4.6287,4.6113,4.5923,4.6039,4.6306,4.6113,4.5977,4.5803,4.5884,4.6078,4.6654,4.7192,4.7641,4.8086,4.8333,4.8566,4.8759,4.8836,4.9068,4.961,5.0225,5.0763,5.0906,5.0914,5.0933,5.0997,5.1075,5.1133,5.1176,5.1274,5.1348,5.1387,5.1387,5.1387,5.1387,5.1387,5.1387,5.1387,5.1387,5.1387,5.1387,5.1387,5.1387,5.1387,5.1384,5.1397,5.1389,5.1398,5.1395,5.1394,5.1394,5.1394,5.1414,5.1453,5.0688,5.0688,5.0688,5.0688,5.0688,5.0683,5.0716,5.0604,4.9845,4.9046,4.8256,4.7461,4.6692,4.5822,4.5812,4.58,4.5803,4.5803,4.5803,4.5803,4.5803,4.5803,4.5803,4.5803,4.5803,4.5803,4.5803,4.5803,4.5803,4.5803,4.5803,4.5803,4.5803,4.5803,4.5803,4.5803,4.5803,4.5803,4.5803,4.5803,4.5803,4.5803,4.5803,4.5803,4.5803,4.5803,4.5803,4.5803,4.5803,4.5803,4.5803,4.5803,4.5803,4.5803,4.5803,4.5803,4.5803,4.5803,4.5803,4.5823,4.5861,4.5919,4.5919,4.5823,4.5823,4.5881,4.59,4.5939,4.6151,4.6364,4.6712,4.7196,4.7695,4.814,4.8566,4.8894,4.9123,4.932,4.9393,4.9761,5.0264,5.036,5.0859,5.0902,5.0906,5.0902,5.0958,5.1053,5.1132,5.1191,5.1261,5.1337,5.1367,5.1387,5.1387,5.1387,5.1387,5.1387,5.1387,5.1387,5.1387,5.1387,5.1387,5.1387,5.1387,5.1384,5.1399,5.1391,5.1402,5.1396,5.1395,5.1394,5.1394,5.1414,5.1668,5.0688,5.0688,5.0688,5.0688,5.0688,5.0688,5.0688,5.0596,5.0181,4.9529,4.8731,4.7923,4.7055,4.6325,4.5992,4.5801,4.5801,4.5816,4.5803,4.5803,4.5803,4.5803,4.5803,4.5803,4.5803,4.5803,4.5803,4.5803,4.5803,4.5803,4.5803,4.5803,4.5803,4.5803,4.5803,4.5803,4.5803,4.5803,4.5803,4.5803,4.5803,4.5803,4.5803,4.5803,4.5803,4.5803,4.5803,4.5803,4.5803,4.5803,4.5803,4.5803,4.5803,4.5803,4.5803,4.5803,4.5803,4.5803,4.5861,4.6232,4.6268,4.6403,4.6596,4.6886,4.6538,4.6403,4.6345,4.6326,4.6712,4.708,4.7505,4.795,4.8411,4.8894,4.9262,4.9645,4.9896,5.0128,5.0418,5.0705,5.084,5.0821,5.0898,5.0898,5.0898,5.0898,5.094,5.1011,5.1106,5.1193,5.1272,5.1361,5.1387,5.1387,5.1387,5.1387,5.1387,5.1387,5.1387,5.1387,5.1387,5.1387,5.1387,5.1387,5.1387,5.1384,5.1401,5.1395,5.1387,5.1402,5.1397,5.1394,5.1394,5.1394,5.1785,5.0688,5.0688,5.0688,5.0688,5.0688,5.0688,5.0693,5.0688,5.064,5.0216,4.9382,4.8664,4.7865,4.7085,4.6457,4.6097,4.6019,4.5944,4.5803,4.5823,4.5803,4.5803,4.5803,4.5803,4.5803,4.5803,4.5803,4.5803,4.5803,4.5803,4.5803,4.5803,4.5803,4.5803,4.5803,4.5803,4.5803,4.5803,4.5803,4.5803,4.5803,4.5803,4.5803,4.5803,4.5803,4.5803,4.5803,4.5803,4.5803,4.5803,4.5803,4.5803,4.5803,4.5803,4.5803,4.5939,4.5977,4.6113,4.6345,4.679,4.7119,4.7447,4.7912,4.7966,4.754,4.65,4.619,4.725,4.7811,4.8198,4.8624,4.8856,4.9204,4.9649,5.0051,5.0283,5.0438,5.0573,5.067,5.0898,5.0898,5.0898,5.0898,5.0898,5.0898,5.0898,5.0917,5.0992,5.111,5.1195,5.1279,5.1367,5.1387,5.1387,5.1387,5.1387,5.1387,5.1387,5.1387,5.1387,5.1387,5.1387,5.1387,5.1387,5.1386,5.1386,5.1384,5.1398,5.1392,5.1387,5.1402,5.1396,5.1414,5.1531,5.2156,5.0688,5.0688,5.0688,5.0688,5.0688,5.0688,5.0688,5.0688,5.0688,5.0236,4.9499,4.9208,4.8705,4.7887,4.7117,4.6781,4.6712,4.6227,4.5877,4.5842,4.5861,4.5803,4.5803,4.5803,4.5803,4.5803,4.5803,4.5803,4.5803,4.5803,4.5803,4.5803,4.5803,4.5803,4.5803,4.5803,4.5803,4.5803,4.5803,4.5803,4.5803,4.5803,4.5803,4.5803,4.5803,4.5803,4.5803,4.5803,4.5803,4.5803,4.5803,4.5803,4.5803,4.5823,4.5823,4.5919,4.6442,4.6712,4.7022,4.7544,4.7985,4.8101,4.8353,4.8372,4.785,4.6558,4.6577,4.8024,4.8968,4.9355,4.9626,4.9761,4.9935,5.036,5.0724,5.0821,5.0898,5.0898,5.0898,5.0898,5.0898,5.0898,5.0898,5.0898,5.0898,5.0898,5.0898,5.0963,5.1113,5.1216,5.1285,5.1348,5.1387,5.1387,5.1387,5.1387,5.1387,5.1387,5.1387,5.1387,5.1387,5.1387,5.1387,5.1387,5.1387,5.1386,5.1385,5.1401,5.1396,5.1392,5.1444,5.1458,5.1805,5.2,5.2761,5.0688,5.0688,5.0688,5.0688,5.0688,5.0688,5.0688,5.0693,5.0688,5.0438,4.9947,4.9637,4.9208,4.865,4.7969,4.7635,4.7484,4.6784,4.6551,4.6384,4.6055,4.5823,4.5803,4.5919,4.5803,4.5803,4.5803,4.5803,4.5803,4.5803,4.5803,4.5803,4.5803,4.5803,4.5803,4.5803,4.5842,4.5803,4.5861,4.59,4.59,4.5842,4.5823,4.5803,4.5803,4.5803,4.5803,4.5803,4.5803,4.5803,4.5803,4.5803,4.5939,4.6229,4.6461,4.677,4.7215,4.768,4.7931,4.8372,4.8929,4.8987,4.9393,4.9645,4.9703,4.8662,4.8333,4.9548,4.9935,5.0318,5.0302,5.0399,5.0457,5.0724,5.0821,5.0879,5.0898,5.0898,5.0898,5.0898,5.0898,5.0898,5.0898,5.0898,5.0906,5.0929,5.0925,5.1014,5.1138,5.1236,5.1297,5.1348,5.1387,5.1387,5.1387,5.1387,5.1387,5.1387,5.1387,5.1387,5.1387,5.1387,5.1387,5.1387,5.1387,5.1387,5.1386,5.1384,5.14,5.1396,5.1467,5.1537,5.1984,5.2586,5.3464,5.0688,5.0688,5.0688,5.0688,5.0688,5.0688,5.0688,5.0697,5.0697,5.0697,5.0563,4.9993,4.9662,4.9344,4.8836,4.8602,4.8229,4.7611,4.7343,4.708,4.6596,4.6635,4.6519,4.6306,4.6326,4.6093,4.59,4.5861,4.5803,4.5803,4.5803,4.5803,4.5803,4.5803,4.5823,4.5958,4.6113,4.6229,4.6287,4.6287,4.6136,4.5904,4.5823,4.5803,4.5803,4.5803,4.5803,4.5803,4.5803,4.5939,4.6016,4.619,4.6461,4.6883,4.7386,4.7753,4.8217,4.8508,4.874,4.9339,4.9684,4.9993,5.0608,5.0821,5.0782,5.0612,5.0264,5.0341,5.0724,5.084,5.0844,5.0825,5.0859,5.0879,5.0898,5.0898,5.0898,5.0898,5.0898,5.0898,5.0898,5.0898,5.0898,5.0898,5.0914,5.0921,5.0998,5.1108,5.1206,5.1255,5.1324,5.1348,5.1387,5.1387,5.1387,5.1387,5.1387,5.1387,5.1387,5.1387,5.1387,5.1387,5.1387,5.1387,5.1387,5.1465,5.1426,5.1386,5.1383,5.1457,5.1783,5.2048,5.2529,5.3191,5.4206,5.0688,5.0688,5.0688,5.0688,5.0688,5.0688,5.0688,5.0697,5.0697,5.0692,5.0686,5.0726,5.0567,5.0404,4.9634,4.9292,4.9182,4.8512,4.8229,4.8043,4.7699,4.7773,4.7715,4.7366,4.7347,4.6941,4.6364,4.5923,4.6287,4.6113,4.5881,4.5997,4.5939,4.5939,4.6016,4.6326,4.6883,4.6983,4.7366,4.7583,4.7273,4.6809,4.59,4.5803,4.5803,4.5803,4.5803,4.5803,4.5803,4.5997,4.648,4.6867,4.725,4.7734,4.8314,4.8817,4.9281,4.9374,4.9703,5.0128,5.0399,5.0496,5.0879,5.0879,5.0859,5.084,5.0651,5.0651,5.0879,5.0879,5.0879,5.0879,5.0898,5.0898,5.0898,5.0898,5.0898,5.0898,5.0898,5.0898,5.0898,5.0898,5.0898,5.0898,5.0902,5.0936,5.1024,5.1124,5.1193,5.1265,5.1331,5.1367,5.1406,5.1387,5.1387,5.1387,5.1387,5.1387,5.1484,5.1641,5.1641,5.1406,5.1426,5.1894,5.1738,5.1641,5.1562,5.1679,5.158,5.1733,5.2234,5.2655,5.3137,5.3778,5.4755]}]]